ftp/pub/palmer/observations_modified/2019/August/AR190827_BASE.txt

Download

Sample DateTime	Unit Id	WS Avg 2min	WD Avg 2min	WGS 10min	WGD 10min	Air Temp	Rel Humidity	Dew Point	Pyranometer	Quantum	Air Pressure	Snow Level	Rainfall	PW Current	Visibility	CBase 1	CBase 2	CBase 3	Vert Vis
2019/08/27  00:00:00  BASE  2.205    42   2.51076  47   -2.4  95    -3.1  0     0     993.3    NA       0.0000   9999     14990 0     0    
2019/08/27  00:01:00  BASE  2.28732  37   2.56956  29   -2.4  96    -3.0  0     0     993.4    NA       0.0000   9999     14930 0     0    
2019/08/27  00:02:00  BASE  2.35788  29   2.69304  24   -2.4  97    -2.9  0     0     993.4    NA       0.0000   9999     15060 0     0    
2019/08/27  00:03:00  BASE  2.33436  32   2.69304  24   -2.4  97    -2.8  0     0     993.4    NA       0.0000   9999     15060 0     0    
2019/08/27  00:04:00  BASE  2.26968  39   2.69304  24   -2.5  97    -2.8  0     0     993.3    NA       0.0000   9999     14700 0     0    
2019/08/27  00:05:00  BASE  2.16384  43   2.69304  24   -2.5  98    -2.8  0     0     993.3    NA       0.0000   9999     14570 0     0    
2019/08/27  00:06:00  BASE  1.95216  45   2.69304  24   -2.5  98    -2.7  0     0     993.3    NA       0.0000   9999     14370 0     0    
2019/08/27  00:07:00  BASE  1.71108  48   2.69304  24   -2.4  99    -2.5  0     0     993.3    NA       0.0000   9999     0     0     0    
2019/08/27  00:08:00  BASE  1.52292  59   2.69304  24   -2.2  99    -2.3  0     0     993.3    NA       0.0000   9999     0     0     0    
2019/08/27  00:09:00  BASE  1.42296  65   2.69304  24   -2.1  99    -2.1  0     0     993.3    NA       0.0000   9999     0     0     0    
2019/08/27  00:10:00  BASE  1.24068  63   2.69304  24   -1.9  99    -2.0  0     0     993.3    NA       0.0000   9999     0     0     0    
2019/08/27  00:11:00  BASE  1.01136  60   2.69304  24   -1.8  99    -2.0  0     0     993.3    NA       0.0000   9999     0     0     0    
2019/08/27  00:12:00  BASE  0.80556  55   2.45196  34   -1.7  99    -1.9  0     0     993.3    NA       0.0000   9999     0     0     0    
2019/08/27  00:13:00  BASE  0.77028  41   2.42256  40   -1.7  98    -1.9  0     0     993.3    NA       0.0000   9999     0     0     0    
2019/08/27  00:14:00  BASE  0.88788  30   2.26968  51   -1.6  98    -1.9  0     0     993.3    NA       0.0000   9999     0     0     0    
2019/08/27  00:15:00  BASE  0.87612  30   1.96392  43   -1.5  97    -2.0  0     0     993.3    NA       0.0000   9999     0     0     0    
2019/08/27  00:16:00  BASE  0.72912  36   1.63464  53   -1.5  96    -2.0  0     0     993.3    NA       0.0000   9999     0     0     0    
2019/08/27  00:17:00  BASE  0.6762   43   1.57584  69   -1.5  96    -2.1  0     0     993.3    NA       0.0000   9999     0     0     0    
2019/08/27  00:18:00  BASE  0.7938   42   1.54056  70   -1.5  95    -2.1  0     0     993.3    NA       0.0000   9999     0     0     0    
2019/08/27  00:19:00  BASE  0.98784  33   1.45236  54   -1.5  95    -2.1  0     0     993.3    NA       0.0000   9999     0     0     0    
2019/08/27  00:20:00  BASE  1.13484  24   1.35828  24   -1.4  95    -2.2  0     0     993.3    NA       0.0000   9999     0     0     0    
2019/08/27  00:21:00  BASE  1.14072  16   1.35828  12   -1.4  95    -2.2  0     0     993.3    NA       0.0000   9999     0     0     0    
2019/08/27  00:22:00  BASE  0.82908  11   1.35828  12   -1.4  94    -2.2  0     0     993.3    NA       0.0000   9999     0     0     0    
2019/08/27  00:23:00  BASE  0.27048  6    1.35828  12   -1.4  94    -2.2  0     0     993.3    NA       0.0000   9999     0     0     0    
2019/08/27  00:24:00  BASE  0        7    1.35828  12   -1.4  94    -2.3  0     0     993.3    NA       0.0000   9999     14440 0     0    
2019/08/27  00:25:00  BASE  0.6174   112  1.75224  159  -1.5  94    -2.4  0     0     993.3    NA       0.0000   9999     0     0     0    
2019/08/27  00:26:00  BASE  1.38768  158  1.78752  160  -1.7  94    -2.6  0     0     993.3    NA       0.0000   9999     0     0     0    
2019/08/27  00:27:00  BASE  1.28184  150  1.78752  160  -1.8  94    -2.7  0     0     993.3    NA       0.0000   9999     0     0     0    
2019/08/27  00:28:00  BASE  0.67032  143  1.78752  160  -2.0  94    -2.8  0     0     993.2    NA       0.0000   9999     0     0     0    
2019/08/27  00:29:00  BASE  0.1764   146  1.78752  160  -2.1  95    -2.8  0     0     993.2    NA       0.0000   9999     0     0     0    
2019/08/27  00:30:00  BASE  0.02352  144  1.78752  160  -2.1  96    -2.7  0     0     993.2    NA       0.0000   9999     0     0     0    
2019/08/27  00:31:00  BASE  0        152  1.78752  160  -2.0  97    -2.5  0     0     993.2    NA       0.0000   9999     0     0     0    
2019/08/27  00:32:00  BASE  0        166  1.78752  160  -1.9  97    -2.3  0     0     993.2    NA       0.0000   9999     0     0     0    
2019/08/27  00:33:00  BASE  0        158  1.78752  160  -1.8  98    -2.1  0     0     993.2    NA       0.0000   9999     0     0     0    
2019/08/27  00:34:00  BASE  0.15288  145  1.78752  160  -1.8  98    -2.1  0     0     993.2    NA       0.0000   9999     0     0     0    
2019/08/27  00:35:00  BASE  0.15288  132  1.78752  160  -1.7  98    -2.1  0     0     993.2    NA       0.0000   9999     0     0     0    
2019/08/27  00:36:00  BASE  0.05292  105  1.24068  149  -1.8  97    -2.2  0     0     993.2    NA       0.0000   9999     0     0     0    
2019/08/27  00:37:00  BASE  0.59388  70   1.69344  52   -1.9  97    -2.3  0     0     993.2    NA       0.0000   9999     0     0     0    
2019/08/27  00:38:00  BASE  1.42296  54   1.87572  49   -2.0  97    -2.4  0     0     993.2    NA       0.0000   9999     0     0     0    
2019/08/27  00:39:00  BASE  1.51704  51   1.87572  49   -2.2  97    -2.6  0     0     993.2    NA       0.0000   9999     0     0     0    
2019/08/27  00:40:00  BASE  1.22892  55   1.87572  49   -2.3  97    -2.7  0     0     993.2    NA       0.0000   9999     0     0     0    
2019/08/27  00:41:00  BASE  1.21128  65   1.87572  49   -2.4  97    -2.7  0     0     993.2    NA       0.0000   9999     0     0     0    
2019/08/27  00:42:00  BASE  1.19952  70   1.87572  49   -2.4  98    -2.7  0     0     993.1    NA       0.0000   9999     0     0     0    
2019/08/27  00:43:00  BASE  1.19364  60   1.87572  49   -2.4  98    -2.7  0     0     993.0    NA       0.0000   9999     0     0     0    
2019/08/27  00:44:00  BASE  1.3524   52   1.87572  49   -2.5  98    -2.7  0     0     993.0    NA       0.0000   9999     0     0     0    
2019/08/27  00:45:00  BASE  1.54056  52   1.87572  49   -2.5  98    -2.7  0     0     993.0    NA       0.0000   9999     0     0     0    
2019/08/27  00:46:00  BASE  1.4112   53   1.87572  49   -2.5  98    -2.8  0     0     993.0    NA       0.0000   9999     0     0     0    
2019/08/27  00:47:00  BASE  1.24068  61   1.87572  49   -2.5  98    -2.8  0     0     992.9    NA       0.0000   9999     0     0     0    
2019/08/27  00:48:00  BASE  1.31712  76   1.72284  58   -2.5  98    -2.8  0     0     992.9    NA       0.0000   9999     0     0     0    
2019/08/27  00:49:00  BASE  1.50528  86   1.75224  87   -2.5  98    -2.8  0     0     992.9    NA       0.0000   9999     0     0     0    
2019/08/27  00:50:00  BASE  1.65816  89   1.81692  88   -2.4  98    -2.7  0     0     992.9    NA       0.0000   9999     0     0     0    
2019/08/27  00:51:00  BASE  1.6464   90   1.81692  88   -2.3  98    -2.6  0     0     992.9    NA       0.0000   9999     0     0     0    
2019/08/27  00:52:00  BASE  1.40532  89   1.81692  88   -2.1  98    -2.4  0     0     992.9    NA       0.0000   9999     0     0     0    
2019/08/27  00:53:00  BASE  1.17012  92   1.81692  88   -2.0  98    -2.3  0     0     992.9    NA       0.0000   9999     0     0     0    
2019/08/27  00:54:00  BASE  1.39944  101  1.87572  104  -1.9  97    -2.3  0     0     992.9    NA       0.0000   9999     0     0     0    
2019/08/27  00:55:00  BASE  1.5288   118  1.87572  104  -1.9  96    -2.4  0     0     992.8    NA       0.0000   9999     0     0     0    
2019/08/27  00:56:00  BASE  1.28772  131  1.87572  104  -2.1  95    -2.7  0     0     992.8    NA       0.0000   9999     0     0     0    
2019/08/27  00:57:01  BASE  1.12896  135  1.87572  104  -2.3  95    -2.9  0     0     992.8    NA       0.0000   9999     0     0     0    
2019/08/27  00:58:00  BASE  1.22304  143  1.87572  104  -2.5  95    -3.2  0     0     992.8    NA       0.0000   9999     0     0     0    
2019/08/27  00:59:00  BASE  1.42884  144  1.87572  104  -2.6  95    -3.3  0     0     992.8    NA       0.0000   9999     0     0     0    
2019/08/27  01:00:00  BASE  1.31712  132  1.87572  104  -2.5  95    -3.1  0     0     992.8    NA       0.0000   9999     0     0     0    
2019/08/27  01:01:00  BASE  1.06428  134  1.87572  104  -2.4  96    -2.9  0     0     992.7    NA       0.0000   9999     0     0     0    
2019/08/27  01:02:00  BASE  0.94668  147  1.87572  104  -2.2  96    -2.8  0     0     992.7    NA       0.0000   9999     0     0     0    
2019/08/27  01:03:00  BASE  1.13484  157  1.87572  104  -2.1  96    -2.6  0     0     992.7    NA       0.0000   9999     0     0     0    
2019/08/27  01:04:00  BASE  1.59348  169  2.1462   174  -2.0  96    -2.5  0     0     992.6    NA       0.0000   9999     0     0     0    
2019/08/27  01:05:00  BASE  1.7346   176  2.1462   174  -2.0  96    -2.6  0     0     992.6    NA       0.0000   9999     0     0     0    
2019/08/27  01:06:01  BASE  1.54056  179  2.1462   174  -2.0  96    -2.6  0     0     992.6    NA       0.0000   9999     0     0     0    
2019/08/27  01:07:00  BASE  1.4994   176  2.1462   174  -2.1  95    -2.7  0     0     992.6    NA       0.0000   9999     0     0     0    
2019/08/27  01:08:00  BASE  1.52292  175  2.1462   174  -2.2  95    -2.9  0     0     992.6    NA       0.0000   9999     0     0     0    
2019/08/27  01:09:00  BASE  1.37004  180  2.1462   174  -2.4  95    -3.0  0     0     992.6    NA       0.0000   9999     0     0     0    
2019/08/27  01:10:00  BASE  1.09956  184  2.1462   174  -2.5  96    -3.0  0     0     992.6    NA       0.0000   9999     0     0     0    
2019/08/27  01:11:00  BASE  0.54684  182  2.1462   174  -2.5  97    -3.0  0     0     992.6    NA       0.0000   9999     0     0     0    
2019/08/27  01:12:00  BASE  0.05292  189  2.1462   174  -2.6  98    -2.9  0     0     992.7    NA       0.0000   9999     0     0     0    
2019/08/27  01:13:00  BASE  0.1176   229  2.1462   174  -2.5  99    -2.7  0     0     992.7    NA       0.0000   9999     0     0     0    
2019/08/27  01:14:00  BASE  0.61152  279  1.93452  180  -2.5  99    -2.6  0     0     992.7    NA       0.0000   9999     0     0     0    
2019/08/27  01:15:00  BASE  1.38768  307  2.058    322  -2.6  100   -2.6  0     0     992.8    NA       0.0000   9999     0     0     0    
2019/08/27  01:16:00  BASE  1.57584  316  2.058    322  -2.7  100   -2.7  0     0     992.8    NA       0.0000   9999     0     0     0    
2019/08/27  01:17:00  BASE  1.43472  315  2.058    322  -2.9  100   -2.9  0     0     992.8    NA       0.0000   9999     0     0     0    
2019/08/27  01:18:00  BASE  1.50528  314  2.058    322  -3.0  100   -3.0  0     0     992.8    NA       0.0000   9999     0     0     0    
2019/08/27  01:19:00  BASE  1.44648  316  2.058    322  -3.1  100   -3.1  0     0     992.7    NA       0.0000   9999     0     0     0    
2019/08/27  01:20:00  BASE  1.3524   322  2.058    322  -3.1  100   -3.1  0     0     992.7    NA       0.0000   9999     0     0     0    
2019/08/27  01:21:00  BASE  1.48764  334  2.058    322  -3.0  100   -3.0  0     0     992.7    NA       0.0000   9999     0     0     0    
2019/08/27  01:22:00  BASE  1.89924  339  2.54016  336  -3.0  100   -3.0  0     0     992.7    NA       0.0000   9999     0     0     0    
2019/08/27  01:23:00  BASE  2.34024  336  2.63424  337  -3.0  100   -3.0  0     0     992.7    NA       0.0000   9999     0     0     0    
2019/08/27  01:24:00  BASE  2.47548  336  2.63424  337  -3.0  100   -3.0  0     0     992.7    NA       0.0000   9999     0     0     0    
2019/08/27  01:25:00  BASE  2.22852  333  2.63424  337  -2.9  100   -2.9  0     0     992.7    NA       0.0000   9999     0     0     0    
2019/08/27  01:26:00  BASE  1.94628  331  2.63424  337  -2.9  100   -2.9  0     0     992.6    NA       0.0000   9999     0     0     0    
2019/08/27  01:27:00  BASE  1.81104  329  2.63424  337  -2.9  100   -2.9  0     0     992.6    NA       0.0000   9999     0     0     0    
2019/08/27  01:28:00  BASE  1.61112  330  2.63424  337  -2.8  100   -2.8  0     0     992.6    NA       0.0000   9999     0     0     0    
2019/08/27  01:29:00  BASE  1.3524   337  2.63424  337  -2.7  100   -2.7  0     0     992.6    NA       0.0000   9999     13850 0     0    
2019/08/27  01:30:00  BASE  1.37004  341  2.63424  337  -2.7  100   -2.7  0     0     992.6    NA       0.0000   9999     0     0     0    
2019/08/27  01:31:00  BASE  1.69932  337  2.63424  337  -2.6  100   -2.6  0     0     992.6    NA       0.0000   9999     0     0     0    
2019/08/27  01:32:00  BASE  1.78752  340  2.63424  337  -2.7  100   -2.7  0     0     992.7    NA       0.0000   9999     0     0     0    
2019/08/27  01:33:00  BASE  1.75812  342  2.56956  334  -2.7  100   -2.7  0     0     992.7    NA       0.0000   9999     0     0     0    
2019/08/27  01:34:00  BASE  2.2638   333  3.1458   331  -2.8  100   -2.8  0     0     992.7    NA       0.0000   9999     0     0     0    
2019/08/27  01:35:00  BASE  2.30496  333  3.1458   331  -2.8  100   -2.8  0     0     992.7    NA       0.0000   9999     0     0     0    
2019/08/27  01:36:00  BASE  2.42844  335  3.35748  328  -2.8  100   -2.8  0     0     992.7    NA       0.0000   9999     0     0     0    
2019/08/27  01:37:00  BASE  2.89296  328  3.41628  322  -2.8  100   -2.8  0     0     992.6    NA       0.0000   9999     0     0     0    
2019/08/27  01:38:00  BASE  2.8224   324  3.41628  322  -2.8  100   -2.8  0     0     992.6    NA       0.0000   9999     0     0     0    
2019/08/27  01:39:00  BASE  2.99292  319  3.48096  314  -2.7  100   -2.7  0     0     992.6    NA       0.0000   9999     13060 0     0    
2019/08/27  01:40:00  BASE  3.36924  318  3.72204  318  -2.8  100   -2.8  0     0     992.6    NA       0.0000   9999     13320 0     0    
2019/08/27  01:41:00  BASE  3.47508  318  3.83964  320  -2.8  100   -2.8  0     0     992.6    NA       0.0000   9999     13320 0     0    
2019/08/27  01:42:00  BASE  3.45744  320  3.86904  320  -2.9  100   -2.9  0     0     992.6    NA       0.0000   9999     13060 0     0    
2019/08/27  01:43:00  BASE  3.12228  327  3.86904  320  -2.9  100   -2.9  0     0     992.6    NA       0.0000   9999     12830 0     0    
2019/08/27  01:44:00  BASE  2.65776  332  3.86904  320  -3.0  100   -3.0  0     0     992.6    NA       0.0000   9999     12960 0     0    
2019/08/27  01:45:00  BASE  2.28732  333  3.86904  320  -3.0  100   -3.0  0     0     992.6    NA       0.0000   9999     12990 0     0    
2019/08/27  01:46:00  BASE  2.02272  335  3.86904  320  -3.0  100   -3.0  0     0     992.6    NA       0.0000   9999     13060 0     0    
2019/08/27  01:47:00  BASE  1.92864  341  3.86904  320  -2.9  100   -2.9  0     0     992.6    NA       0.0000   9999     13060 0     0    
2019/08/27  01:48:00  BASE  1.72284  351  3.86904  320  -2.9  100   -2.9  0     0     992.6    NA       0.0000   9999     0     0     0    
2019/08/27  01:49:00  BASE  1.51116  6    3.86904  320  -2.9  100   -2.9  0     0     992.6    NA       0.0000   9999     13190 0     0    
2019/08/27  01:50:00  BASE  1.39356  21   3.86904  320  -2.9  100   -2.9  0     0     992.6    NA       0.0000   9999     0     0     0    
2019/08/27  01:51:00  BASE  1.2348   28   3.86904  320  -2.9  100   -2.9  0     0     992.6    NA       0.0000   9999     0     0     0    
2019/08/27  01:52:00  BASE  1.06428  18   3.26928  329  -2.8  100   -2.8  0     0     992.6    NA       0.0000   9999     12830 0     0    
2019/08/27  01:53:00  BASE  1.1466   357  2.81064  340  -2.8  100   -2.8  0     0     992.5    NA       0.0000   9999     13060 0     0    
2019/08/27  01:54:00  BASE  1.39356  343  2.29908  330  -2.6  100   -2.6  0     0     992.4    NA       0.0000   9999     0     0     0    
2019/08/27  01:55:00  BASE  1.55232  341  2.24028  333  -2.5  100   -2.5  0     0     992.4    NA       0.0000   9999     0     0     0    
2019/08/27  01:56:00  BASE  1.60524  341  2.0286   336  -2.5  100   -2.5  0     0     992.4    NA       0.0000   9999     0     0     0    
2019/08/27  01:57:00  BASE  1.55232  332  1.90512  1    -2.4  100   -2.4  0     0     992.4    NA       0.0000   9999     0     0     0    
2019/08/27  01:58:00  BASE  1.31712  320  1.78752  337  -2.5  100   -2.5  0     0     992.3    NA       0.0000   9999     0     0     0    
2019/08/27  01:59:00  BASE  1.19952  321  1.78752  337  -2.6  100   -2.6  0     0     992.3    NA       0.0000   9999     0     0     0    
2019/08/27  02:00:00  BASE  1.15836  343  1.78752  337  -2.6  100   -2.6  0     0     992.3    NA       0.0000   9999     12730 0     0    
2019/08/27  02:01:00  BASE  1.14072  17   1.78752  337  -2.6  100   -2.6  0     0     992.3    NA       0.0000   9999     12960 0     0    
2019/08/27  02:02:00  BASE  1.50528  47   1.9992   61   -2.7  100   -2.7  0     0     992.3    NA       0.0000   9999     12700 0     0    
2019/08/27  02:03:00  BASE  1.91688  62   2.1462   67   -2.6  100   -2.6  0     0     992.3    NA       0.0000   9999     12830 0     0    
2019/08/27  02:04:00  BASE  1.78752  67   2.1462   67   -2.6  100   -2.6  0     0     992.3    NA       0.0000   9999     12860 0     0    
2019/08/27  02:05:00  BASE  1.16424  53   2.1462   67   -2.6  100   -2.6  0     0     992.2    NA       0.0000   9999     12760 0     0    
2019/08/27  02:06:00  BASE  0.5586   27   2.1462   67   -2.5  100   -2.5  0     0     992.2    NA       0.0000   9999     12760 0     0    
2019/08/27  02:07:00  BASE  0.16464  2    2.1462   67   -2.4  100   -2.4  0     0     992.2    NA       0.0000   9999     0     0     0    
2019/08/27  02:08:00  BASE  0        328  2.1462   67   -2.3  100   -2.3  0     0     992.2    NA       0.0000   9999     12530 0     0    
2019/08/27  02:09:00  BASE  0        318  2.1462   67   -2.3  100   -2.3  0     0     992.2    NA       0.0000   9999     0     0     0    
2019/08/27  02:10:00  BASE  0.18228  343  2.1462   67   -2.2  100   -2.2  0     0     992.2    NA       0.0000   9999     0     0     0    
2019/08/27  02:11:00  BASE  0.62916  2    2.1462   67   -2.2  100   -2.2  0     0     992.2    NA       0.0000   9999     0     0     0    
2019/08/27  02:12:00  BASE  0.88788  9    2.1462   67   -2.2  100   -2.2  0     0     992.2    NA       0.0000   9999     0     0     0    
2019/08/27  02:13:00  BASE  0.51156  9    1.93452  70   -2.2  100   -2.2  0     0     992.2    NA       0.0000   9999     0     0     0    
2019/08/27  02:14:00  BASE  0.07644  14   1.1466   24   -2.1  100   -2.1  0     0     992.1    NA       0.0000   9999     0     0     0    
2019/08/27  02:15:00  BASE  0.0294   29   1.029    15   -2.1  100   -2.1  0     0     992.1    NA       0.0000   9999     0     0     0    
2019/08/27  02:16:00  BASE  0.05292  35   1.029    15   -2.1  100   -2.1  0     0     992.1    NA       0.0000   9999     0     0     0    
2019/08/27  02:17:00  BASE  0.37044  29   1.029    15   -2.0  100   -2.0  0     0     992.1    NA       0.0000   9999     0     0     0    
2019/08/27  02:18:00  BASE  0.6762   19   1.029    15   -2.0  100   -2.0  0     0     992.1    NA       0.0000   9999     0     0     0    
2019/08/27  02:19:00  BASE  0.3822   10   1.029    15   -2.0  100   -2.0  0     0     992.1    NA       0.0000   9999     0     0     0    
2019/08/27  02:20:00  BASE  0.05292  7    1.029    15   -1.9  100   -2.0  0     0     992.1    NA       0.0000   9999     0     0     0    
2019/08/27  02:21:00  BASE  0        4    1.029    15   -1.9  99    -2.1  0     0     992.1    NA       0.0000   9999     0     0     0    
2019/08/27  02:22:00  BASE  0        353  0.9702   12   -2.0  99    -2.2  0     0     992.0    NA       0.0000   9999     0     0     0    
2019/08/27  02:23:00  BASE  0.32928  352  0.9702   5    -2.0  98    -2.3  0     0     992.0    NA       0.0000   9999     0     0     0    
2019/08/27  02:24:00  BASE  0.87024  6    1.1466   9    -2.1  98    -2.3  0     0     992.0    NA       0.0000   9999     0     0     0    
2019/08/27  02:25:00  BASE  0.95256  13   1.1466   9    -2.1  98    -2.4  0     0     992.0    NA       0.0000   9999     0     0     0    
2019/08/27  02:26:00  BASE  0.82908  28   1.1466   9    -2.2  98    -2.4  0     0     991.9    NA       0.0000   9999     0     0     0    
2019/08/27  02:27:00  BASE  0.8232   50   1.1466   9    -2.2  98    -2.4  0     0     991.8    NA       0.0000   9999     0     0     0    
2019/08/27  02:28:00  BASE  0.79968  71   1.1466   9    -2.2  99    -2.3  0     0     991.8    NA       0.0000   9999     0     0     0    
2019/08/27  02:29:00  BASE  0.84084  90   1.1466   9    -2.1  99    -2.3  0     0     991.8    NA       0.0000   9999     0     0     0    
2019/08/27  02:30:00  BASE  0.87024  102  1.1466   9    -2.0  99    -2.1  0     0     991.8    NA       0.0000   9999     0     0     0    
2019/08/27  02:31:00  BASE  0.87024  113  1.1466   9    -2.0  99    -2.1  0     0     991.7    NA       0.0000   9999     0     0     0    
2019/08/27  02:32:00  BASE  1.33476  138  2.35788  161  -2.0  98    -2.2  0     0     991.7    NA       0.0000   9999     0     0     0    
2019/08/27  02:33:00  BASE  2.36964  158  3.69264  163  -2.2  98    -2.5  0     0     991.7    NA       0.0000   9999     0     0     0    
2019/08/27  02:34:00  BASE  2.71068  154  3.69264  163  -2.4  97    -2.8  0     0     991.7    NA       0.0000   9999     0     0     0    
2019/08/27  02:35:00  BASE  2.04624  152  3.69264  163  -2.8  97    -3.2  0     0     991.7    NA       0.0000   9999     0     0     0    
2019/08/27  02:36:00  BASE  1.76988  158  3.69264  163  -3.0  97    -3.3  0     0     991.7    NA       0.0000   9999     0     0     0    
2019/08/27  02:37:00  BASE  1.86396  161  3.69264  163  -3.1  98    -3.4  0     0     991.8    NA       0.0000   9999     0     0     0    
2019/08/27  02:38:00  BASE  1.77576  155  3.69264  163  -3.1  98    -3.3  0     0     991.8    NA       0.0000   9999     0     0     0    
2019/08/27  02:39:00  BASE  1.28184  149  3.69264  163  -3.1  99    -3.2  0     0     991.8    NA       0.0000   9999     0     0     0    
2019/08/27  02:40:00  BASE  0.97608  156  3.69264  163  -3.1  99    -3.2  0     0     991.8    NA       0.0000   9999     0     0     0    
2019/08/27  02:41:00  BASE  0.88788  156  3.69264  163  -3.1  100   -3.1  0     0     991.7    NA       0.0000   9999     0     0     0    
2019/08/27  02:42:00  BASE  0.75852  154  3.69264  163  -3.1  100   -3.1  0     0     991.7    NA       0.0000   9999     0     0     0    
2019/08/27  02:43:00  BASE  1.01136  157  2.93412  155  -3.0  100   -3.0  0     0     991.7    NA       0.0000   9999     0     0     0    
2019/08/27  02:44:00  BASE  1.28772  153  2.29908  148  -3.0  100   -3.0  0     0     991.7    NA       0.0000   9999     0     0     0    
2019/08/27  02:45:00  BASE  1.6464   153  2.29908  148  -2.8  100   -2.8  0     0     991.7    NA       0.0000   9999     0     0     0    
2019/08/27  02:46:00  BASE  1.8522   159  2.29908  148  -2.8  100   -2.8  0     0     991.7    NA       0.0000   9999     0     0     0    
2019/08/27  02:47:00  BASE  1.68756  160  2.29908  148  -2.7  100   -2.7  0     0     991.7    NA       0.0000   9999     0     0     0    
2019/08/27  02:48:00  BASE  1.51704  158  2.21088  164  -2.7  100   -2.7  0     0     991.7    NA       0.0000   9999     0     0     0    
2019/08/27  02:49:00  BASE  1.47588  159  2.21088  164  -2.6  100   -2.6  0     0     991.6    NA       0.0000   9999     0     0     0    
2019/08/27  02:50:00  BASE  1.24656  146  2.21088  164  -2.6  100   -2.6  0     0     991.6    NA       0.0000   9999     11580 0     0    
2019/08/27  02:51:00  BASE  0.72912  105  2.21088  164  -2.5  100   -2.5  0     0     991.6    NA       0.0000   9999     11710 0     0    
2019/08/27  02:52:00  BASE  0.54096  57   2.21088  164  -2.4  100   -2.4  0     0     991.6    NA       0.0000   9999     11580 0     0    
2019/08/27  02:53:00  BASE  0.62916  30   2.21088  164  -2.3  100   -2.3  0     0     991.5    NA       0.0000   9999     11120 0     0    
2019/08/27  02:54:00  BASE  0.39984  22   2.21088  164  -2.4  100   -2.4  0     0     991.5    NA       0.0000   9999     0     0     0    
2019/08/27  02:55:00  BASE  0.08232  28   2.21088  164  -2.4  100   -2.4  0     0     991.5    NA       0.0000   9999     0     0     0    
2019/08/27  02:56:00  BASE  0        63   1.96392  161  -2.5  100   -2.5  0     0     991.5    NA       0.0000   9999     0     0     0    
2019/08/27  02:57:00  BASE  0        107  1.81692  146  -2.6  100   -2.6  0     0     991.5    NA       0.0000   9999     0     0     0    
2019/08/27  02:58:00  BASE  0        132  1.81692  146  -2.6  100   -2.6  0     0     991.5    NA       0.0000   9999     0     0     0    
2019/08/27  02:59:00  BASE  0        153  1.81692  146  -2.6  100   -2.6  0     0     991.4    NA       0.0000   9999     0     0     0    
2019/08/27  03:00:00  BASE  0        168  0.90552  39   -2.5  100   -2.5  0     0     991.4    NA       0.0000   9999     10630 0     0    
2019/08/27  03:01:00  BASE  0        165  0.90552  39   -2.4  100   -2.4  0     0     991.4    NA       0.0000   9999     10660 0     0    
2019/08/27  03:02:00  BASE  0        144  0.81732  27   -2.3  100   -2.3  0     0     991.4    NA       0.0000   9999     10630 0     0    
2019/08/27  03:03:00  BASE  0.0882   113  0.72324  95   -2.2  100   -2.2  0     0     991.4    NA       0.0000   9999     10730 0     0    
2019/08/27  03:04:00  BASE  0.51156  90   1.0878   73   -2.1  100   -2.1  0     0     991.3    NA       0.0000   9999     11090 0     0    
2019/08/27  03:05:00  BASE  0.84672  76   1.0878   73   -2.0  100   -2.0  0     0     991.3    NA       0.0000   9999     11320 0     0    
2019/08/27  03:06:00  BASE  0.87024  70   1.1172   86   -1.8  100   -1.8  0     0     991.2    NA       0.0000   9999     11350 0     0    
2019/08/27  03:07:00  BASE  1.16424  74   1.69344  86   -1.7  100   -1.7  0     0     991.2    NA       0.0000   9999     10760 0     0    
2019/08/27  03:08:00  BASE  1.69344  78   2.1756   77   -1.6  100   -1.6  0     0     991.2    NA       0.0000   9999     0     0     0    
2019/08/27  03:09:00  BASE  1.81104  78   2.1756   77   -1.5  100   -1.5  0     0     991.1    NA       0.0000   9999     0     0     0    
2019/08/27  03:10:00  BASE  1.66404  81   2.1756   77   -1.4  99    -1.5  0     0     991.0    NA       0.0000   9999     0     0     0    
2019/08/27  03:11:00  BASE  1.61112  98   2.1756   77   -1.4  98    -1.6  0     0     991.0    NA       0.0000   9999     0     0     0    
2019/08/27  03:12:00  BASE  1.77576  138  2.26968  174  -1.5  97    -1.9  0     0     991.0    NA       0.0000   9999     0     0     0    
2019/08/27  03:13:00  BASE  2.11092  169  2.35788  179  -1.7  95    -2.4  0     0     991.0    NA       0.0000   9999     0     0     0    
2019/08/27  03:14:00  BASE  2.36964  179  2.63424  175  -1.9  94    -2.7  0     0     991.0    NA       0.0000   9999     0     0     0    
2019/08/27  03:15:00  BASE  2.57544  176  2.96352  169  -2.1  94    -2.9  0     0     990.9    NA       0.0000   9999     0     0     0    
2019/08/27  03:16:00  BASE  2.49312  168  2.96352  169  -2.3  94    -3.1  0     0     990.9    NA       0.0000   9999     0     0     0    
2019/08/27  03:17:00  BASE  2.058    160  2.96352  169  -2.4  95    -3.1  0     0     990.9    NA       0.0000   9999     0     0     0    
2019/08/27  03:18:00  BASE  1.56408  148  2.96352  169  -2.3  96    -2.9  0     0     990.9    NA       0.0000   9999     0     0     0    
2019/08/27  03:19:00  BASE  1.42296  140  2.96352  169  -2.3  97    -2.7  0     0     990.9    NA       0.0000   9999     0     0     0    
2019/08/27  03:20:00  BASE  1.72284  144  2.96352  169  -2.3  98    -2.6  0     0     990.9    NA       0.0000   9999     0     0     0    
2019/08/27  03:21:00  BASE  2.0286   145  2.96352  169  -2.3  99    -2.5  0     0     990.8    NA       0.0000   9999     0     0     0    
2019/08/27  03:22:00  BASE  1.89924  140  2.96352  169  -2.4  99    -2.4  0     0     990.8    NA       0.0000   9999     0     0     0    
2019/08/27  03:23:00  BASE  1.53468  118  2.96352  169  -2.4  100   -2.4  0     0     990.8    NA       0.0000   9999     0     0     0    
2019/08/27  03:24:00  BASE  1.48764  88   2.96352  169  -2.3  100   -2.3  0     0     990.8    NA       0.0000   9999     0     0     0    
2019/08/27  03:25:00  BASE  1.61112  72   2.81064  166  -2.2  100   -2.2  0     0     990.8    NA       0.0000   9999     0     0     0    
2019/08/27  03:26:00  BASE  1.3818   70   2.24028  143  -2.0  100   -2.0  0     0     990.8    NA       0.0000   9999     0     0     0    
2019/08/27  03:27:00  BASE  1.31712  87   2.24028  143  -1.7  100   -1.7  0     0     990.7    NA       0.0000   9999     0     0     0    
2019/08/27  03:28:00  BASE  1.68168  104  2.24028  143  -1.5  99    -1.6  0     0     990.7    NA       0.0000   9999     0     0     0    
2019/08/27  03:29:00  BASE  1.76988  113  2.24028  143  -1.3  98    -1.6  0     0     990.7    NA       0.0000   9999     0     0     0    
2019/08/27  03:30:00  BASE  1.45824  116  2.24028  143  -1.3  97    -1.7  0     0     990.6    NA       0.0000   9999     0     0     0    
2019/08/27  03:31:00  BASE  0.81144  121  2.1756   98   -1.4  96    -2.0  0     0     990.5    NA       0.0000   9999     0     0     0    
2019/08/27  03:32:00  BASE  0.51156  117  2.1756   98   -1.4  94    -2.2  0     0     990.5    NA       0.0000   9999     0     0     0    
2019/08/27  03:33:00  BASE  0.7644   78   2.1756   98   -1.4  93    -2.5  0     0     990.5    NA       0.0000   9999     0     0     0    
2019/08/27  03:34:00  BASE  0.74088  12   2.1756   98   -1.5  91    -2.8  0     0     990.5    NA       0.0000   9999     0     0     0    
2019/08/27  03:35:00  BASE  0.4116   352  2.1756   98   -1.7  91    -3.0  0     0     990.4    NA       0.0000   9999     0     0     0    
2019/08/27  03:36:00  BASE  0.09996  337  2.1756   98   -1.8  90    -3.2  0     0     990.4    NA       0.0000   9999     0     0     0    
2019/08/27  03:37:00  BASE  0.12936  291  2.0874   112  -2.0  91    -3.3  0     0     990.4    NA       0.0000   9999     0     0     0    
2019/08/27  03:38:00  BASE  0.27636  236  2.0874   112  -2.2  91    -3.4  0     0     990.4    NA       0.0000   9999     0     0     0    
2019/08/27  03:39:00  BASE  0.147    188  1.66404  112  -2.2  93    -3.2  0     0     990.4    NA       0.0000   9999     0     0     0    
2019/08/27  03:40:00  BASE  0.2058   117  1.35828  83   -2.1  94    -3.0  0     0     990.4    NA       0.0000   9999     0     0     0    
2019/08/27  03:41:00  BASE  0.71148  97   1.39356  104  -2.1  94    -2.9  0     0     990.4    NA       0.0000   9999     0     0     0    
2019/08/27  03:42:00  BASE  0.9996   102  1.39356  104  -2.0  95    -2.7  0     0     990.4    NA       0.0000   9999     0     0     0    
2019/08/27  03:43:00  BASE  0.74676  110  1.39356  104  -2.0  95    -2.7  0     0     990.4    NA       0.0000   9999     0     0     0    
2019/08/27  03:44:00  BASE  0.33516  147  1.39356  104  -1.9  95    -2.6  0     0     990.4    NA       0.0000   9999     0     0     0    
2019/08/27  03:45:00  BASE  0.7938   198  1.60524  218  -1.9  95    -2.6  0     0     990.3    NA       0.0000   9999     0     0     0    
2019/08/27  03:46:00  BASE  1.4994   216  1.69344  218  -1.9  95    -2.6  0     0     990.3    NA       0.0000   9999     0     0     0    
2019/08/27  03:47:00  BASE  1.5288   210  1.69344  218  -1.9  94    -2.7  0     0     990.3    NA       0.0000   9999     0     0     0    
2019/08/27  03:48:00  BASE  1.5582   192  1.75224  178  -1.9  94    -2.7  0     0     990.3    NA       0.0000   9999     0     0     0    
2019/08/27  03:49:00  BASE  1.68168  173  1.90512  160  -1.9  94    -2.7  0     0     990.2    NA       0.0000   9999     0     0     0    
2019/08/27  03:50:00  BASE  1.93452  163  2.24028  161  -1.9  94    -2.7  0     0     990.2    NA       0.0000   9999     0     0     0    
2019/08/27  03:51:00  BASE  2.1756   157  2.26968  156  -1.9  95    -2.7  0     0     990.1    NA       0.0000   9999     0     0     0    
2019/08/27  03:52:00  BASE  2.18736  151  2.29908  156  -2.0  95    -2.7  0     0     990.1    NA       0.0000   9999     0     0     0    
2019/08/27  03:53:00  BASE  2.14032  141  2.29908  137  -2.1  95    -2.8  0     0     990.0    NA       0.0000   9999     0     0     0    
2019/08/27  03:54:00  BASE  1.98156  137  2.29908  137  -2.2  95    -2.8  0     0     989.9    NA       0.0000   9999     0     0     0    
2019/08/27  03:55:00  BASE  1.71696  142  2.29908  137  -2.2  95    -2.9  0     0     989.9    NA       0.0000   9999     0     0     0    
2019/08/27  03:56:00  BASE  1.41708  144  2.29908  137  -2.2  96    -2.8  0     0     989.9    NA       0.0000   9999     0     0     0    
2019/08/27  03:57:00  BASE  1.34064  143  2.29908  137  -2.0  96    -2.6  0     0     989.9    NA       0.0000   9999     0     0     0    
2019/08/27  03:58:00  BASE  1.79928  146  2.54016  145  -1.9  96    -2.5  0     0     989.9    NA       0.0000   9999     0     0     0    
2019/08/27  03:59:00  BASE  2.16972  145  2.56956  144  -1.8  95    -2.5  0     0     989.8    NA       0.0000   9999     0     0     0    
2019/08/27  04:00:00  BASE  2.08152  150  2.56956  144  -1.8  95    -2.5  0     0     989.8    NA       0.0000   9999     0     0     0    
2019/08/27  04:03:00  BASE  3.12816  158  4.1454   161  -1.8  94    -2.6  0     0     989.8    NA       0.0000   9999     0     0     0    
2019/08/27  04:04:01  BASE  3.29868  153  4.1454   161  -1.9  94    -2.8  0     0     989.8    NA       0.0000   9999     0     0     0    
2019/08/27  04:05:00  BASE  3.0576   144  4.1454   161  -2.0  93    -2.9  0     0     989.8    NA       0.0000   9999     0     0     0    
2019/08/27  04:06:00  BASE  2.76948  141  4.1454   161  -2.1  93    -3.0  0     0     989.8    NA       0.0000   9999     0     0     0    
2019/08/27  04:07:00  BASE  2.56368  142  4.1454   161  -2.2  93    -3.1  0     0     989.7    NA       0.0000   9999     0     0     0    
2019/08/27  04:08:00  BASE  2.50488  141  4.1454   161  -2.2  94    -3.1  0     0     989.7    NA       0.0000   9999     0     0     0    
2019/08/27  04:09:00  BASE  2.22264  135  4.1454   161  -2.2  94    -3.0  0     0     989.7    NA       0.0000   9999     0     0     0    
2019/08/27  04:10:00  BASE  1.8228   128  4.1454   161  -2.2  95    -3.0  0     0     989.7    NA       0.0000   9999     0     0     0    
2019/08/27  04:11:00  BASE  1.3818   129  4.1454   161  -2.1  95    -2.9  0     0     989.7    NA       0.0000   9999     0     0     0    
2019/08/27  04:12:00  BASE  0.89964  115  3.83964  158  -2.0  95    -2.8  0     0     989.7    NA       0.0000   9999     0     0     0    
2019/08/27  04:13:00  BASE  0.89964  64   3.41628  146  -1.9  95    -2.6  0     0     989.6    NA       0.0000   9999     0     0     0    
2019/08/27  04:14:00  BASE  1.12308  23   3.32808  142  -1.8  94    -2.7  0     0     989.5    NA       0.0000   9999     0     0     0    
2019/08/27  04:15:00  BASE  1.01136  5    2.81064  145  -1.7  94    -2.6  0     0     989.5    NA       0.0000   9999     0     0     0    
2019/08/27  04:16:01  BASE  1.05252  2    2.81064  145  -1.6  93    -2.6  0     0     989.5    NA       0.0000   9999     0     0     0    
2019/08/27  04:17:00  BASE  1.5582   19   2.56956  141  -1.7  92    -2.7  0     0     989.6    NA       0.0000   9999     0     0     0    
2019/08/27  04:18:00  BASE  2.13444  42   2.93412  77   -1.8  92    -2.9  0     0     989.6    NA       0.0000   9999     0     0     0    
2019/08/27  04:19:00  BASE  2.44608  60   2.93412  77   -1.8  92    -2.9  0     0     989.5    NA       0.0000   9999     0     0     0    
2019/08/27  04:20:00  BASE  2.36376  68   2.93412  77   -1.8  92    -2.9  0     0     989.4    NA       0.0000   9999     0     0     0    
2019/08/27  04:21:00  BASE  1.89336  68   2.93412  77   -1.7  92    -2.9  0     0     989.4    NA       0.0000   9999     0     0     0    
2019/08/27  04:22:00  BASE  1.81104  62   2.93412  77   -1.6  92    -2.7  0     0     989.4    NA       0.0000   9999     0     0     0    
2019/08/27  04:23:00  BASE  2.12268  48   2.93412  77   -1.5  91    -2.8  0     0     989.5    NA       0.0000   9999     0     0     0    
2019/08/27  04:24:00  BASE  2.36964  41   2.93412  77   -1.6  90    -3.0  0     0     989.5    NA       0.0000   9999     0     0     0    
2019/08/27  04:25:00  BASE  2.2344   44   2.93412  77   -1.7  90    -3.1  0     0     989.5    NA       0.0000   9999     0     0     0    
2019/08/27  04:26:00  BASE  2.21088  41   2.93412  77   -1.9  89    -3.4  0     0     989.5    NA       0.0000   9999     0     0     0    
2019/08/27  04:27:00  BASE  2.61072  36   3.2046   37   -2.1  89    -3.6  0     0     989.5    NA       0.0000   9999     0     0     0    
2019/08/27  04:28:00  BASE  2.50488  34   3.2046   37   -2.3  90    -3.7  0     0     989.4    NA       0.0000   9999     0     0     0    
2019/08/27  04:29:00  BASE  2.0286   39   3.2046   37   -2.4  91    -3.7  0     0     989.4    NA       0.0000   9999     0     0     0    
2019/08/27  04:30:00  BASE  1.75812  43   3.2046   37   -2.5  92    -3.6  0     0     989.4    NA       0.0000   9999     0     0     0    
2019/08/27  04:31:00  BASE  1.6464   45   3.2046   37   -2.5  93    -3.4  0     0     989.4    NA       0.0000   9999     0     0     0    
2019/08/27  04:32:00  BASE  1.60524  45   3.2046   37   -2.4  95    -3.1  0     0     989.4    NA       0.0000   9999     0     0     0    
2019/08/27  04:33:00  BASE  1.54056  42   3.2046   37   -2.2  96    -2.8  0     0     989.3    NA       0.0000   9999     0     0     0    
2019/08/27  04:34:00  BASE  1.323    42   3.2046   37   -2.0  96    -2.5  0     0     989.2    NA       0.0000   9999     0     0     0    
2019/08/27  04:35:00  BASE  1.18188  46   3.2046   37   -1.8  96    -2.3  0     0     989.2    NA       0.0000   9999     0     0     0    
2019/08/27  04:36:00  BASE  1.27596  48   3.2046   37   -1.7  95    -2.4  0     0     989.2    NA       0.0000   9999     0     0     0    
2019/08/27  04:37:00  BASE  1.34652  45   2.29908  44   -1.7  95    -2.4  0     0     989.1    NA       0.0000   9999     0     0     0    
2019/08/27  04:38:00  BASE  1.11132  34   1.9992   52   -1.6  94    -2.5  0     0     989.1    NA       0.0000   9999     0     0     0    
2019/08/27  04:39:00  BASE  0.49392  33   1.84632  51   -1.6  93    -2.7  0     0     989.1    NA       0.0000   9999     0     0     0    
2019/08/27  04:40:00  BASE  0.46452  84   2.24028  142  -1.6  92    -2.8  0     0     989.1    NA       0.0000   9999     0     0     0    
2019/08/27  04:41:00  BASE  1.57584  147  2.87532  178  -1.7  91    -3.0  0     0     989.1    NA       0.0000   9999     0     0     0    
2019/08/27  04:42:00  BASE  2.45784  175  3.29868  195  -1.9  90    -3.3  0     0     989.0    NA       0.0000   9999     0     0     0    
2019/08/27  04:43:00  BASE  2.47548  196  3.29868  195  -2.0  90    -3.5  0     0     989.0    NA       0.0000   9999     0     0     0    
2019/08/27  04:44:00  BASE  2.12268  214  3.29868  195  -2.2  89    -3.7  0     0     989.0    NA       0.0000   9999     0     0     0    
2019/08/27  04:45:00  BASE  1.58172  225  3.29868  195  -2.4  90    -3.8  0     0     989.0    NA       0.0000   9999     0     0     0    
2019/08/27  04:46:00  BASE  1.10544  221  3.29868  195  -2.6  90    -3.9  0     0     989.0    NA       0.0000   9999     0     0     0    
2019/08/27  04:47:00  BASE  1.27596  205  3.29868  195  -2.6  91    -3.8  0     0     989.0    NA       0.0000   9999     0     0     0    
2019/08/27  04:48:00  BASE  1.84632  194  3.29868  195  -2.5  93    -3.5  0     0     988.9    NA       0.0000   9999     0     0     0    
2019/08/27  04:49:00  BASE  2.15208  189  3.29868  195  -2.3  94    -3.2  0     0     988.9    NA       0.0000   9999     0     0     0    
2019/08/27  04:50:00  BASE  1.94628  183  3.29868  195  -2.2  94    -3.0  0     0     988.9    NA       0.0000   9999     0     0     0    
2019/08/27  04:51:00  BASE  1.51116  162  3.29868  195  -2.2  95    -2.9  0     0     988.9    NA       0.0000   9999     0     0     0    
2019/08/27  04:52:00  BASE  1.15248  136  2.81064  202  -2.1  95    -2.8  0     0     989.0    NA       0.0000   9999     0     0     0    
2019/08/27  04:53:00  BASE  0.96432  101  2.48136  194  -2.1  96    -2.7  0     0     988.9    NA       0.0000   9999     0     0     0    
2019/08/27  04:54:00  BASE  1.0878   82   2.48136  194  -1.9  96    -2.4  0     0     988.8    NA       0.0000   9999     0     0     0    
2019/08/27  04:55:00  BASE  1.11132  108  2.48136  194  -1.6  96    -2.2  0     0     988.7    NA       0.0000   9999     0     0     0    
2019/08/27  04:56:00  BASE  1.18188  127  2.48136  194  -1.3  95    -2.0  0     0     988.7    NA       0.0000   9999     0     0     0    
2019/08/27  04:57:00  BASE  1.48764  103  2.78124  51   -1.1  93    -2.1  0     0     988.8    NA       0.0000   9999     0     0     0    
2019/08/27  04:58:00  BASE  1.93452  62   2.78124  51   -1.0  91    -2.3  0     0     988.7    NA       0.0000   9999     0     0     0    
2019/08/27  04:59:00  BASE  1.90512  30   2.78124  51   -1.0  89    -2.6  0     0     988.7    NA       0.0000   9999     0     0     0    
2019/08/27  05:00:00  BASE  1.15836  4    2.78124  51   -1.1  88    -2.9  0     0     988.7    NA       0.0000   9999     0     0     0    
2019/08/27  05:01:00  BASE  0.37044  5    2.78124  51   -1.3  87    -3.2  0     0     988.7    NA       0.0000   9999     0     0     0    
2019/08/27  05:02:00  BASE  0.09996  93   2.78124  51   -1.4  86    -3.4  0     0     988.7    NA       0.0000   9999     0     0     0    
2019/08/27  05:03:00  BASE  0.45276  99   2.78124  51   -1.5  86    -3.6  0     0     988.7    NA       0.0000   9999     0     0     0    
2019/08/27  05:04:00  BASE  1.00548  43   2.78124  51   -1.8  86    -3.8  0     0     988.7    NA       0.0000   9999     0     0     0    
2019/08/27  05:05:00  BASE  1.72872  24   2.78124  51   -2.1  87    -4.0  0     0     988.7    NA       0.0000   9999     0     0     0    
2019/08/27  05:06:00  BASE  2.03448  347  2.78124  51   -2.4  88    -4.2  0     0     988.7    NA       0.0000   9999     0     0     0    
2019/08/27  05:07:00  BASE  1.66992  312  2.69304  61   -2.7  89    -4.2  0     0     988.7    NA       0.0000   9999     0     0     0    
2019/08/27  05:08:00  BASE  1.2642   293  2.51076  3    -2.9  90    -4.2  0     0     988.6    NA       0.0000   9999     0     0     0    
2019/08/27  05:09:00  BASE  1.029    274  2.51076  3    -3.1  92    -4.2  0     0     988.5    NA       0.0000   9999     0     0     0    
2019/08/27  05:10:00  BASE  1.12308  257  2.51076  3    -3.1  94    -3.9  0     0     988.5    NA       0.0000   9999     0     0     0    
2019/08/27  05:11:00  BASE  1.18188  238  2.51076  3    -3.0  96    -3.5  0     0     988.5    NA       0.0000   9999     0     0     0    
2019/08/27  05:12:00  BASE  1.21716  225  2.51076  3    -2.9  97    -3.2  0     0     988.5    NA       0.0000   9999     0     0     0    
2019/08/27  05:13:00  BASE  1.2936   212  2.51076  3    -2.8  98    -3.0  0     0     988.5    NA       0.0000   9999     0     0     0    
2019/08/27  05:14:00  BASE  0.9996   198  2.51076  3    -2.8  99    -2.9  0     0     988.5    NA       0.0000   9999     0     0     0    
2019/08/27  05:15:00  BASE  0.51744  182  2.21088  307  -2.8  99    -2.9  0     0     988.5    NA       0.0000   9999     0     0     0    
2019/08/27  05:16:00  BASE  0.13524  156  1.90512  308  -2.8  100   -2.9  0     0     988.5    NA       0.0000   9999     0     0     0    
2019/08/27  05:17:00  BASE  0        149  1.45236  214  -2.9  100   -2.9  0     0     988.4    NA       0.0000   9999     0     0     0    
2019/08/27  05:18:00  BASE  0.05292  175  1.45236  214  -2.9  100   -2.9  0     0     988.4    NA       0.0000   9999     0     0     0    
2019/08/27  05:19:00  BASE  0.28812  198  1.45236  214  -2.8  100   -2.8  0     0     988.3    NA       0.0000   9999     0     0     0    
2019/08/27  05:20:00  BASE  0.65268  209  1.45236  214  -2.8  100   -2.8  0     0     988.3    NA       0.0000   9999     0     0     0    
2019/08/27  05:21:00  BASE  0.4998   232  1.45236  214  -2.8  100   -2.8  0     0     988.3    NA       0.0000   9999     0     0     0    
2019/08/27  05:22:00  BASE  0.71736  313  2.48136  13   -2.8  100   -2.8  0     0     988.4    NA       0.0000   9999     0     0     0    
2019/08/27  05:23:00  BASE  2.058    4    3.02232  10   -2.9  100   -2.9  0     0     988.4    NA       0.0000   9999     0     0     0    
2019/08/27  05:24:00  BASE  2.38728  8    3.02232  10   -3.1  100   -3.1  0     0     988.3    NA       0.0000   9999     0     0     0    
2019/08/27  05:25:00  BASE  1.45824  353  3.02232  10   -3.2  100   -3.2  0     0     988.3    NA       0.0000   9999     0     0     0    
2019/08/27  05:26:00  BASE  0.87612  9    3.02232  10   -3.3  100   -3.3  0     0     988.2    NA       0.0000   9999     0     0     0    
2019/08/27  05:27:00  BASE  1.21716  43   3.02232  10   -3.4  100   -3.4  0     0     988.2    NA       0.0000   9999     0     0     0    
2019/08/27  05:28:00  BASE  1.17012  30   3.02232  10   -3.3  100   -3.3  0     0     988.2    NA       0.0000   9999     0     0     0    
2019/08/27  05:29:00  BASE  0.37632  344  3.02232  10   -3.0  100   -3.0  0     0     988.2    NA       0.0000   9999     0     0     0    
2019/08/27  05:30:00  BASE  0.5292   333  3.02232  10   -2.8  100   -2.8  0     0     988.2    NA       0.0000   9999     0     0     0    
2019/08/27  05:31:00  BASE  1.45236  16   3.02232  10   -2.6  100   -2.6  0     0     988.2    NA       0.0000   9999     0     0     0    
2019/08/27  05:32:00  BASE  2.03448  60   3.02232  10   -2.4  100   -2.4  0     0     988.1    NA       0.0000   9999     0     0     0    
2019/08/27  05:33:00  BASE  1.617    83   2.81064  69   -2.4  100   -2.4  0     0     988.0    NA       0.0000   9999     0     0     0    
2019/08/27  05:34:00  BASE  0.62916  133  2.81064  69   -2.4  100   -2.4  0     0     988.0    NA       0.0000   9999     0     0     0    
2019/08/27  05:35:00  BASE  0.52332  235  2.81064  69   -2.3  100   -2.3  0     0     988.0    NA       0.0000   9999     0     0     0    
2019/08/27  05:36:00  BASE  0.85848  290  2.81064  69   -2.2  100   -2.2  0     0     988.1    NA       0.0000   9999     0     0     0    
2019/08/27  05:37:00  BASE  0.42924  326  2.81064  69   -2.1  100   -2.1  0     0     988.2    NA       0.0000   9999     0     0     0    
2019/08/27  05:38:00  BASE  0.0294   345  2.81064  69   -2.0  100   -2.0  0     0     988.2    NA       0.0000   9999     0     0     0    
2019/08/27  05:39:00  BASE  0.31164  14   2.81064  69   -1.9  100   -1.9  0     0     988.1    NA       0.0000   9999     0     0     0    
2019/08/27  05:40:00  BASE  0.84672  34   2.81064  69   -1.9  99    -2.0  0     0     988.0    NA       0.0000   9999     0     0     0    
2019/08/27  05:41:00  BASE  1.176    33   2.81064  69   -1.9  99    -2.1  0     0     988.0    NA       0.0000   9999     0     0     0    
2019/08/27  05:42:00  BASE  1.30536  25   1.96392  104  -1.9  98    -2.1  0     0     987.9    NA       0.0000   9999     0     0     0    
2019/08/27  05:43:00  BASE  1.04664  25   1.48176  26   -1.9  97    -2.3  0     0     987.9    NA       0.0000   9999     0     0     0    
2019/08/27  05:44:00  BASE  0.4998   68   1.48176  26   -1.9  97    -2.3  0     0     987.9    NA       0.0000   9999     0     0     0    
2019/08/27  05:45:00  BASE  0.65268  123  1.51116  116  -1.8  96    -2.3  0     0     987.9    NA       0.0000   9999     0     0     0    
2019/08/27  05:46:00  BASE  1.07604  131  1.57584  115  -1.9  95    -2.6  0     0     987.9    NA       0.0000   9999     0     0     0    
2019/08/27  05:47:00  BASE  1.2642   124  1.72284  125  -2.2  94    -3.0  0     0     987.9    NA       0.0000   9999     0     0     0    
2019/08/27  05:48:00  BASE  1.4406   120  1.75224  123  -2.4  93    -3.3  0     0     987.9    NA       0.0000   9999     0     0     0    
2019/08/27  05:49:00  BASE  0.84672  109  1.75224  123  -2.6  93    -3.6  0     0     987.9    NA       0.0000   9999     0     0     0    
2019/08/27  05:50:00  BASE  0.12936  62   1.75224  123  -2.7  92    -3.8  0     0     987.9    NA       0.0000   9999     0     0     0    
2019/08/27  05:51:00  BASE  0.02352  319  1.75224  123  -2.5  93    -3.4  0     0     987.8    NA       0.0000   9999     0     0     0    
2019/08/27  05:52:00  BASE  0.02352  267  1.75224  123  -2.1  93    -3.1  0     0     987.8    NA       0.0000   9999     0     0     0    
2019/08/27  05:53:00  BASE  0        239  1.75224  123  -1.8  93    -2.7  0     0     987.9    NA       0.0000   9999     0     0     0    
2019/08/27  05:54:00  BASE  0        242  1.75224  123  -1.5  92    -2.5  0     0     987.9    NA       0.0000   9999     0     0     0    
2019/08/27  05:55:00  BASE  0        293  1.75224  123  -1.3  91    -2.6  0     0     987.9    NA       0.0000   9999     0     0     0    
2019/08/27  05:56:00  BASE  0        357  1.75224  123  -1.3  89    -2.8  0     0     987.9    NA       0.0000   9999     0     0     0    
2019/08/27  05:57:00  BASE  0.15288  79   1.75224  123  -1.3  88    -3.0  0     0     987.9    NA       0.0000   9999     0     0     0    
2019/08/27  05:58:00  BASE  0.71148  141  1.24068  151  -1.3  87    -3.1  0     0     987.8    NA       0.0000   9999     0     0     0    
2019/08/27  05:59:00  BASE  1.05252  156  1.24068  151  -1.3  87    -3.2  0     0     987.8    NA       0.0000   9999     0     0     0    
2019/08/27  06:00:00  BASE  1.07016  166  1.39356  168  -1.3  87    -3.2  0     0     987.8    NA       0.0000   9999     0     0     0    
2019/08/27  06:01:00  BASE  1.31712  166  1.57584  160  -1.3  87    -3.2  0     0     987.8    NA       0.0000   9999     0     0     0    
2019/08/27  06:02:00  BASE  1.45236  161  1.57584  161  -1.3  86    -3.3  0     0     987.7    NA       0.0000   9999     0     0     0    
2019/08/27  06:03:00  BASE  1.51704  159  1.66404  157  -1.4  86    -3.4  0     0     987.7    NA       0.0000   9999     0     0     0    
2019/08/27  06:04:00  BASE  1.71696  157  2.1168   154  -1.6  86    -3.6  0     0     987.7    NA       0.0000   9999     0     0     0    
2019/08/27  06:05:00  BASE  2.22264  149  3.26928  135  -1.8  86    -3.8  0     0     987.6    NA       0.0000   9999     0     0     0    
2019/08/27  06:06:00  BASE  2.75772  141  3.29868  140  -2.1  87    -4.1  0     0     987.5    NA       0.0000   9999     0     0     0    
2019/08/27  06:07:00  BASE  2.62248  138  3.29868  140  -2.3  87    -4.2  0     0     987.4    NA       0.0000   9999     0     0     0    
2019/08/27  06:08:00  BASE  2.19912  133  3.29868  140  -2.4  88    -4.2  0     0     987.4    NA       0.0000   9999     0     0     0    
2019/08/27  06:09:01  BASE  2.10504  131  3.29868  140  -2.4  88    -4.1  0     0     987.4    NA       0.0000   9999     0     0     0    
2019/08/27  06:10:00  BASE  2.15208  129  3.29868  140  -2.3  89    -3.9  0     0     987.3    NA       0.0000   9999     0     0     0    
2019/08/27  06:11:00  BASE  2.19324  121  3.29868  140  -2.1  89    -3.6  0     0     987.3    NA       0.0000   9999     0     0     0    
2019/08/27  06:12:01  BASE  2.3814   111  3.29868  140  -1.8  89    -3.4  0     0     987.3    NA       0.0000   9999     0     0     0    
2019/08/27  06:13:00  BASE  2.55192  111  3.29868  140  -1.6  88    -3.3  0     0     987.3    NA       0.0000   9999     0     0     0    
2019/08/27  06:14:01  BASE  2.5284   124  3.29868  140  -1.5  87    -3.4  0     0     987.2    NA       0.0000   9999     0     0     0    
2019/08/27  06:15:00  BASE  2.50488  129  3.29868  140  -1.3  85    -3.5  0     0     987.2    NA       0.0000   9999     0     0     0    
2019/08/27  06:16:00  BASE  2.64012  127  2.96352  125  -1.3  83    -3.7  0     0     987.2    NA       0.0000   9999     0     0     0    
2019/08/27  06:17:00  BASE  2.89296  123  3.2046   122  -1.3  81    -4.1  0     0     987.2    NA       0.0000   9999     0     0     0    
2019/08/27  06:18:00  BASE  2.99292  120  3.2046   122  -1.4  80    -4.5  0     0     987.2    NA       0.0000   9999     17090 0     0    
2019/08/27  06:19:01  BASE  3.21636  112  3.81024  101  -1.4  79    -4.5  0     0     987.2    NA       0.0000   9999     0     0     0    
2019/08/27  06:20:00  BASE  3.65148  103  3.99252  97   -1.3  79    -4.4  0     0     987.1    NA       0.0000   9999     0     0     0    
2019/08/27  06:21:00  BASE  3.39864  103  3.99252  97   -1.1  79    -4.3  0     0     987.1    NA       0.0000   9999     0     0     0    
2019/08/27  06:22:00  BASE  2.793    113  3.99252  97   -1.1  79    -4.3  0     0     987.1    NA       0.0000   9999     0     0     0    
2019/08/27  06:23:00  BASE  2.59308  129  3.99252  97   -1.0  79    -4.2  0     0     987.0    NA       0.0000   9999     0     0     0    
2019/08/27  06:24:00  BASE  1.911    174  3.99252  97   -1.0  78    -4.3  0     0     987.0    NA       0.0000   9999     0     0     0    
2019/08/27  06:25:00  BASE  1.4406   213  3.99252  97   -1.2  78    -4.6  0     0     987.0    NA       0.0000   9999     0     0     0    
2019/08/27  06:26:00  BASE  1.69932  227  3.99252  97   -1.5  78    -4.8  0     0     986.9    NA       0.0000   9999     0     0     0    
2019/08/27  06:27:00  BASE  2.0286   231  3.99252  97   -1.6  79    -4.8  0     0     986.8    NA       0.0000   9999     0     0     0    
2019/08/27  06:28:00  BASE  1.9698   222  3.99252  97   -1.7  79    -4.8  0     0     986.8    NA       0.0000   9999     0     0     0    
2019/08/27  06:29:00  BASE  1.51116  202  3.99252  97   -1.7  80    -4.7  0     0     986.9    NA       0.0000   9999     0     0     0    
2019/08/27  06:30:00  BASE  1.56996  216  3.51036  99   -1.8  82    -4.5  0     0     986.8    NA       0.0000   9999     0     0     0    
2019/08/27  06:31:00  BASE  1.8228   249  3.1458   129  -1.9  83    -4.4  0     0     986.9    NA       0.0000   9999     0     0     0    
2019/08/27  06:32:00  BASE  1.44648  281  3.1458   129  -2.0  84    -4.3  0     0     987.0    NA       0.0000   9999     0     0     0    
2019/08/27  06:33:01  BASE  0.9996   337  2.93412  231  -2.1  85    -4.3  0     0     987.0    NA       0.0000   9999     0     0     0    
2019/08/27  06:34:01  BASE  1.06428  251  2.93412  231  -2.2  87    -4.1  0     0     986.8    NA       0.0000   9999     0     0     0    
2019/08/27  06:35:00  BASE  1.80516  225  2.93412  231  -2.3  88    -4.0  0     0     986.7    NA       0.0000   9999     0     0     0    
2019/08/27  06:36:00  BASE  2.352    233  2.93412  231  -2.3  88    -3.9  0     0     986.7    NA       0.0000   9999     0     0     0    
2019/08/27  06:37:00  BASE  1.92864  238  2.87532  219  -2.3  89    -3.8  0     0     986.7    NA       0.0000   9999     0     0     0    
2019/08/27  06:38:00  BASE  1.8816   222  2.87532  219  -2.3  89    -3.8  0     0     986.8    NA       0.0000   9999     0     0     0    
2019/08/27  06:39:00  BASE  1.7934   190  2.87532  219  -2.3  90    -3.7  0     0     986.8    NA       0.0000   9999     0     0     0    
2019/08/27  06:40:01  BASE  1.617    186  2.87532  219  -2.2  90    -3.6  0     0     986.7    NA       0.0000   9999     0     0     0    
2019/08/27  06:41:00  BASE  1.92276  204  2.87532  219  -2.2  91    -3.6  0     0     986.7    NA       0.0000   9999     0     0     0    
2019/08/27  06:42:00  BASE  2.1168   214  2.87532  219  -2.2  91    -3.5  0     0     986.6    NA       0.0000   9999     0     0     0    
2019/08/27  06:43:00  BASE  1.95804  221  2.87532  219  -2.2  92    -3.4  0     0     986.6    NA       0.0000   9999     0     0     0    
2019/08/27  06:44:00  BASE  1.42296  210  2.87532  219  -2.2  92    -3.3  0     0     986.6    NA       0.0000   9999     0     0     0    
2019/08/27  06:45:00  BASE  1.03488  199  2.87532  219  -2.2  93    -3.2  0     0     986.6    NA       0.0000   9999     0     0     0    
2019/08/27  06:46:00  BASE  1.56996  251  3.02232  327  -2.2  93    -3.1  0     0     986.6    NA       0.0000   9999     0     0     0    
2019/08/27  06:47:00  BASE  1.91688  300  3.02232  327  -2.1  94    -3.0  0     0     986.6    NA       0.0000   9999     0     0     0    
2019/08/27  06:48:00  BASE  1.47     300  3.02232  327  -2.2  94    -3.1  0     0     986.6    NA       0.0000   9999     0     0     0    
2019/08/27  06:49:00  BASE  1.25832  267  3.02232  327  -2.1  94    -3.0  0     0     986.6    NA       0.0000   9999     0     0     0    
2019/08/27  06:50:01  BASE  1.43472  223  3.02232  327  -2.1  93    -3.0  0     0     986.5    NA       0.0000   9999     0     0     0    
2019/08/27  06:51:01  BASE  1.63464  216  3.02232  327  -2.1  93    -3.1  0     0     986.5    NA       0.0000   9999     21520 0     0    
2019/08/27  06:52:01  BASE  0.96432  222  3.02232  327  -2.1  93    -3.1  0     0     986.5    NA       0.0000   9999     21330 0     0    
2019/08/27  06:53:00  BASE  0.65268  269  3.02232  327  -1.9  92    -3.0  0     0     986.5    NA       0.0000   9999     21160 0     0    
2019/08/27  06:54:00  BASE  1.12308  305  3.02232  327  -1.7  92    -2.9  0     0     986.4    NA       0.0000   9999     0     0     0    
2019/08/27  06:55:00  BASE  1.21716  301  3.02232  327  -1.4  90    -2.8  0     0     986.4    NA       0.0000   9999     0     0     0    
2019/08/27  06:56:01  BASE  1.66404  308  2.87532  310  -1.1  88    -2.8  0     0     986.4    NA       0.0000   9999     19290 0     0    
2019/08/27  06:57:00  BASE  2.54016  313  3.0576   308  -0.9  86    -3.1  0     0     986.4    NA       0.0000   9999     0     0     0    
2019/08/27  06:58:00  BASE  2.9694   311  3.2046   308  -0.9  84    -3.4  0     0     986.4    NA       0.0000   9999     19420 0     0    
2019/08/27  06:59:00  BASE  3.13992  317  3.86904  324  -1.2  82    -3.9  0     0     986.3    NA       0.0000   9999     18540 0     0    
2019/08/27  07:00:00  BASE  3.51624  320  4.02192  314  -1.7  82    -4.4  0     0     986.2    NA       0.0000   9999     0     0     0    
2019/08/27  07:01:00  BASE  3.69264  311  4.02192  314  -2.1  83    -4.6  0     0     986.2    NA       0.0000   9999     0     0     0    
2019/08/27  07:02:00  BASE  3.33984  307  4.02192  314  -2.4  85    -4.5  0     0     986.2    NA       0.0000   9999     0     0     0    
2019/08/27  07:03:00  BASE  2.94     309  4.02192  314  -2.5  87    -4.3  0     0     986.2    NA       0.0000   9999     20870 0     0    
2019/08/27  07:04:00  BASE  2.75184  310  4.02192  314  -2.4  89    -4.0  0     0     986.2    NA       0.0000   9999     0     0     0    
2019/08/27  07:05:00  BASE  2.42256  309  4.02192  314  -2.4  91    -3.7  0     0     986.2    NA       0.0000   9999     20740 0     0    
2019/08/27  07:06:00  BASE  2.48724  311  4.02192  314  -2.3  92    -3.5  0     0     986.2    NA       0.0000   9999     0     0     0    
2019/08/27  07:07:00  BASE  2.56956  315  4.02192  314  -2.3  93    -3.2  0     0     986.2    NA       0.0000   9999     0     0     0    
2019/08/27  07:08:00  BASE  2.52252  317  4.02192  314  -2.4  94    -3.2  0     0     986.1    NA       0.0000   9999     0     0     0    
2019/08/27  07:09:00  BASE  3.1164   313  4.02192  314  -2.5  96    -3.1  0     0     986.0    NA       0.0000   9999     0     0     0    
2019/08/27  07:10:00  BASE  2.2932   296  3.96312  295  -2.4  97    -2.8  0     0     986.0    NA       0.0000   9999     0     0     0    
2019/08/27  07:11:00  BASE  1.93452  294  3.96312  295  -2.3  98    -2.5  0     0     986.0    NA       0.0000   9999     0     0     0    
2019/08/27  07:12:00  BASE  2.86356  312  3.96312  295  -2.3  99    -2.4  0     0     986.0    NA       0.0000   9999     0     0     0    
2019/08/27  07:13:00  BASE  2.51664  328  3.96312  295  -2.2  99    -2.3  0     0     986.1    NA       0.0000   9999     0     0     0    
2019/08/27  07:14:00  BASE  2.75772  331  3.96312  295  -2.3  100   -2.3  0     0     986.1    NA       0.0000   9999     0     0     0    
2019/08/27  07:15:00  BASE  3.59268  319  3.96312  295  -2.4  100   -2.5  0     0     986.0    NA       0.0000   9999     0     0     0    
2019/08/27  07:16:00  BASE  3.6456   309  4.1454   302  -2.6  100   -2.6  0     0     986.0    NA       0.0000   9999     0     0     0    
2019/08/27  07:17:00  BASE  3.39864  305  4.1454   302  -2.6  100   -2.7  0     0     986.0    NA       0.0000   9999     0     0     0    
2019/08/27  07:18:00  BASE  3.36336  306  4.1454   302  -2.6  100   -2.6  0     0     986.0    NA       0.0000   9999     0     0     0    
2019/08/27  07:19:00  BASE  3.50448  311  4.1454   302  -2.5  100   -2.5  0     0     986.0    NA       0.0000   9999     0     0     0    
2019/08/27  07:20:00  BASE  3.61032  317  4.1454   302  -2.5  100   -2.5  0     0     986.0    NA       0.0000   9999     0     0     0    
2019/08/27  07:21:00  BASE  3.31632  324  4.1454   302  -2.4  100   -2.4  0     0     986.0    NA       0.0000   9999     0     0     0    
2019/08/27  07:22:00  BASE  2.81064  324  4.1454   302  -2.3  100   -2.3  0     0     986.0    NA       0.0000   9999     0     0     0    
2019/08/27  07:23:00  BASE  2.22264  327  4.1454   302  -2.0  100   -2.0  0     0     985.9    NA       0.0000   9999     15910 0     0    
2019/08/27  07:24:00  BASE  1.7052   341  4.1454   302  -1.6  100   -1.6  0     0     986.0    NA       0.0000   9999     0     0     0    
2019/08/27  07:25:00  BASE  1.31124  103  4.1454   302  -1.2  100   -1.2  0     0     986.0    NA       0.0000   9999     0     0     0    
2019/08/27  07:26:00  BASE  1.45236  126  3.90432  327  -0.8  99    -1.0  0     0     986.0    NA       0.0000   9999     16040 0     0    
2019/08/27  07:27:00  BASE  1.59936  144  3.90432  327  -0.4  97    -0.7  0     0     985.9    NA       0.0000   9999     0     0     0    
2019/08/27  07:28:00  BASE  1.27008  153  3.90432  327  0.0   95    -0.7  0     0     985.9    NA       0.0000   9999     0     0     0    
2019/08/27  07:29:00  BASE  2.14032  120  5.53308  88   0.3   92    -0.9  0     0     985.9    NA       0.0000   9999     0     0     0    
2019/08/27  07:30:00  BASE  4.27476  92   6.02112  92   0.5   88    -1.2  0     0     985.9    NA       0.0000   9999     0     0     0    
2019/08/27  07:31:00  BASE  5.00976  107  6.02112  92   0.9   86    -1.3  0     0     985.8    NA       0.0000   9999     0     0     0    
2019/08/27  07:32:00  BASE  4.54524  117  6.02112  92   1.1   83    -1.4  0     0     985.7    NA       0.0000   9999     15450 0     0    
2019/08/27  07:33:00  BASE  4.45704  114  6.02112  92   1.3   81    -1.7  0     0     985.7    NA       0.0000   9999     0     0     0    
2019/08/27  07:34:00  BASE  4.86276  115  6.59148  120  1.3   80    -1.9  0     0     985.6    NA       0.0000   9999     0     0     0    
2019/08/27  07:35:00  BASE  3.87492  116  6.59148  120  1.3   79    -1.9  0     0     985.6    NA       0.0000   9999     0     0     0    
2019/08/27  07:36:00  BASE  2.24616  120  6.59148  120  1.3   78    -2.1  0     0     985.6    NA       0.0000   9999     0     0     0    
2019/08/27  07:37:01  BASE  3.087    129  6.59148  120  1.2   77    -2.3  0     0     985.6    NA       0.0000   9999     0     0     0    
2019/08/27  07:38:00  BASE  4.70988  129  6.59148  120  1.1   77    -2.5  0     0     985.6    NA       0.0000   9999     0     0     0    
2019/08/27  07:39:00  BASE  5.01564  124  6.59148  120  1.0   76    -2.7  0     0     985.7    NA       0.0000   9999     0     0     0    
2019/08/27  07:40:00  BASE  4.69812  115  6.59148  120  1.0   76    -2.8  0     0     985.7    NA       0.0000   9999     0     0     0    
2019/08/27  07:41:00  BASE  6.10932  109  8.67888  109  0.9   76    -2.9  0     0     985.6    NA       0.0000   9999     0     0     0    
2019/08/27  07:42:00  BASE  6.91488  97   8.67888  109  1.0   76    -2.8  0     0     985.6    NA       0.0000   9999     0     0     0    
2019/08/27  07:43:00  BASE  4.92156  81   8.67888  109  1.1   76    -2.7  0     0     985.7    NA       0.0000   9999     0     0     0    
2019/08/27  07:44:00  BASE  4.3218   90   8.67888  109  1.1   75    -2.8  0     0     985.7    NA       0.0000   9999     0     0     0    
2019/08/27  07:45:00  BASE  5.36256  104  8.67888  109  1.2   75    -2.8  0     0     985.6    NA       0.0000   9999     0     0     0    
2019/08/27  07:46:00  BASE  6.43272  111  8.67888  109  1.3   74    -2.8  0     0     985.5    NA       0.0000   9999     0     0     0    
2019/08/27  07:47:00  BASE  7.47348  113  8.67888  109  1.3   74    -2.9  0     0     985.5    NA       0.0000   9999     0     0     0    
2019/08/27  07:48:00  BASE  7.46172  109  8.67888  109  1.3   74    -2.9  0     0     985.6    NA       0.0000   9999     0     0     0    
2019/08/27  07:49:00  BASE  7.06188  112  8.67888  109  1.4   74    -2.8  0     0     985.6    NA       0.0000   9999     0     0     0    
2019/08/27  07:50:00  BASE  6.31512  120  8.67888  109  1.5   73    -2.8  0     0     985.6    NA       0.0000   9999     0     0     0    
2019/08/27  07:51:00  BASE  5.99172  118  8.53188  126  1.5   73    -2.7  0     0     985.6    NA       0.0000   9999     0     0     0    
2019/08/27  07:52:00  BASE  5.28612  109  8.53188  126  1.6   73    -2.8  0     0     985.7    NA       0.0000   9999     0     0     0    
2019/08/27  07:53:00  BASE  4.09836  113  8.53188  126  1.6   72    -2.8  0     0     985.6    NA       0.0000   9999     0     0     0    
2019/08/27  07:54:00  BASE  4.2336   126  8.53188  126  1.6   72    -2.8  0     0     985.6    NA       0.0000   9999     0     0     0    
2019/08/27  07:55:00  BASE  4.9686   126  8.53188  126  1.5   72    -2.9  0     0     985.6    NA       0.0000   9999     0     0     0    
2019/08/27  07:56:01  BASE  4.80396  117  8.53188  126  1.5   73    -2.9  0     0     985.6    NA       0.0000   9999     0     0     0    
2019/08/27  07:57:00  BASE  3.6456   111  8.53188  126  1.4   73    -3.0  0     0     985.7    NA       0.0000   9999     0     0     0    
2019/08/27  07:58:00  BASE  3.01056  104  8.53188  126  1.3   73    -2.9  0     0     985.7    NA       0.0000   9999     0     0     0    
2019/08/27  07:59:00  BASE  2.60484  113  8.13792  115  1.3   73    -3.0  0     0     985.6    NA       0.0000   9999     0     0     0    
2019/08/27  08:00:00  BASE  4.28652  95   11.86    69   1.3   74    -2.9  0     0     985.4    NA       0.0000   9999     0     0     0    
2019/08/27  08:01:00  BASE  9.01992  65   13.4887  75   1.3   74    -2.9  0     0     985.1    NA       0.0000   SQ       9999  0     0    
2019/08/27  08:02:00  BASE  13.2182  74   15.9407  69   1.3   74    -2.8  0     0     984.9    NA       0.0000   SQ       9999  0     0    
2019/08/27  08:03:00  BASE  14.5589  76   15.9407  69   1.4   74    -2.7  0     0     984.8    NA       0.0000   SQ       9999  0     0    
2019/08/27  08:04:00  BASE  13.2359  76   15.9407  69   1.5   74    -2.6  0     0     984.9    NA       0.0000   SQ       9999  14140 0    
2019/08/27  08:05:00  BASE  11.9893  72   15.9407  69   1.6   74    -2.5  0     0     984.9    NA       0.0000   9999     0     0     0    
2019/08/27  08:06:00  BASE  12.2186  74   15.9407  69   1.7   74    -2.5  0     0     984.8    NA       0.0000   9999     0     0     0    
2019/08/27  08:07:01  BASE  12.6244  79   15.9407  69   1.8   73    -2.5  0     0     984.8    NA       0.0000   9999     0     0     0    
2019/08/27  08:08:01  BASE  13.0242  79   15.9407  69   1.9   72    -2.6  0     0     984.7    NA       0.0000   9999     14530 0     0    
2019/08/27  08:09:01  BASE  13.1418  76   15.9407  69   1.9   72    -2.6  0     0     984.8    NA       0.0000   9999     14400 0     0    
2019/08/27  08:10:01  BASE  13.965   74   16.3346  73   1.9   71    -2.7  0     0     984.6    NA       0.0000   9999     14600 0     0    
2019/08/27  08:11:01  BASE  14.3884  74   16.3346  73   1.9   71    -2.7  0     0     984.7    NA       0.0000   9999     14930 0     0    
2019/08/27  08:12:01  BASE  13.183   76   16.3346  73   1.9   72    -2.7  0     0     984.7    NA       0.0000   9999     14900 0     0    
2019/08/27  08:13:01  BASE  12.248   77   16.3346  73   1.9   72    -2.7  0     0     984.7    NA       0.0000   9999     14930 0     0    
2019/08/27  08:14:01  BASE  11.4072  78   16.3346  73   2.0   71    -2.7  0     0     984.7    NA       0.0000   9999     14960 0     0    
2019/08/27  08:15:00  BASE  10.5722  79   16.3346  73   2.1   71    -2.7  0     0     984.8    NA       0.0000   9999     14470 0     0    
2019/08/27  08:16:00  BASE  10.5958  77   16.3346  73   2.2   70    -2.7  0     0     984.8    NA       0.0000   9999     14170 0     0    
2019/08/27  08:17:00  BASE  10.9721  74   16.3346  73   2.3   69    -2.8  0     0     984.8    NA       0.0000   9999     13850 0     0    
2019/08/27  08:18:01  BASE  10.925   74   16.3346  73   2.3   68    -2.9  0     0     984.8    NA       0.0000   9999     0     0     0    
2019/08/27  08:19:00  BASE  10.7604  77   16.3346  73   2.3   68    -3.0  0     0     984.8    NA       0.0000   9999     0     0     0    
2019/08/27  08:20:00  BASE  11.4013  76   15.4291  73   2.3   68    -3.0  0     0     984.7    NA       0.0000   9999     0     0     0    
2019/08/27  08:21:00  BASE  12.3539  74   14.6706  71   2.2   68    -3.1  0     0     984.7    NA       0.0000   9999     0     0     0    
2019/08/27  08:22:00  BASE  12.5538  75   14.6706  71   2.2   68    -3.1  0     0     984.7    NA       0.0000   9999     0     0     0    
2019/08/27  08:23:00  BASE  12.3245  76   14.6706  71   2.2   68    -3.0  0     0     984.7    NA       0.0000   9999     0     0     0    
2019/08/27  08:24:00  BASE  12.007   75   14.6706  71   2.2   69    -3.0  0     0     984.7    NA       0.0000   9999     0     0     0    
2019/08/27  08:25:00  BASE  12.5479  74   14.7941  77   2.2   69    -3.0  0     0     984.7    NA       0.0000   9999     0     0     0    
2019/08/27  08:26:00  BASE  13.4476  73   14.9705  71   2.1   69    -3.0  0     0     984.7    NA       0.0000   9999     0     0     0    
2019/08/27  08:27:00  BASE  13.5475  73   15.2174  71   2.1   69    -3.0  0     0     984.7    NA       0.0000   9999     0     0     0    
2019/08/27  08:28:00  BASE  13.4476  73   15.2762  68   2.1   69    -3.0  0     0     984.7    NA       0.0000   9999     0     0     0    
2019/08/27  08:29:00  BASE  13.2241  71   15.2762  68   2.0   70    -3.0  0     0     984.7    NA       0.0000   9999     0     0     0    
2019/08/27  08:30:00  BASE  13.0948  71   15.2762  68   2.0   70    -2.9  0     0     984.7    NA       0.0000   9999     0     0     0    
2019/08/27  08:31:00  BASE  13.0889  73   15.2762  68   2.0   70    -2.9  0     0     984.8    NA       0.0000   9999     0     0     0    
2019/08/27  08:32:00  BASE  12.5009  74   15.2762  68   2.0   70    -2.8  0     0     984.8    NA       0.0000   9999     0     0     0    
2019/08/27  08:33:00  BASE  11.907   74   15.2762  68   2.1   70    -2.8  0     0     984.9    NA       0.0000   9999     0     0     0    
2019/08/27  08:34:00  BASE  11.466   76   15.2762  68   2.1   70    -2.8  0     0     984.9    NA       0.0000   9999     0     0     0    
2019/08/27  08:35:00  BASE  10.7251  78   15.2762  68   2.1   70    -2.8  0     0     985.0    NA       0.0000   9999     0     0     0    
2019/08/27  08:36:00  BASE  10.5487  80   15.2762  68   2.1   70    -2.8  0     0     985.0    NA       0.0000   9999     0     0     0    
2019/08/27  08:37:00  BASE  11.5189  77   15.2762  68   2.1   70    -2.9  0     0     984.9    NA       0.0000   9999     13650 0     0    
2019/08/27  08:38:00  BASE  12.4421  78   14.1238  74   2.0   70    -2.9  0     0     984.9    NA       0.0000   9999     13620 0     0    
2019/08/27  08:39:00  BASE  11.8776  83   14.1238  74   2.0   71    -2.8  0     0     984.9    NA       0.0000   9999     13350 0     0    
2019/08/27  08:40:00  BASE  10.7251  84   14.1238  74   2.0   71    -2.8  0     0     984.9    NA       0.0000   9999     6790  0     0    
2019/08/27  08:41:00  BASE  10.778   84   14.1238  74   2.1   70    -2.8  0     0     984.9    NA       0.0000   9999     6760  0     0    
2019/08/27  08:42:00  BASE  10.831   84   14.1238  74   2.1   70    -2.8  0     0     984.9    NA       0.0000   9999     13710 0     0    
2019/08/27  08:43:00  BASE  10.2488  85   14.1238  74   2.2   69    -2.8  0     0     984.9    NA       0.0000   9999     6430  0     0    
2019/08/27  08:44:00  BASE  9.89604  84   14.1238  74   2.2   69    -2.9  0     0     984.9    NA       0.0000   9999     6200  7020  0    
2019/08/27  08:45:00  BASE  10.1136  83   14.1238  74   2.1   69    -3.0  0     0     984.9    NA       0.0000   9999     6270  0     0    
2019/08/27  08:46:01  BASE  10.7016  85   14.1238  74   2.0   69    -3.0  0     0     984.9    NA       0.0000   9999     6040  0     0    
2019/08/27  08:47:01  BASE  11.7365  85   14.1238  74   2.0   70    -3.0  0     0     984.9    NA       0.0000   9999     6040  0     0    
2019/08/27  08:48:01  BASE  11.9305  88   13.7004  86   1.9   70    -2.9  0     0     984.9    NA       0.0000   9999     7220  0     0    
2019/08/27  08:49:01  BASE  11.466   90   13.7004  86   1.9   71    -2.9  0     0     984.8    NA       0.0000   9999     13090 0     0    
2019/08/27  08:50:01  BASE  11.5248  87   13.7004  86   1.9   71    -2.8  0     0     984.9    NA       0.0000   9999     6590  0     0    
2019/08/27  08:51:01  BASE  12.6596  85   15.0058  84   2.0   71    -2.8  0     0     984.8    NA       0.0000   9999     5970  0     0    
2019/08/27  08:52:01  BASE  12.2657  83   15.0058  84   1.9   71    -2.8  0     0     984.9    NA       0.0000   9999     5840  0     0    
2019/08/27  08:53:00  BASE  10.9015  84   15.0058  84   1.9   71    -2.7  0     0     984.9    NA       0.0000   9999     5710  0     0    
2019/08/27  08:54:01  BASE  11.3308  85   15.0058  84   1.9   71    -2.7  0     0     984.9    NA       0.0000   9999     5810  7280  0    
2019/08/27  08:55:00  BASE  11.8541  84   15.0058  84   1.8   72    -2.8  0     0     984.9    NA       0.0000   9999     5840  0     0    
2019/08/27  08:56:01  BASE  11.8129  84   15.0058  84   1.7   72    -2.7  0     0     985.0    NA       0.0000   9999     5810  0     0    
2019/08/27  08:57:00  BASE  11.125   85   15.0058  84   1.7   73    -2.7  0     0     985.0    NA       0.0000   9999     5710  0     0    
2019/08/27  08:58:00  BASE  10.2253  87   15.0058  84   1.7   73    -2.7  0     0     985.0    NA       0.0000   9999     5740  0     0    
2019/08/27  08:59:00  BASE  9.8784   87   15.0058  84   1.7   73    -2.7  0     0     984.9    NA       0.0000   9999     5810  0     0    
2019/08/27  09:00:00  BASE  10.1254  86   15.0058  84   1.7   73    -2.7  0     0     984.9    NA       0.0000   9999     5710  0     0    
2019/08/27  09:01:00  BASE  10.2665  87   13.2182  80   1.6   73    -2.7  0     0     984.9    NA       0.0000   9999     5580  0     0    
2019/08/27  09:02:00  BASE  10.2606  90   13.2182  80   1.6   73    -2.7  0     0     984.9    NA       0.0000   9999     0     0     0    
2019/08/27  09:03:00  BASE  10.4311  90   13.2182  80   1.6   74    -2.6  0     0     984.9    NA       0.0000   9999     14140 0     0    
2019/08/27  09:04:00  BASE  10.2782  88   13.2182  80   1.6   74    -2.6  0     0     984.9    NA       0.0000   9999     14340 0     0    
2019/08/27  09:05:00  BASE  9.75492  89   13.2182  80   1.6   74    -2.5  0     0     984.9    NA       0.0000   9999     14860 0     0    
2019/08/27  09:06:00  BASE  9.53148  91   13.2182  80   1.6   74    -2.5  0     0     984.9    NA       0.0000   9999     15290 0     0    
2019/08/27  09:07:00  BASE  9.1434   104  11.8894  79   1.6   74    -2.6  0     0     985.0    NA       0.0000   9999     15190 0     0    
2019/08/27  09:08:00  BASE  8.96112  124  11.8894  79   1.5   74    -2.6  0     0     985.0    NA       0.0000   9999     5870  0     0    
2019/08/27  09:09:00  BASE  8.91996  134  11.8894  79   1.4   75    -2.6  0     0     984.9    NA       0.0000   9999     13940 0     0    
2019/08/27  09:10:00  BASE  8.66124  135  11.8894  79   1.3   75    -2.6  0     0     984.9    NA       0.0000   9999     5940  0     0    
2019/08/27  09:11:00  BASE  8.232    134  11.8894  79   1.3   76    -2.5  0     0     984.9    NA       0.0000   9999     5580  0     0    
2019/08/27  09:12:00  BASE  7.92624  132  11.8894  79   1.3   76    -2.4  0     0     984.9    NA       0.0000   9999     5350  0     0    
2019/08/27  09:13:00  BASE  7.89096  132  11.0426  87   1.3   77    -2.3  0     0     984.8    NA       0.0000   9999     14010 0     0    
2019/08/27  09:14:00  BASE  7.57344  133  11.0426  87   1.4   77    -2.3  0     0     984.9    NA       0.0000   9999     14530 0     0    
2019/08/27  09:15:00  BASE  7.74984  133  10.1665  99   1.4   76    -2.3  0     0     984.8    NA       0.0000   9999     13710 0     0    
2019/08/27  09:16:01  BASE  8.13204  131  9.89016  106  1.4   76    -2.3  0     0     984.8    NA       0.0000   9999     13650 0     0    
2019/08/27  09:17:01  BASE  7.87332  128  9.70788  136  1.5   76    -2.3  0     0     984.8    NA       0.0000   9999     13940 0     0    
2019/08/27  09:18:01  BASE  8.01444  131  9.70788  136  1.5   76    -2.3  0     0     984.8    NA       0.0000   9999     13810 0     0    
2019/08/27  09:19:01  BASE  8.29668  132  9.70788  136  1.4   76    -2.4  0     0     984.8    NA       0.0000   9999     13680 0     0    
2019/08/27  09:20:01  BASE  8.06736  134  9.22572  133  1.5   76    -2.3  0     0     984.8    NA       0.0000   9999     13390 0     0    
2019/08/27  09:21:01  BASE  7.45584  135  9.22572  133  1.5   76    -2.3  0     0     984.8    NA       0.0000   9999     5450  0     0    
2019/08/27  09:22:01  BASE  6.93252  135  9.22572  133  1.5   76    -2.3  0     0     984.7    NA       0.0000   9999     13550 0     0    
2019/08/27  09:23:01  BASE  7.6734   136  9.4668   141  1.5   76    -2.3  0     0     984.7    NA       0.0000   9999     13550 0     0    
2019/08/27  09:24:01  BASE  8.6436   137  9.4668   141  1.5   76    -2.2  0     0     984.7    NA       0.0000   9999     13620 0     0    
2019/08/27  09:25:01  BASE  8.3202   134  9.4668   141  1.6   76    -2.3  0     0     984.7    NA       0.0000   9999     13580 0     0    
2019/08/27  09:26:01  BASE  7.94388  128  9.4668   141  1.6   76    -2.3  0     0     984.7    NA       0.0000   9999     13520 0     0    
2019/08/27  09:27:01  BASE  8.30256  123  9.4668   141  1.7   75    -2.2  0     0     984.7    NA       0.0000   9999     13520 0     0    
2019/08/27  09:28:01  BASE  7.91448  117  9.4668   141  1.8   75    -2.2  0     0     984.7    NA       0.0000   9999     13980 0     0    
2019/08/27  09:29:01  BASE  6.62676  114  9.4668   141  2.0   74    -2.2  0     0     984.7    NA       0.0000   9999     13550 0     0    
2019/08/27  09:30:01  BASE  6.41508  123  9.4668   141  2.2   73    -2.3  0     0     984.6    NA       0.0000   9999     13580 0     0    
2019/08/27  09:31:01  BASE  6.95016  130  9.4668   141  2.2   72    -2.4  0     0     984.6    NA       0.0000   9999     13480 0     0    
2019/08/27  09:32:01  BASE  7.40292  135  9.4668   141  2.2   71    -2.5  0     0     984.4    NA       0.0000   9999     13350 0     0    
2019/08/27  09:33:00  BASE  8.00268  141  9.4668   141  2.1   71    -2.6  0     0     984.4    NA       0.0000   9999     12990 0     0    
2019/08/27  09:34:01  BASE  8.78472  139  10.0724  134  2.0   71    -2.7  0     0     984.3    NA       0.0000   9999     12800 0     0    
2019/08/27  09:35:00  BASE  9.39624  135  10.1959  137  1.9   72    -2.6  0     0     984.3    NA       0.0000   9999     13090 0     0    
2019/08/27  09:36:01  BASE  9.19632  135  10.6781  133  1.9   73    -2.5  0     0     984.4    NA       0.0000   9999     12700 0     0    
2019/08/27  09:37:00  BASE  8.6436   132  10.6781  133  2.0   72    -2.4  0     0     984.5    NA       0.0000   9999     12730 0     0    
2019/08/27  09:38:00  BASE  8.07912  129  10.6781  133  2.1   72    -2.4  0     0     984.5    NA       0.0000   9999     5510  0     0    
2019/08/27  09:39:00  BASE  7.13832  128  10.6781  133  2.2   72    -2.4  0     0     984.6    NA       0.0000   9999     13030 0     0    
2019/08/27  09:40:00  BASE  5.78592  129  10.6781  133  2.3   71    -2.4  0     0     984.6    NA       0.0000   9999     13060 0     0    
2019/08/27  09:41:00  BASE  5.02152  129  10.6781  133  2.3   71    -2.5  0     0     984.6    NA       0.0000   9999     6820  0     0    
2019/08/27  09:42:00  BASE  5.48016  130  10.6781  133  2.2   71    -2.5  0     0     984.6    NA       0.0000   9999     12370 0     0    
2019/08/27  09:43:00  BASE  6.60912  131  10.6781  133  2.2   71    -2.5  0     0     984.6    NA       0.0000   9999     12760 0     0    
2019/08/27  09:44:00  BASE  7.2912   129  10.6781  133  2.1   71    -2.6  0     0     984.6    NA       0.0000   9999     12800 0     0    
2019/08/27  09:45:00  BASE  7.21476  130  10.6781  133  2.0   72    -2.5  0     0     984.5    NA       0.0000   9999     5940  0     0    
2019/08/27  09:46:00  BASE  6.79728  136  9.61968  127  2.0   72    -2.5  0     0     984.5    NA       0.0000   9999     5810  6820  0    
2019/08/27  09:47:00  BASE  5.80356  135  8.4672   123  2.0   73    -2.4  0     0     984.5    NA       0.0000   9999     5910  0     0    
2019/08/27  09:48:01  BASE  5.12148  131  8.19672  128  2.1   72    -2.4  0     0     984.5    NA       0.0000   9999     5680  0     0    
2019/08/27  09:49:01  BASE  5.36844  130  8.19672  128  2.1   72    -2.4  0     0     984.5    NA       0.0000   9999     5840  0     0    
2019/08/27  09:50:01  BASE  5.439    125  8.19672  128  2.2   72    -2.4  0     0     984.5    NA       0.0000   9999     12110 0     0    
2019/08/27  09:51:01  BASE  5.59188  121  8.19672  128  2.1   72    -2.5  0     0     984.3    NA       0.0000   9999     12010 0     0    
2019/08/27  09:52:01  BASE  5.57424  124  8.19672  128  2.1   72    -2.5  0     0     984.3    NA       0.0000   9999     11940 0     0    
2019/08/27  09:53:01  BASE  5.83296  117  9.4668   97   2.0   72    -2.5  0     0     984.3    NA       0.0000   9999     12270 0     0    
2019/08/27  09:54:01  BASE  7.7616   97   10.6193  90   1.9   73    -2.4  0     0     984.1    NA       0.0000   9999     12040 0     0    
2019/08/27  09:55:01  BASE  9.03168  89   10.8898  90   2.0   74    -2.2  0     0     984.2    NA       0.0000   9999     11940 0     0    
2019/08/27  09:56:01  BASE  9.25512  93   12.101   106  2.2   73    -2.1  0     0     984.2    NA       0.0000   9999     12370 0     0    
2019/08/27  09:57:01  BASE  9.4962   107  12.101   106  2.3   72    -2.1  0     0     984.2    NA       0.0000   9999     12370 0     0    
2019/08/27  09:58:01  BASE  8.53776  120  12.101   106  2.5   72    -2.1  0     0     984.3    NA       0.0000   9999     7020  0     0    
2019/08/27  09:59:01  BASE  7.68516  121  12.101   106  2.7   71    -2.1  0     0     984.3    NA       0.0000   9999     12400 0     0    
2019/08/27  10:00:01  BASE  7.42056  120  12.101   106  2.7   70    -2.3  0     0     984.2    NA       0.0000   9999     12170 0     0    
2019/08/27  10:01:01  BASE  6.27984  129  12.101   106  2.6   70    -2.4  0     0     984.2    NA       0.0000   9999     12010 0     0    
2019/08/27  10:02:01  BASE  5.56836  139  12.101   106  2.6   70    -2.3  0     0     984.1    NA       0.0000   9999     11420 0     0    
2019/08/27  10:03:01  BASE  5.3802   134  12.101   106  2.5   70    -2.3  0     0     984.1    NA       0.0000   9999     5710  0     0    
2019/08/27  10:04:01  BASE  5.1744   124  12.101   106  2.5   70    -2.4  0     0     984.1    NA       0.0000   9999     6860  0     0    
2019/08/27  10:05:01  BASE  5.5566   124  12.101   106  2.4   71    -2.3  0     0     984.1    NA       0.0000   9999     11840 0     0    
2019/08/27  10:06:01  BASE  5.57424  133  11.1308  123  2.4   71    -2.3  0     0     984.0    NA       0.0000   9999     12270 0     0    
2019/08/27  10:07:01  BASE  5.4684   135  8.86116  120  2.4   72    -2.2  0     0     984.0    NA       0.0000   9999     11840 0     0    
2019/08/27  10:08:01  BASE  6.10344  122  8.50248  121  2.4   72    -2.2  0     0     984.0    NA       0.0000   9999     11910 0     0    
2019/08/27  10:09:01  BASE  7.2618   115  8.89056  132  2.4   72    -2.1  0     0     984.0    NA       0.0000   9999     11940 0     0    
2019/08/27  10:10:00  BASE  8.27316  120  9.3492   118  2.6   71    -2.1  0     0     984.0    NA       0.0000   9999     12040 0     0    
2019/08/27  10:11:00  BASE  8.50836  121  9.3492   118  2.7   71    -2.1  0     0     983.9    NA       0.0000   9999     12210 0     0    
2019/08/27  10:12:01  BASE  8.60832  123  9.3492   118  2.8   70    -2.2  0     0     983.9    NA       0.0000   9999     12530 0     0    
2019/08/27  10:13:00  BASE  8.67888  127  9.3492   118  2.9   69    -2.2  0     0     983.9    NA       0.0000   9999     0     0     0    
2019/08/27  10:14:01  BASE  8.085    128  9.3492   118  2.9   69    -2.3  0     0     983.9    NA       0.0000   9999     12210 0     0    
2019/08/27  10:15:00  BASE  7.33824  128  9.3492   118  2.8   69    -2.3  0     0     983.9    NA       0.0000   9999     12570 0     0    
2019/08/27  10:16:00  BASE  6.62088  134  9.3492   118  2.7   69    -2.3  0     0     983.8    NA       0.0000   9999     12730 0     0    
2019/08/27  10:17:00  BASE  5.80944  141  9.3492   118  2.6   70    -2.3  0     0     983.8    NA       0.0000   9999     12960 0     0    
2019/08/27  10:18:00  BASE  5.9682   138  9.3492   118  2.5   70    -2.3  0     0     983.9    NA       0.0000   9999     12860 0     0    
2019/08/27  10:19:00  BASE  7.50876  131  11.1602  119  2.5   71    -2.3  0     0     983.8    NA       0.0000   9999     12600 0     0    
2019/08/27  10:20:00  BASE  8.6142   123  11.1602  119  2.4   71    -2.2  0     0     983.8    NA       0.0000   9999     5640  0     0    
2019/08/27  10:21:00  BASE  8.36724  117  11.1602  119  2.5   72    -2.1  0     0     983.8    NA       0.0000   9999     12400 0     0    
2019/08/27  10:22:01  BASE  7.4676   116  11.1602  119  2.6   71    -2.1  0     0     983.8    NA       0.0000   9999     12570 0     0    
2019/08/27  10:23:01  BASE  6.45624  117  11.1602  119  2.7   71    -2.0  0     0     983.9    NA       0.0000   9999     12800 0     0    
2019/08/27  10:24:01  BASE  6.59148  119  11.1602  119  2.8   71    -2.0  0     0     983.8    NA       0.0000   9999     12990 0     0    
2019/08/27  10:25:01  BASE  7.56168  119  11.1602  119  2.9   70    -2.0  0     0     983.8    NA       0.0000   9999     13260 0     0    
2019/08/27  10:26:01  BASE  7.05012  119  11.1602  119  2.9   70    -2.0  0     0     983.8    NA       0.0000   9999     13350 0     0    
2019/08/27  10:27:01  BASE  6.62088  120  11.1602  119  3.0   69    -2.1  0     0     983.7    NA       0.0000   9999     13390 0     0    
2019/08/27  10:28:01  BASE  7.32648  124  11.1602  119  3.0   69    -2.1  0     0     983.8    NA       0.0000   9999     13780 0     0    
2019/08/27  10:29:00  BASE  7.46172  123  11.0426  120  3.0   69    -2.1  0     0     983.8    NA       0.0000   9999     13520 0     0    
2019/08/27  10:30:00  BASE  7.32648  114  9.16692  111  2.9   69    -2.1  0     0     983.9    NA       0.0000   9999     13580 0     0    
2019/08/27  10:31:01  BASE  7.31472  108  9.16692  111  2.8   70    -2.1  0     0     983.9    NA       0.0000   9999     13320 0     0    
2019/08/27  10:32:01  BASE  6.16224  111  9.16692  111  2.8   71    -2.0  0     0     983.9    NA       0.0000   9999     13450 0     0    
2019/08/27  10:33:01  BASE  5.36844  105  9.16692  111  2.7   71    -2.0  0     0     983.9    NA       0.0000   9999     13390 0     0    
2019/08/27  10:34:01  BASE  5.9094   96   9.16692  111  2.7   72    -1.9  0     0     983.9    NA       0.0000   9999     13320 0     0    
2019/08/27  10:35:01  BASE  6.74436  88   8.98464  76   2.6   72    -1.9  0     0     983.9    NA       0.0000   9999     13120 0     0    
2019/08/27  10:36:01  BASE  7.203    85   8.98464  76   2.6   72    -1.9  0     0     983.9    NA       0.0000   9999     14210 0     0    
2019/08/27  10:37:01  BASE  7.59696  108  9.31392  118  2.5   73    -1.9  0     0     983.7    NA       0.0000   9999     14170 0     0    
2019/08/27  10:38:01  BASE  8.3496   122  9.64908  118  2.5   73    -1.8  0     0     983.6    NA       0.0000   9999     14170 0     0    
2019/08/27  10:39:01  BASE  8.6142   122  9.64908  118  2.6   73    -1.7  0     0     983.5    NA       0.0000   9999     0     0     0    
2019/08/27  10:40:01  BASE  8.30844  125  9.64908  118  2.7   73    -1.7  0     0     983.5    NA       0.0000   9999     13810 0     0    
2019/08/27  10:41:01  BASE  8.28492  121  11.3719  113  2.8   73    -1.6  0     0     983.5    NA       0.0000   9999     13780 0     0    
2019/08/27  10:42:01  BASE  8.8788   114  11.6483  110  2.9   72    -1.6  0     0     983.5    NA       0.0000   9999     13060 0     0    
2019/08/27  10:43:01  BASE  8.1144   116  11.6483  110  3.0   71    -1.7  0     0     983.5    NA       0.0000   9999     13420 0     0    
2019/08/27  10:44:01  BASE  7.7028   123  11.6483  110  3.1   70    -1.8  0     0     983.6    NA       0.0000   9999     14170 0     0    
2019/08/27  10:45:01  BASE  8.33784  123  11.6483  110  3.1   70    -1.9  0     0     983.7    NA       0.0000   9999     14080 0     0    
2019/08/27  10:46:01  BASE  7.77336  122  11.6483  110  3.1   69    -1.9  0     0     983.7    NA       0.0000   9999     13650 0     0    
2019/08/27  10:47:01  BASE  6.92076  124  11.6483  110  3.0   70    -2.0  0     0     983.7    NA       0.0000   9999     13450 0     0    
2019/08/27  10:48:01  BASE  6.8502   125  11.6483  110  2.9   70    -2.0  0     0     983.7    NA       0.0000   9999     13350 0     0    
2019/08/27  10:49:01  BASE  7.25004  131  11.6483  110  2.8   71    -2.0  0     0     983.6    NA       0.0000   9999     12830 14930 0    
2019/08/27  10:50:01  BASE  7.3206   134  11.6483  110  2.6   72    -1.9  0     0     983.6    NA       0.0000   9999     14760 0     0    
2019/08/27  10:51:01  BASE  7.29708  130  11.6483  110  2.5   73    -1.9  0     0     983.5    NA       0.0000   9999     14760 0     0    
2019/08/27  10:52:00  BASE  8.10264  122  9.80196  115  2.4   74    -1.8  0     0     983.5    NA       0.0000   9999     14830 0     0    
2019/08/27  10:53:00  BASE  9.2904   116  10.6781  116  2.3   74    -1.8  0     0     983.4    NA       0.0000   9999     14960 0     0    
2019/08/27  10:54:01  BASE  9.20808  121  10.6781  116  2.3   75    -1.7  0     0     983.4    NA       0.0000   9999     14860 0     0    
2019/08/27  10:55:01  BASE  8.2908   128  10.6781  116  2.2   75    -1.7  0     0     983.5    NA       0.0000   9999     14930 0     0    
2019/08/27  10:56:01  BASE  7.791    132  10.6781  116  2.2   76    -1.6  0     0     983.5    NA       0.0000   9999     14900 0     0    
2019/08/27  10:57:01  BASE  7.07952  134  10.6781  116  2.1   76    -1.6  0     0     983.5    NA       0.0000   9999     14990 0     0    
2019/08/27  10:58:01  BASE  6.73848  130  10.6781  116  2.1   77    -1.6  0     0     983.6    NA       0.0000   9999     13750 0     0    
2019/08/27  10:59:01  BASE  7.3794   121  10.6781  116  2.1   77    -1.5  0     0     983.5    NA       0.0000   9999     13710 0     0    
2019/08/27  11:00:01  BASE  7.89096  116  10.6781  116  2.1   77    -1.5  0     0     983.5    NA       0.0000   9999     13780 0     0    
2019/08/27  11:01:01  BASE  8.25552  118  10.6781  116  2.1   77    -1.5  0     0     983.5    NA       0.0000   9999     13780 0     0    
2019/08/27  11:02:01  BASE  8.59068  119  10.6781  116  2.1   77    -1.5  0     0     983.4    NA       0.0000   9999     13810 0     0    
2019/08/27  11:03:00  BASE  9.13164  119  10.3135  126  2.2   77    -1.4  0     0     983.4    NA       0.0000   9999     13880 14860 15620
2019/08/27  11:04:00  BASE  9.78432  117  10.8604  108  2.2   77    -1.4  0     0     983.4    NA       0.0000   9999     14760 15580 0    
2019/08/27  11:05:00  BASE  9.50796  114  10.8604  108  2.2   77    -1.4  0     0     983.5    NA       0.0000   9999     14800 15520 0    
2019/08/27  11:06:00  BASE  8.71416  119  10.8604  108  2.2   77    -1.4  0     0     983.4    NA       0.0000   9999     14860 15450 0    
2019/08/27  11:07:00  BASE  8.59068  118  10.8604  108  2.2   77    -1.5  0     0     983.4    NA       0.0000   9999     14760 0     0    
2019/08/27  11:08:01  BASE  8.94348  119  10.8604  108  2.2   77    -1.5  0     0     983.3    NA       0.0000   9999     14730 0     0    
2019/08/27  11:09:01  BASE  8.86116  127  10.8604  108  2.2   77    -1.5  0     0     983.3    NA       0.0000   9999     14500 0     0    
2019/08/27  11:10:01  BASE  8.7318   129  10.8604  108  2.2   77    -1.4  0     0     983.3    NA       0.0000   9999     14600 0     0    
2019/08/27  11:11:01  BASE  8.39076  126  10.8604  108  2.1   77    -1.5  0     0     983.3    NA       0.0000   9999     14700 0     0    
2019/08/27  11:12:01  BASE  8.04384  122  10.8604  108  2.1   77    -1.5  0     0     983.4    NA       0.0000   9999     14670 0     0    
2019/08/27  11:13:01  BASE  8.53776  122  10.8604  108  2.1   77    -1.5  0     0     983.3    NA       0.0000   9999     14500 0     0    
2019/08/27  11:14:01  BASE  8.59656  127  10.1665  128  2.1   77    -1.5  0     0     983.3    NA       0.0000   9999     14440 0     0    
2019/08/27  11:15:01  BASE  8.085    135  10.1665  128  2.1   77    -1.5  0     0     983.2    NA       0.0000   9999     14400 0     0    
2019/08/27  11:16:01  BASE  8.19084  140  10.1665  128  2.1   77    -1.5  0     0     983.1    NA       0.0000   9999     14500 0     0    
2019/08/27  11:17:01  BASE  8.5554   139  10.1665  128  2.1   77    -1.5  0     0     983.1    NA       0.0000   9999     14530 0     0    
2019/08/27  11:18:01  BASE  8.69064  139  10.1665  128  2.1   77    -1.5  0     0     983.1    NA       0.0000   9999     14600 0     0    
2019/08/27  11:19:01  BASE  8.95524  132  10.1665  114  2.0   77    -1.5  0     0     983.1    NA       0.0000   9999     14570 0     0    
2019/08/27  11:20:01  BASE  9.07284  128  10.1665  114  2.0   78    -1.5  0     0     983.1    NA       0.0000   9999     14530 0     0    
2019/08/27  11:21:01  BASE  8.91408  131  10.3782  131  2.0   78    -1.5  0     0     983.1    NA       0.0000   9999     14440 0     0    
2019/08/27  11:22:01  BASE  9.4374   128  10.831   130  2.0   78    -1.4  0     0     983.1    NA       0.0000   9999     14500 0     0    
2019/08/27  11:23:01  BASE  9.97248  127  10.8604  131  1.9   78    -1.4  0     0     983.1    NA       0.0000   9999     14500 0     0    
2019/08/27  11:24:01  BASE  10.1312  126  11.1896  124  2.0   79    -1.4  0     0     983.1    NA       0.0000   9999     4490  0     0    
2019/08/27  11:25:01  BASE  10.3841  125  11.2837  127  2.0   79    -1.3  0     0     983.2    NA       0.0000   9999     14500 0     0    
2019/08/27  11:26:01  BASE  10.5134  126  11.5836  130  2.1   79    -1.3  0     0     983.1    NA       0.0000   9999     14470 0     0    
2019/08/27  11:27:01  BASE  10.3606  125  11.5836  130  2.2   78    -1.2  0     0     983.2    NA       0.0000   9999     14530 0     0    
2019/08/27  11:28:01  BASE  10.2077  123  11.5836  130  2.2   78    -1.2  0     0     983.2    NA       0.0000   9999     14990 0     0    
2019/08/27  11:29:01  BASE  10.0724  122  11.5836  130  2.3   77    -1.3  0     0     983.2    NA       0.0000   9999     14860 0     0    
2019/08/27  11:30:01  BASE  10.2782  118  11.5836  130  2.3   77    -1.3  0     0     983.1    NA       0.0000   9999     14900 0     0    
2019/08/27  11:31:01  BASE  10.1371  116  11.5836  130  2.3   77    -1.4  0     0     983.1    NA       0.0000   9999     14700 0     0    
2019/08/27  11:32:01  BASE  9.49032  115  11.5836  130  2.3   77    -1.4  1     0     983.2    NA       0.0000   9999     4820  14990 0    
2019/08/27  11:33:01  BASE  9.07284  112  11.5836  130  2.3   77    -1.4  1     0     983.3    NA       0.0000   9999     5350  15030 0    
2019/08/27  11:34:01  BASE  8.22024  109  11.5836  130  2.4   76    -1.4  1     0     983.3    NA       0.0000   9999     15130 0     0    
2019/08/27  11:35:01  BASE  7.28532  105  11.5836  130  2.4   76    -1.4  1     0     983.3    NA       0.0000   9999     15130 0     0    
2019/08/27  11:36:01  BASE  7.00896  108  11.3719  121  2.4   75    -1.5  1     0     983.2    NA       0.0000   9999     15030 0     0    
2019/08/27  11:37:00  BASE  7.53816  116  11.3719  121  2.4   75    -1.5  1     0     983.1    NA       0.0000   9999     14830 0     0    
2019/08/27  11:38:00  BASE  7.21476  120  11.3131  115  2.5   75    -1.5  1     0     983.1    NA       0.0000   9999     14800 0     0    
2019/08/27  11:39:00  BASE  6.55032  126  11.3131  115  2.5   75    -1.5  1     0     983.1    NA       0.0000   9999     14500 0     0    
2019/08/27  11:40:00  BASE  7.26768  134  10.4958  116  2.6   74    -1.6  1     0     983.0    NA       0.0000   9999     14240 0     0    
2019/08/27  11:41:01  BASE  7.98504  133  10.4664  109  2.7   74    -1.6  1     0     983.0    NA       0.0000   9999     5250  0     0    
2019/08/27  11:42:01  BASE  7.99092  129  9.64908  109  2.7   73    -1.6  2     0     983.1    NA       0.0000   9999     14170 0     0    
2019/08/27  11:43:01  BASE  8.07324  131  9.07284  130  2.6   73    -1.7  2     0     983.0    NA       0.0000   9999     14170 0     0    
2019/08/27  11:44:01  BASE  8.02032  130  9.07284  130  2.6   73    -1.7  2     0     983.0    NA       0.0000   9999     14930 0     0    
2019/08/27  11:45:01  BASE  7.791    130  9.07284  130  2.5   74    -1.7  2     0     983.0    NA       0.0000   9999     15090 0     0    
2019/08/27  11:46:01  BASE  7.51464  131  9.07284  130  2.5   74    -1.7  2     0     983.0    NA       0.0000   9999     15450 0     0    
2019/08/27  11:47:01  BASE  7.31472  130  9.07284  130  2.4   74    -1.7  3     0     983.0    NA       0.0000   9999     15220 0     0    
2019/08/27  11:48:01  BASE  7.09716  128  9.07284  130  2.3   75    -1.7  3     0     982.9    NA       0.0000   9999     15450 0     0    
2019/08/27  11:49:01  BASE  6.52092  129  9.07284  130  2.2   75    -1.7  3     0     982.8    NA       0.0000   9999     15320 0     0    
2019/08/27  11:50:01  BASE  6.96192  135  9.07284  130  2.1   76    -1.7  3     0     982.7    NA       0.0000   9999     0     0     0    
2019/08/27  11:51:01  BASE  7.60872  134  9.07284  130  2.1   76    -1.7  3     0     982.7    NA       0.0000   9999     0     0     0    
2019/08/27  11:52:01  BASE  7.28532  128  9.07284  130  2.1   77    -1.6  4     0     982.8    NA       0.0000   9999     0     0     0    
2019/08/27  11:53:01  BASE  7.21476  122  8.80236  133  2.1   77    -1.5  4     0     982.8    NA       0.0000   9999     15160 0     0    
2019/08/27  11:54:01  BASE  7.3206   121  8.56128  131  2.2   77    -1.4  4     0     982.8    NA       0.0000   9999     0     0     0    
2019/08/27  11:55:01  BASE  7.34412  123  8.07912  132  2.4   76    -1.3  5     0     982.8    NA       0.0000   9999     15580 0     0    
2019/08/27  11:56:01  BASE  7.07364  126  8.07912  132  2.7   75    -1.3  5     0     982.9    NA       0.0000   9999     15260 0     0    
2019/08/27  11:57:01  BASE  6.02112  123  8.07912  132  2.9   74    -1.3  5     0     982.9    NA       0.0000   9999     15160 0     0    
2019/08/27  11:58:01  BASE  5.0568   123  8.07912  132  3.0   72    -1.5  5     0     982.9    NA       0.0000   9999     15360 0     0    
2019/08/27  11:59:01  BASE  4.6158   129  8.07912  132  3.1   71    -1.7  6     0     982.9    NA       0.0000   9999     15190 0     0    
2019/08/27  12:00:01  BASE  4.1748   128  8.07912  132  3.0   71    -1.8  6     0     982.9    NA       0.0000   9999     15030 0     0    
2019/08/27  12:01:01  BASE  4.10424  128  8.04384  116  2.8   71    -1.9  6     0     982.9    NA       0.0000   9999     15390 0     0    
2019/08/27  12:02:01  BASE  5.2626   134  8.04384  116  2.7   72    -1.9  7     0     982.9    NA       0.0000   9999     14310 0     0    
2019/08/27  12:03:01  BASE  6.6444   134  7.92624  117  2.6   73    -1.8  7     0     982.9    NA       0.0000   9999     14370 0     0    
2019/08/27  12:04:01  BASE  6.47388  135  7.86744  137  2.6   73    -1.8  7     0     982.9    NA       0.0000   9999     14140 0     0    
2019/08/27  12:05:01  BASE  5.45664  137  7.86744  137  2.6   73    -1.7  8     0     982.9    NA       0.0000   9999     14860 0     0    
2019/08/27  12:06:01  BASE  4.89216  134  7.86744  137  2.7   73    -1.7  8     0     982.9    NA       0.0000   9999     14040 0     0    
2019/08/27  12:07:01  BASE  5.00976  130  7.86744  137  2.7   73    -1.6  8     0     982.9    NA       0.0000   9999     14340 0     0    
2019/08/27  12:08:01  BASE  4.9098   129  7.86744  137  2.7   73    -1.7  8     0     982.9    NA       0.0000   9999     14270 15030 0    
2019/08/27  12:09:01  BASE  4.34532  124  7.86744  137  2.6   73    -1.7  9     0     982.9    NA       0.0000   9999     14960 0     0    
2019/08/27  12:10:00  BASE  3.86316  131  7.86744  137  2.5   74    -1.7  9     0     982.9    NA       0.0000   9999     15030 0     0    
2019/08/27  12:11:00  BASE  2.95764  144  7.86744  137  2.5   74    -1.7  10    0     982.9    NA       0.0000   9999     16500 0     0    
2019/08/27  12:12:00  BASE  3.26928  163  7.86744  137  2.4   74    -1.7  10    0     982.9    NA       0.0000   9999     16470 0     0    
2019/08/27  12:13:00  BASE  4.29828  174  6.3504   144  2.4   74    -1.7  10    0     982.9    NA       0.0000   9999     16370 0     0    
2019/08/27  12:14:00  BASE  4.68048  166  5.92704  150  2.4   75    -1.6  10    0     982.8    NA       0.0000   9999     14210 16370 0    
2019/08/27  12:15:00  BASE  4.85688  159  5.65656  125  2.4   75    -1.7  11    0     982.9    NA       0.0000   9999     13390 14340 16410
2019/08/27  12:16:00  BASE  4.74516  155  5.59776  126  2.3   75    -1.6  11    0     982.8    NA       0.0000   9999     12800 0     0    
2019/08/27  12:17:00  BASE  4.74516  154  5.35668  163  2.3   75    -1.6  11    0     982.9    NA       0.0000   9999     12800 0     0    
2019/08/27  12:18:00  BASE  4.45704  155  5.35668  163  2.3   76    -1.6  12    0     982.9    NA       0.0000   9999     12930 0     0    
2019/08/27  12:19:00  BASE  3.72792  159  5.35668  163  2.2   76    -1.6  12    0     982.9    NA       0.0000   9999     12730 0     0    
2019/08/27  12:20:00  BASE  2.42256  166  5.35668  163  2.2   76    -1.6  12    0     982.9    NA       0.0000   9999     12730 0     0    
2019/08/27  12:21:00  BASE  1.3524   149  5.35668  163  2.1   77    -1.6  12    0     982.9    NA       0.0000   9999     12760 0     0    
2019/08/27  12:22:00  BASE  1.50528  132  5.35668  163  2.1   77    -1.5  13    0     982.9    NA       0.0000   9999     12830 0     0    
2019/08/27  12:23:00  BASE  2.44608  140  5.35668  163  2.0   77    -1.5  13    0     982.9    NA       0.0000   9999     12990 0     0    
2019/08/27  12:24:00  BASE  2.64012  150  5.2038   151  2.0   78    -1.4  14    0     982.9    NA       0.0000   9999     13160 0     0    
2019/08/27  12:25:00  BASE  2.04036  155  5.2038   151  2.0   78    -1.4  14    0     982.9    NA       0.0000   9999     13060 0     0    
2019/08/27  12:26:00  BASE  1.5288   170  4.99212  154  2.1   78    -1.4  14    0     982.9    NA       0.0000   9999     8630  13090 0    
2019/08/27  12:27:00  BASE  1.29948  206  4.68636  154  2.1   78    -1.4  15    0     982.9    NA       0.0000   9999     8530  13350 0    
2019/08/27  12:28:00  BASE  1.33476  238  3.75144  157  2.0   78    -1.4  15    0     982.9    NA       0.0000   9999     8790  0     0    
2019/08/27  12:29:00  BASE  1.25244  239  3.41628  152  2.0   78    -1.5  15    0     982.9    NA       0.0000   9999     8500  0     0    
2019/08/27  12:30:00  BASE  1.01136  234  3.41628  152  1.9   78    -1.5  15    0     982.9    NA       0.0000   9999     8600  13160 0    
2019/08/27  12:31:00  BASE  0.45864  237  3.41628  152  1.9   78    -1.5  16    0     983.0    NA       0.0000   9999     8600  0     0    
2019/08/27  12:32:00  BASE  0.05292  223  3.41628  152  1.9   79    -1.4  16    0     983.1    NA       0.0000   9999     8530  0     0    
2019/08/27  12:33:00  BASE  0.0294   145  3.087    123  1.9   79    -1.3  17    0     983.0    NA       0.0000   9999     8500  16210 0    
2019/08/27  12:34:00  BASE  0        186  2.21088  143  2.0   79    -1.2  17    0     982.9    NA       0.0000   9999     16210 0     0    
2019/08/27  12:35:00  BASE  0        261  1.75224  163  2.1   79    -1.2  17    0     982.9    NA       0.0000   9999     8300  16240 0    
2019/08/27  12:36:00  BASE  0        303  1.69344  237  2.2   78    -1.2  17    0     983.1    NA       0.0000   9999     16240 0     0    
2019/08/27  12:37:00  BASE  0.58212  339  2.21088  250  2.2   77    -1.3  18    0     983.1    NA       0.0000   9999     16570 0     0    
2019/08/27  12:38:00  BASE  1.65228  354  2.32848  348  2.1   77    -1.5  18    0     983.1    NA       0.0000   9999     8660  16600 0    
2019/08/27  12:39:00  BASE  1.92276  351  2.32848  348  2.0   77    -1.6  19    0     983.1    NA       0.0000   9999     8760  16440 0    
2019/08/27  12:40:01  BASE  1.68756  351  2.32848  348  1.9   77    -1.6  19    0     983.0    NA       0.0000   9999     8690  16370 0    
2019/08/27  12:41:01  BASE  1.72872  336  2.75184  287  1.9   78    -1.6  19    0     982.9    NA       0.0000   9999     16370 0     0    
2019/08/27  12:42:01  BASE  1.53468  128  2.75184  287  2.0   79    -1.3  20    0     982.9    NA       0.0000   9999     8920  12830 16410
2019/08/27  12:43:01  BASE  0.86436  118  2.75184  287  2.3   78    -1.1  20    0     982.9    NA       0.0000   9999     0     0     0    
2019/08/27  12:44:01  BASE  1.41708  335  2.75184  287  2.4   77    -1.2  20    0     982.9    NA       0.0000   9999     12890 16080 0    
2019/08/27  12:45:01  BASE  1.92276  313  2.75184  287  2.4   76    -1.4  20    0     982.9    NA       0.0000   9999     15950 0     0    
2019/08/27  12:46:01  BASE  1.14072  329  2.75184  287  2.3   75    -1.6  21    0     983.0    NA       0.0000   9999     15950 0     0    
2019/08/27  12:47:01  BASE  0.9114   30   2.75184  287  2.1   75    -1.9  21    0     983.1    NA       0.0000   9999     0     0     0    
2019/08/27  12:48:01  BASE  1.74048  60   3.81024  48   1.8   76    -1.9  22    0     983.0    NA       0.0000   9999     7640  0     0    
2019/08/27  12:49:01  BASE  1.79928  68   3.81024  48   1.8   78    -1.7  22    0     982.9    NA       0.0000   9999     7840  0     0    
2019/08/27  12:50:01  BASE  1.99332  110  4.263    107  1.9   79    -1.3  23    0     982.9    NA       0.0000   9999     8100  0     0    
2019/08/27  12:51:01  BASE  2.79888  111  4.263    107  2.2   78    -1.1  23    0     982.9    NA       0.0000   9999     16340 0     0    
2019/08/27  12:52:01  BASE  2.37552  98   4.263    107  2.6   77    -1.0  24    0     982.9    NA       0.0000   9999     8300  12270 0    
2019/08/27  12:53:01  BASE  1.92864  21   4.263    107  2.7   75    -1.2  24    0     982.9    NA       0.0000   9999     12340 0     0    
2019/08/27  12:54:01  BASE  1.75224  311  4.263    107  2.6   74    -1.5  24    0     982.9    NA       0.0000   9999     8400  0     0    
2019/08/27  12:55:01  BASE  1.6464   282  4.263    107  2.5   74    -1.7  24    0     982.9    NA       0.0000   9999     8630  0     0    
2019/08/27  12:56:01  BASE  1.71108  256  4.263    107  2.2   75    -1.9  25    0     982.8    NA       0.0000   9999     16600 0     0    
2019/08/27  12:57:01  BASE  1.75224  262  4.263    107  2.0   76    -1.9  25    0     982.8    NA       0.0000   9999     16310 0     0    
2019/08/27  12:58:01  BASE  1.4994   276  4.263    107  1.8   77    -1.8  26    0     982.8    NA       0.0000   9999     7870  0     0    
2019/08/27  12:59:01  BASE  0.93492  268  4.263    107  1.8   78    -1.7  26    0     982.9    NA       0.0000   9999     8730  0     0    
2019/08/27  13:00:01  BASE  0.35868  231  3.56916  106  1.7   79    -1.6  27    0     982.8    NA       0.0000   9999     8500  0     0    
2019/08/27  13:01:01  BASE  0.18228  227  3.02232  108  1.6   79    -1.6  27    0     982.8    NA       0.0000   9999     13090 0     0    
2019/08/27  13:02:01  BASE  0.38808  266  2.21088  218  1.5   79    -1.6  28    0     982.8    NA       0.0000   9999     0     0     0    
2019/08/27  13:03:01  BASE  0.81732  282  2.21088  218  1.5   80    -1.6  29    0     982.9    NA       0.0000   9999     7050  0     0    
2019/08/27  13:04:01  BASE  1.18188  283  2.21088  218  1.4   81    -1.6  29    0     982.9    NA       0.0000   9999     13290 0     0    
2019/08/27  13:05:01  BASE  1.65228  280  2.35788  273  1.3   81    -1.6  30    0     982.8    NA       0.0000   9999     7780  0     0    
2019/08/27  13:06:01  BASE  2.11092  272  2.56956  272  1.2   82    -1.5  30    0     982.8    NA       0.0000   9999     13120 0     0    
2019/08/27  13:07:01  BASE  1.95804  261  2.56956  272  1.2   82    -1.5  31    0     982.8    NA       0.0000   9999     12960 0     0    
2019/08/27  13:08:01  BASE  0.95256  243  2.56956  272  1.1   83    -1.5  32    0     982.9    NA       0.0000   9999     12960 0     0    
2019/08/27  13:09:01  BASE  0.0882   249  2.56956  272  1.1   83    -1.5  32    0     982.9    NA       0.0000   9999     12890 0     0    
2019/08/27  13:10:01  BASE  0.0294   244  2.56956  272  1.1   84    -1.4  33    0     982.9    NA       0.0000   9999     6690  13060 0    
2019/08/27  13:11:00  BASE  0.18228  153  2.56956  272  1.2   84    -1.2  34    0     982.9    NA       0.0000   9999     6660  12990 0    
2019/08/27  13:12:01  BASE  1.53468  78   3.78084  73   1.3   84    -1.1  35    0     982.9    NA       0.0000   9999     13090 0     0    
2019/08/27  13:13:01  BASE  3.97488  86   7.2618   77   1.5   85    -0.8  37    0     982.9    NA       0.0000   9999     13290 0     0    
2019/08/27  13:14:01  BASE  6.42684  77   7.92624  69   1.7   85    -0.6  38    0     982.7    NA       0.0000   9999     13480 0     0    
2019/08/27  13:15:00  BASE  7.36764  68   7.92624  69   2.0   84    -0.4  39    0     982.7    NA       0.0000   SQ       9999  13390 0    
2019/08/27  13:16:01  BASE  6.7914   64   7.92624  69   2.2   84    -0.2  40    0     982.7    NA       0.0000   9999     13160 0     0    
2019/08/27  13:17:00  BASE  6.03288  61   7.92624  69   2.5   83    -0.2  41    0     982.7    NA       0.0000   9999     13160 0     0    
2019/08/27  13:18:00  BASE  5.37432  69   7.92624  69   2.6   81    -0.3  42    0     982.7    NA       0.0000   9999     12800 0     0    
2019/08/27  13:19:00  BASE  5.08032  76   7.92624  69   2.8   80    -0.4  42    0     982.8    NA       0.0000   9999     12660 0     0    
2019/08/27  13:20:00  BASE  5.45664  73   7.92624  69   2.9   78    -0.6  43    0     982.9    NA       0.0000   9999     12700 0     0    
2019/08/27  13:21:00  BASE  6.56796  74   8.25552  76   2.9   76    -0.8  44    0     982.9    NA       0.0000   9999     12660 0     0    
2019/08/27  13:22:00  BASE  7.65576  79   8.56128  76   2.9   75    -1.0  46    0     982.8    NA       0.0000   9999     12760 0     0    
2019/08/27  13:23:01  BASE  7.98504  80   8.86116  84   2.9   75    -1.1  47    0     982.8    NA       0.0000   9999     12470 0     0    
2019/08/27  13:24:00  BASE  7.31472  79   8.86116  84   2.9   75    -1.2  48    0     982.9    NA       0.0000   9999     12800 0     0    
2019/08/27  13:25:00  BASE  7.2618   73   8.86116  84   2.8   75    -1.2  49    0     982.9    NA       0.0000   9999     7640  0     0    
2019/08/27  13:26:00  BASE  7.7616   69   9.408    62   2.8   75    -1.2  50    0     982.8    NA       0.0000   9999     7020  12370 0    
2019/08/27  13:27:00  BASE  7.7028   67   9.408    62   2.8   75    -1.2  51    0     982.8    NA       0.0000   9999     7250  0     0    
2019/08/27  13:28:00  BASE  7.59108  68   9.408    62   2.8   75    -1.2  52    0     982.8    NA       0.0000   9999     8400  0     0    
2019/08/27  13:29:00  BASE  6.48564  71   9.408    62   2.9   75    -1.1  53    0     982.8    NA       0.0000   9999     7380  13650 0    
2019/08/27  13:30:00  BASE  5.1156   63   9.408    62   3.0   74    -1.1  53    0     982.8    NA       0.0000   9999     13550 0     0    
2019/08/27  13:31:00  BASE  4.99212  47   9.408    62   3.1   74    -1.2  54    0     982.8    NA       0.0000   9999     13580 0     0    
2019/08/27  13:32:00  BASE  5.83884  48   9.408    62   3.1   73    -1.2  55    0     982.8    NA       0.0000   9999     13480 0     0    
2019/08/27  13:33:00  BASE  7.2324   63   9.408    62   3.2   73    -1.2  56    0     982.8    NA       0.0000   9999     7380  13750 0    
2019/08/27  13:34:00  BASE  8.56716  72   10.4958  74   3.2   72    -1.3  57    0     982.6    NA       0.0000   9999     13880 0     0    
2019/08/27  13:35:00  BASE  9.33156  75   10.4958  74   3.1   72    -1.4  58    0     982.6    NA       0.0000   9999     8070  0     0    
2019/08/27  13:36:00  BASE  9.28452  80   10.4958  74   3.1   73    -1.3  58    0     982.6    NA       0.0000   9999     7940  0     0    
2019/08/27  13:37:00  BASE  8.9376   80   10.4958  74   3.2   72    -1.4  60    0     982.6    NA       0.0000   9999     7450  0     0    
2019/08/27  13:38:00  BASE  8.86116  76   10.4958  74   3.2   72    -1.4  61    0     982.6    NA       0.0000   9999     7910  0     0    
2019/08/27  13:39:00  BASE  9.66084  72   11.2837  69   3.2   72    -1.4  64    0     982.6    NA       0.0000   9999     7680  0     0    
2019/08/27  13:40:00  BASE  9.67848  73   11.2837  69   3.3   72    -1.4  66    0     982.7    NA       0.0000   9999     6920  0     0    
2019/08/27  13:41:01  BASE  8.89644  76   11.2837  69   3.3   71    -1.4  67    0     982.7    NA       0.0000   9999     7190  0     0    
2019/08/27  13:42:00  BASE  8.97876  75   11.4013  58   3.3   71    -1.4  68    0     982.6    NA       0.0000   9999     6890  14830 0    
2019/08/27  13:43:00  BASE  8.56128  75   11.4013  58   3.4   70    -1.4  68    0     982.6    NA       0.0000   9999     7970  0     0    
2019/08/27  13:44:00  BASE  8.70828  78   11.4013  58   3.5   70    -1.5  66    0     982.6    NA       0.0000   9999     7220  0     0    
2019/08/27  13:45:01  BASE  8.42016  81   11.4013  58   3.5   69    -1.6  65    0     982.6    NA       0.0000   9999     7350  0     0    
2019/08/27  13:46:00  BASE  7.44408  78   11.4013  58   3.5   69    -1.6  65    0     982.6    NA       0.0000   9999     7640  0     0    
2019/08/27  13:47:00  BASE  7.52052  75   11.4013  58   3.5   69    -1.6  66    0     982.6    NA       0.0000   9999     7120  0     0    
2019/08/27  13:48:00  BASE  7.34412  79   11.4013  58   3.4   70    -1.6  66    0     982.6    NA       0.0000   9999     7380  0     0    
2019/08/27  13:49:00  BASE  7.15008  81   11.4013  58   3.4   70    -1.6  67    0     982.6    NA       0.0000   9999     6990  0     0    
2019/08/27  13:50:00  BASE  6.84432  82   11.4013  58   3.3   71    -1.5  69    0     982.6    NA       0.0000   9999     6590  0     0    
2019/08/27  13:51:00  BASE  6.95016  82   11.4013  58   3.2   71    -1.5  69    0     982.6    NA       0.0000   9999     6760  0     0    
2019/08/27  13:52:00  BASE  8.06736  77   10.437   77   3.1   72    -1.5  70    0     982.6    NA       0.0000   9999     7320  0     0    
2019/08/27  13:53:00  BASE  8.24964  73   10.437   77   3.0   73    -1.4  71    0     982.6    NA       0.0000   9999     6430  0     0    
2019/08/27  13:54:01  BASE  7.4382   71   9.80196  71   2.9   74    -1.3  73    0     982.7    NA       0.0000   9999     6730  0     0    
2019/08/27  13:55:01  BASE  7.82628  71   9.80196  71   2.8   75    -1.3  75    0     982.5    NA       0.0000   9999     6820  0     0    
2019/08/27  13:56:01  BASE  8.48484  74   10.4076  79   2.7   75    -1.2  77    0     982.6    NA       0.0000   9999     7190  0     0    
2019/08/27  13:57:00  BASE  9.72552  74   11.7071  73   2.6   76    -1.2  78    0     982.5    NA       0.0000   9999     7870  0     0    
2019/08/27  13:58:01  BASE  10.9662  74   11.7071  73   2.6   77    -1.1  80    0     982.5    NA       0.0000   9999     7380  0     0    
2019/08/27  13:59:01  BASE  10.2488  82   11.7071  73   2.5   77    -1.1  83    0     982.4    NA       0.0000   9999     7610  0     0    
2019/08/27  14:00:00  BASE  9.59028  84   11.7071  73   2.5   78    -1.0  85    0     982.4    NA       0.0000   9999     8140  0     0    
2019/08/27  14:01:01  BASE  9.47268  77   11.7071  73   2.4   78    -1.0  88    0     982.4    NA       0.0000   9999     8040  0     0    
2019/08/27  14:02:01  BASE  9.27864  75   11.7071  73   2.4   79    -0.9  91    0     982.4    NA       0.0000   9999     7350  0     0    
2019/08/27  14:03:00  BASE  8.53188  76   11.7071  73   2.4   79    -0.9  91    0     982.4    NA       0.0000   9999     8300  0     0    
2019/08/27  14:04:01  BASE  8.7024   78   11.7071  73   2.4   79    -0.8  91    0     982.4    NA       0.0000   9999     8240  10470 0    
2019/08/27  14:05:00  BASE  9.50796  78   11.7071  73   2.4   80    -0.8  90    0     982.4    NA       0.0000   9999     8300  0     0    
2019/08/27  14:06:01  BASE  8.97876  76   11.7071  73   2.4   80    -0.7  91    0     982.4    NA       0.0000   9999     10500 0     0    
2019/08/27  14:07:00  BASE  8.18496  78   11.3131  74   2.4   80    -0.7  92    0     982.5    NA       0.0000   9999     7810  0     0    
2019/08/27  14:08:00  BASE  8.39076  82   10.8604  78   2.4   80    -0.7  93    0     982.5    NA       0.0000   9999     6270  0     0    
2019/08/27  14:09:00  BASE  8.967    84   10.8604  78   2.4   80    -0.7  96    0     982.4    NA       0.0000   9999     0     0     0    
2019/08/27  14:10:00  BASE  8.87292  84   10.831   78   2.5   80    -0.7  97    0     982.5    NA       0.0000   9999     8270  0     0    
2019/08/27  14:11:01  BASE  9.46092  80   11.3425  68   2.4   80    -0.7  98    0     982.5    NA       0.0000   9999     6000  0     0    
2019/08/27  14:12:00  BASE  10.0724  78   11.8894  93   2.4   80    -0.7  99    0     982.4    NA       0.0000   9999     5840  0     0    
2019/08/27  14:13:00  BASE  9.2904   81   11.8894  93   2.4   80    -0.7  102   0     982.4    NA       0.0000   9999     8270  0     0    
2019/08/27  14:14:00  BASE  8.10852  80   11.8894  93   2.4   80    -0.7  104   0     982.4    NA       0.0000   9999     22510 0     0    
2019/08/27  14:15:00  BASE  7.74396  79   11.8894  93   2.5   80    -0.6  106   0     982.4    NA       0.0000   9999     7940  0     0    
2019/08/27  14:16:00  BASE  8.64948  78   11.8894  93   2.6   79    -0.6  106   0     982.3    NA       0.0000   9999     7550  0     0    
2019/08/27  14:17:00  BASE  9.07284  77   11.8894  93   2.6   79    -0.6  107   0     982.3    NA       0.0000   9999     6820  0     0    
2019/08/27  14:18:00  BASE  8.40252  77   11.8894  93   2.7   79    -0.7  107   0     982.3    NA       0.0000   9999     6820  0     0    
2019/08/27  14:19:00  BASE  8.17908  78   11.8894  93   2.7   78    -0.8  109   0     982.3    NA       0.0000   9999     6860  0     0    
2019/08/27  14:20:00  BASE  8.9376   80   11.8894  93   2.7   78    -0.8  113   0     982.3    NA       0.0000   9999     6960  0     0    
2019/08/27  14:21:00  BASE  8.97876  79   11.8894  93   2.7   77    -0.9  116   0     982.3    NA       0.0000   9999     6730  0     0    
2019/08/27  14:22:00  BASE  8.39664  80   11.2837  78   2.7   77    -0.9  118   0     982.3    NA       0.0000   9999     7580  0     0    
2019/08/27  14:23:00  BASE  8.6436   80   11.2837  78   2.6   77    -1.0  121   0     982.3    NA       0.0000   9999     7510  0     0    
2019/08/27  14:24:00  BASE  8.53188  78   11.2837  78   2.6   77    -1.0  123   0     982.3    NA       0.0000   9999     7580  0     0    
2019/08/27  14:25:00  BASE  7.79688  80   11.2837  78   2.5   78    -1.0  126   0     982.3    NA       0.0000   9999     7580  0     0    
2019/08/27  14:26:00  BASE  7.60872  81   10.5252  76   2.5   78    -1.0  128   0     982.3    NA       0.0000   9999     8530  0     0    
2019/08/27  14:27:00  BASE  8.74356  78   11.6483  81   2.5   79    -0.9  131   0     982.3    NA       0.0000   9999     7680  0     0    
2019/08/27  14:28:00  BASE  10.0136  77   11.6483  81   2.5   79    -0.8  133   0     982.2    NA       0.0000   9999     8530  0     0    
2019/08/27  14:29:00  BASE  9.97836  77   11.6483  81   2.5   79    -0.8  135   0     982.3    NA       0.0000   9999     7580  0     0    
2019/08/27  14:30:00  BASE  9.7902   76   11.7365  80   2.6   78    -0.8  137   0     982.3    NA       0.0000   9999     6460  0     0    
2019/08/27  14:31:00  BASE  10.2194  75   11.9776  79   2.5   78    -0.9  139   0     982.2    NA       0.0000   9999     7350  0     0    
2019/08/27  14:32:00  BASE  10.3606  74   11.9776  79   2.5   78    -0.9  142   0     982.2    NA       0.0000   9999     7450  0     0    
2019/08/27  14:33:00  BASE  10.0666  76   11.9776  79   2.4   78    -0.9  145   0     982.2    NA       0.0000   9999     7550  0     0    
2019/08/27  14:34:00  BASE  10.4311  74   12.2186  69   2.4   79    -0.9  147   0     982.3    NA       0.0000   9999     7710  0     0    
2019/08/27  14:35:00  BASE  11.2308  70   12.3715  65   2.4   79    -0.9  151   0     982.2    NA       0.0000   9999     7780  0     0    
2019/08/27  14:36:00  BASE  11.466   71   12.3715  65   2.4   79    -0.8  154   0     982.2    NA       0.0000   9999     7840  0     0    
2019/08/27  14:37:00  BASE  11.2602  72   12.3715  65   2.5   79    -0.7  157   0     982.2    NA       0.0000   9999     7610  0     0    
2019/08/27  14:38:00  BASE  10.484   74   12.3715  65   2.6   79    -0.7  159   0     982.3    NA       0.0000   9999     9610  0     0    
2019/08/27  14:39:00  BASE  9.98424  75   12.3715  65   2.6   79    -0.7  161   0     982.2    NA       0.0000   9999     9290  0     0    
2019/08/27  14:40:00  BASE  10.0783  73   12.3715  65   2.7   78    -0.7  162   0     982.3    NA       0.0000   9999     7710  0     0    
2019/08/27  14:41:00  BASE  10.1077  71   12.3715  65   2.8   78    -0.7  164   0     982.4    NA       0.0000   9999     7970  0     0    
2019/08/27  14:42:00  BASE  10.5193  70   12.3715  65   2.9   77    -0.8  163   0     982.3    NA       0.0000   9999     8330  22210 0    
2019/08/27  14:43:00  BASE  11.5777  72   13.1006  70   2.9   77    -0.9  161   0     982.2    NA       0.0000   9999     8500  0     0    
2019/08/27  14:44:00  BASE  11.6424  76   13.1006  70   2.9   76    -0.9  163   0     982.2    NA       0.0000   9999     8430  0     0    
2019/08/27  14:45:00  BASE  10.9956  78   13.1006  70   2.9   76    -0.9  161   0     982.2    NA       0.0000   9999     7780  8500  0    
2019/08/27  14:46:00  BASE  10.3018  78   13.1006  70   2.9   76    -1.0  159   0     982.2    NA       0.0000   9999     7940  0     0    
2019/08/27  14:47:00  BASE  9.88428  76   13.1006  70   2.8   76    -1.0  155   0     982.2    NA       0.0000   9999     8070  8730  0    
2019/08/27  14:48:00  BASE  10.1195  73   13.1006  70   2.8   76    -1.0  153   0     982.3    NA       0.0000   9999     9450  0     0    
2019/08/27  14:49:00  BASE  9.54324  77   13.1006  70   2.8   76    -1.0  151   0     982.3    NA       0.0000   9999     8630  0     0    
2019/08/27  14:50:00  BASE  9.76668  82   13.1006  70   2.8   76    -1.0  149   0     982.2    NA       0.0000   9999     7640  0     0    
2019/08/27  14:51:00  BASE  10.8898  78   13.1006  70   2.8   76    -1.0  145   0     982.1    NA       0.0000   9999     7780  0     0    
2019/08/27  14:52:00  BASE  11.3484  76   13.1006  70   2.7   76    -1.0  140   0     982.2    NA       0.0000   9999     8960  0     0    
2019/08/27  14:53:00  BASE  11.3837  75   12.889   77   2.7   77    -1.0  137   0     982.2    NA       0.0000   9999     8270  0     0    
2019/08/27  14:54:00  BASE  10.9074  78   12.889   77   2.6   77    -1.0  136   0     982.2    NA       0.0000   9999     7940  0     0    
2019/08/27  14:55:00  BASE  9.97836  81   12.889   77   2.6   78    -1.0  137   0     982.3    NA       0.0000   9999     6460  0     0    
2019/08/27  14:56:00  BASE  10.1489  82   12.889   77   2.5   78    -1.0  136   0     982.2    NA       0.0000   9999     7970  0     0    
2019/08/27  14:57:00  BASE  10.4899  77   12.889   77   2.4   79    -0.9  138   0     982.2    NA       0.0000   9999     8660  0     0    
2019/08/27  14:58:01  BASE  9.849    73   12.889   77   2.4   79    -0.9  137   0     982.3    NA       0.0000   9999     11350 0     0    
2019/08/27  14:59:01  BASE  9.20808  71   12.889   77   2.4   79    -0.8  136   0     982.3    NA       0.0000   9999     8630  0     0    
2019/08/27  15:00:01  BASE  8.6142   69   12.889   77   2.4   80    -0.7  135   0     982.4    NA       0.0000   9999     8300  0     0    
2019/08/27  15:01:01  BASE  8.03208  70   12.889   77   2.4   80    -0.7  134   0     982.5    NA       0.0000   9999     7150  0     0    
2019/08/27  15:02:01  BASE  7.47348  72   12.6773  84   2.5   80    -0.7  133   0     982.6    NA       0.0000   9999     8010  0     0    
2019/08/27  15:03:01  BASE  7.42644  70   12.6773  84   2.5   79    -0.7  134   0     982.7    NA       0.0000   9999     7280  0     0    
2019/08/27  15:04:01  BASE  7.70868  59   12.6773  84   2.6   79    -0.7  133   0     982.7    NA       0.0000   9999     8070  0     0    
2019/08/27  15:05:01  BASE  7.43232  56   12.6773  84   2.6   79    -0.7  132   0     982.7    NA       0.0000   9999     7550  0     0    
2019/08/27  15:06:01  BASE  7.80276  63   11.0132  70   2.5   79    -0.8  131   0     982.6    NA       0.0000   9999     8500  0     0    
2019/08/27  15:07:01  BASE  9.20808  67   11.86    56   2.5   79    -0.8  130   0     982.6    NA       0.0000   9999     8100  0     0    
2019/08/27  15:08:01  BASE  10.4958  68   12.3127  68   2.4   79    -0.8  130   0     982.4    NA       0.0000   9999     6560  0     0    
2019/08/27  15:09:01  BASE  11.3366  70   12.9184  73   2.4   80    -0.7  130   0     982.3    NA       0.0000   9999     6660  0     0    
2019/08/27  15:10:01  BASE  11.9011  74   15.3644  83   2.3   80    -0.7  130   0     982.3    NA       0.0000   9999     7870  0     0    
2019/08/27  15:11:01  BASE  12.4421  77   15.3644  83   2.3   81    -0.7  129   0     982.2    NA       0.0000   9999     0     0     0    
2019/08/27  15:12:01  BASE  11.9776  77   15.3644  83   2.2   81    -0.7  129   0     982.3    NA       0.0000   9999     0     0     0    
2019/08/27  15:13:01  BASE  11.4248  76   15.3644  83   2.2   81    -0.7  126   0     982.2    NA       0.0000   9999     7380  0     0    
2019/08/27  15:14:01  BASE  11.1896  75   15.3644  83   2.3   81    -0.6  127   0     982.2    NA       0.0000   9999     5910  0     0    
2019/08/27  15:15:01  BASE  11.0662  76   15.3644  83   2.3   82    -0.5  128   0     982.1    NA       0.0000   9999     6400  0     0    
2019/08/27  15:16:01  BASE  12.2069  75   15.3644  83   2.4   82    -0.5  129   0     982.1    NA       0.0000   9999     6500  0     0    
2019/08/27  15:17:01  BASE  13.1947  74   15.3644  83   2.4   81    -0.4  129   0     982.2    NA       0.0000   9999     6300  0     0    
2019/08/27  15:18:01  BASE  12.6949  73   15.3644  83   2.5   81    -0.5  129   0     982.3    NA       0.0000   9999     6200  0     0    
2019/08/27  15:19:01  BASE  12.3715  72   15.3644  83   2.5   81    -0.5  128   0     982.3    NA       0.0000   9999     6330  0     0    
2019/08/27  15:20:01  BASE  12.3833  70   14.4589  78   2.5   80    -0.6  127   0     982.3    NA       0.0000   9999     6460  0     0    
2019/08/27  15:21:01  BASE  12.0658  69   14.0062  76   2.5   80    -0.6  124   0     982.3    NA       0.0000   9999     6370  0     0    
2019/08/27  15:22:01  BASE  11.9246  69   14.0062  76   2.5   80    -0.6  122   0     982.3    NA       0.0000   9999     6630  0     0    
2019/08/27  15:23:01  BASE  12.0834  70   14.0062  76   2.5   80    -0.6  121   0     982.3    NA       0.0000   9999     6400  0     0    
2019/08/27  15:24:01  BASE  11.8776  69   14.0062  76   2.4   80    -0.6  121   0     982.3    NA       0.0000   9999     6300  0     0    
2019/08/27  15:25:01  BASE  11.5836  72   14.0062  76   2.4   80    -0.6  121   0     982.3    NA       0.0000   9999     6100  0     0    
2019/08/27  15:26:01  BASE  11.5013  77   13.9474  74   2.3   81    -0.6  122   0     982.2    NA       0.0000   9999     6070  0     0    
2019/08/27  15:27:01  BASE  11.1014  77   13.9121  69   2.3   81    -0.6  123   0     982.3    NA       0.0000   9999     6040  0     0    
2019/08/27  15:28:01  BASE  10.6193  76   13.9121  69   2.3   82    -0.6  124   0     982.3    NA       0.0000   9999     6140  0     0    
2019/08/27  15:29:01  BASE  10.243   75   13.4887  69   2.3   82    -0.5  125   0     982.3    NA       0.0000   9999     6070  0     0    
2019/08/27  15:30:01  BASE  9.3786   71   13.4887  69   2.3   82    -0.4  125   0     982.5    NA       0.0000   9999     5870  0     0    
2019/08/27  15:31:01  BASE  7.3794   54   13.4887  69   2.4   82    -0.4  126   0     982.8    NA       0.0000   9999     6140  0     0    
2019/08/27  15:32:01  BASE  5.0568   12   13.4887  69   2.4   82    -0.4  127   0     982.9    NA       0.0000   9999     6100  0     0    
2019/08/27  15:33:01  BASE  3.381    332  12.7361  81   2.3   82    -0.5  128   0     982.9    NA       0.0000   9999     5910  0     0    
2019/08/27  15:34:01  BASE  2.65776  291  12.7361  81   2.2   82    -0.7  129   0     982.9    NA       0.0000   9999     6460  0     0    
2019/08/27  15:35:01  BASE  2.95764  270  12.5538  77   2.0   82    -0.8  129   0     982.9    NA       0.0000   9999     6330  0     0    
2019/08/27  15:36:01  BASE  3.3516   276  12.3715  76   1.8   82    -1.0  129   0     982.9    NA       0.0000   9999     6170  0     0    
2019/08/27  15:37:00  BASE  3.41628  295  11.6777  74   1.5   83    -1.1  127   0     982.9    NA       0.0000   9999     2400  0     0    
2019/08/27  15:38:01  BASE  3.21636  307  11.6777  74   1.3   83    -1.2  128   0     983.0    NA       0.0000   9999     2430  0     0    
2019/08/27  15:39:00  BASE  2.48136  311  10.0136  68   1.1   84    -1.3  130   0     983.0    NA       0.0000   9999     2620  0     0    
2019/08/27  15:40:01  BASE  2.80476  297  9.04344  56   1.0   85    -1.3  131   0     982.9    NA       0.0000   9999     2530  0     0    
2019/08/27  15:41:00  BASE  3.45156  297  5.71536  25   0.9   86    -1.2  133   0     982.9    NA       0.0000   9999     2430  0     0    
2019/08/27  15:42:01  BASE  3.83964  300  4.80984  255  0.8   87    -1.1  138   0     982.9    NA       0.0000   9999     2530  3580  0    
2019/08/27  15:43:00  BASE  4.23948  284  5.53308  284  0.9   88    -0.9  143   0     982.9    NA       0.0000   9999     3020  3870  0    
2019/08/27  15:44:01  BASE  4.76868  285  6.2916   302  1.0   89    -0.6  145   0     982.9    NA       0.0000   9999     5610  0     0    
2019/08/27  15:45:00  BASE  4.46292  308  6.2916   302  1.1   90    -0.4  146   0     982.9    NA       0.0000   9999     2760  0     0    
2019/08/27  15:46:01  BASE  2.87532  320  6.2916   302  1.3   90    -0.2  147   0     982.9    NA       0.0000   9999     2490  3310  3710 
2019/08/27  15:47:00  BASE  2.205    325  6.2916   302  1.3   90    -0.1  150   0     982.9    NA       0.0000   9999     2430  0     0    
2019/08/27  15:48:01  BASE  1.8228   335  6.2916   302  1.4   90    -0.1  150   0     982.9    NA       0.0000   9999     21560 0     0    
2019/08/27  15:49:00  BASE  1.8522   338  6.2916   302  1.4   89    -0.1  151   0     982.9    NA       0.0000   9999     2330  0     0    
2019/08/27  15:50:00  BASE  2.44608  307  6.2916   302  1.4   89    -0.2  151   0     983.0    NA       0.0000   9999     2620  0     0    
2019/08/27  15:51:00  BASE  2.09916  258  6.2916   302  1.3   89    -0.2  150   0     983.1    NA       0.0000   9999     2620  0     0    
2019/08/27  15:52:00  BASE  1.13484  236  6.2916   302  1.3   90    -0.2  151   0     983.0    NA       0.0000   9999     6040  0     0    
2019/08/27  15:53:00  BASE  0.85848  254  6.2916   302  1.3   90    -0.2  154   0     983.0    NA       0.0000   9999     6400  0     0    
2019/08/27  15:54:00  BASE  1.46412  284  4.47468  307  1.3   90    -0.1  155   0     983.0    NA       0.0000   9999     6270  0     0    
2019/08/27  15:55:00  BASE  1.75224  279  3.86904  280  1.3   91    -0.0  155   0     983.0    NA       0.0000   9999     6400  0     0    
2019/08/27  15:56:01  BASE  1.5582   264  3.86904  280  1.4   91    0.1   153   0     982.9    NA       0.0000   9999     6460  0     0    
2019/08/27  15:57:00  BASE  1.12896  250  3.86904  280  1.6   91    0.2   155   0     982.9    NA       0.0000   9999     6890  0     0    
2019/08/27  15:58:00  BASE  0.80556  221  3.86904  280  1.7   90    0.2   155   0     982.9    NA       0.0000   9999     6170  0     0    
2019/08/27  15:59:00  BASE  0.68796  199  3.86904  280  1.8   89    0.2   156   0     982.9    NA       0.0000   9999     6230  0     0    
2019/08/27  16:00:00  BASE  1.31124  220  2.78124  276  1.8   88    0.1   157   0     982.9    NA       0.0000   9999     6070  0     0    
2019/08/27  16:01:00  BASE  2.55192  241  3.35748  246  1.7   88    -0.1  158   0     982.8    NA       0.0000   9999     6500  0     0    
2019/08/27  16:02:01  BASE  2.92824  246  3.35748  246  1.6   88    -0.2  159   0     982.9    NA       0.0000   9999     6430  0     0    
2019/08/27  16:03:00  BASE  2.499    250  3.35748  246  1.5   88    -0.3  158   0     982.9    NA       0.0000   9999     6590  0     0    
2019/08/27  16:04:00  BASE  1.617    271  3.35748  246  1.5   88    -0.3  154   0     982.9    NA       0.0000   9999     2430  0     0    
2019/08/27  16:05:01  BASE  0.94668  285  3.35748  246  1.4   88    -0.3  154   0     982.9    NA       0.0000   9999     2330  0     0    
2019/08/27  16:06:01  BASE  0.7056   244  3.35748  246  1.4   89    -0.3  157   0     982.9    NA       0.0000   9999     2300  0     0    
2019/08/27  16:07:01  BASE  1.12308  218  3.35748  246  1.4   89    -0.3  160   0     982.9    NA       0.0000   9999     2330  22800 23560
2019/08/27  16:08:01  BASE  1.66992  236  3.35748  246  1.4   89    -0.3  161   0     982.9    NA       0.0000   9999     6370  0     0    
2019/08/27  16:09:01  BASE  1.59936  230  3.35748  246  1.3   89    -0.3  162   0     982.9    NA       0.0000   9999     22900 0     0    
2019/08/27  16:10:01  BASE  1.12896  223  3.35748  246  1.3   89    -0.3  162   0     982.8    NA       0.0000   9999     7120  0     0    
2019/08/27  16:11:01  BASE  1.22304  233  3.234    242  1.3   89    -0.3  160   0     982.8    NA       0.0000   9999     6330  0     0    
2019/08/27  16:12:01  BASE  1.68168  174  2.78124  120  1.3   89    -0.3  159   0     982.8    NA       0.0000   9999     0     0     0    
2019/08/27  16:13:01  BASE  2.14032  110  4.99212  92   1.4   89    -0.2  156   0     982.8    NA       0.0000   9999     6920  0     0    
2019/08/27  16:14:01  BASE  3.51036  99   5.89764  56   1.5   89    -0.1  151   0     982.8    NA       0.0000   9999     2230  0     0    
2019/08/27  16:15:01  BASE  3.75732  75   5.89764  56   1.6   89    -0.0  147   0     982.7    NA       0.0000   9999     2130  0     0    
2019/08/27  16:16:01  BASE  3.13404  71   5.89764  56   1.7   89    -0.0  144   0     982.9    NA       0.0000   9999     2200  0     0    
2019/08/27  16:17:01  BASE  2.87532  84   5.89764  56   1.7   88    0.0   142   0     982.9    NA       0.0000   9999     2330  0     0    
2019/08/27  16:18:01  BASE  1.84632  94   5.89764  56   1.8   88    0.0   141   0     982.8    NA       0.0000   9999     2260  0     0    
2019/08/27  16:19:01  BASE  1.02312  158  5.89764  56   1.8   88    0.0   139   0     982.8    NA       0.0000   9999     2260  0     0    
2019/08/27  16:20:01  BASE  1.35828  225  5.89764  56   1.8   88    -0.1  138   0     982.8    NA       0.0000   9999     2200  0     0    
2019/08/27  16:21:01  BASE  1.84632  250  5.89764  56   1.8   87    -0.1  138   0     982.8    NA       0.0000   9999     2260  2990  0    
2019/08/27  16:22:01  BASE  1.64052  248  5.89764  56   1.8   87    -0.2  138   0     982.7    NA       0.0000   9999     2760  0     0    
2019/08/27  16:23:01  BASE  1.54056  254  5.89764  56   1.8   86    -0.2  135   0     982.8    NA       0.0000   9999     2760  0     0    
2019/08/27  16:24:01  BASE  1.79928  320  3.83964  71   1.8   86    -0.3  131   0     982.8    NA       0.0000   9999     2360  0     0    
2019/08/27  16:25:01  BASE  1.66404  338  3.83964  71   1.9   85    -0.3  130   0     982.7    NA       0.0000   9999     2200  0     0    
2019/08/27  16:26:01  BASE  2.4402   339  4.68636  352  2.0   85    -0.3  129   0     982.7    NA       0.0000   9999     2330  0     0    
2019/08/27  16:27:01  BASE  2.61072  14   4.68636  352  2.0   85    -0.3  124   0     982.8    NA       0.0000   9999     2300  0     0    
2019/08/27  16:28:01  BASE  1.3524   336  4.68636  352  2.1   84    -0.3  123   0     982.8    NA       0.0000   9999     2460  0     0    
2019/08/27  16:29:01  BASE  1.91688  304  4.68636  352  2.1   84    -0.4  122   0     982.7    NA       0.0000   9999     2360  0     0    
2019/08/27  16:30:01  BASE  2.64012  307  4.68636  352  2.1   84    -0.4  123   0     982.7    NA       0.0000   9999     2490  0     0    
2019/08/27  16:31:01  BASE  2.16972  318  4.68636  352  2.1   83    -0.4  120   0     982.7    NA       0.0000   9999     2490  0     0    
2019/08/27  16:32:01  BASE  1.65228  324  4.68636  352  2.1   83    -0.4  119   0     982.7    NA       0.0000   9999     2330  0     0    
2019/08/27  16:33:01  BASE  1.27008  336  4.68636  352  2.2   83    -0.5  118   0     982.7    NA       0.0000   9999     2260  19130 0    
2019/08/27  16:34:01  BASE  1.07016  331  4.68636  352  2.2   83    -0.5  119   0     982.7    NA       0.0000   9999     2330  0     0    
2019/08/27  16:35:00  BASE  1.02312  304  4.68636  352  2.2   82    -0.5  120   0     982.6    NA       0.0000   9999     2460  0     0    
2019/08/27  16:36:01  BASE  1.2936   306  4.2336   43   2.2   82    -0.5  122   0     982.6    NA       0.0000   9999     3120  3710  5220 
2019/08/27  16:37:00  BASE  1.31712  295  3.1752   309  2.2   82    -0.6  125   0     982.6    NA       0.0000   9999     2590  3450  0    
2019/08/27  16:38:01  BASE  1.06428  267  3.1752   309  2.2   81    -0.6  126   0     982.5    NA       0.0000   9999     2490  0     0    
2019/08/27  16:39:00  BASE  1.2642   261  2.78124  328  2.2   81    -0.7  127   0     982.4    NA       0.0000   9999     2660  0     0    
2019/08/27  16:40:00  BASE  1.21716  268  2.78124  328  2.2   81    -0.7  129   0     982.4    NA       0.0000   9999     2620  0     0    
2019/08/27  16:41:00  BASE  0.85848  271  2.78124  328  2.2   81    -0.7  131   0     982.4    NA       0.0000   9999     2560  0     0    
2019/08/27  16:42:01  BASE  0.72324  273  2.78124  328  2.2   81    -0.7  129   0     982.4    NA       0.0000   9999     2660  0     0    
2019/08/27  16:43:00  BASE  0.75264  283  2.78124  328  2.2   81    -0.7  128   0     982.4    NA       0.0000   9999     2620  0     0    
2019/08/27  16:44:00  BASE  1.2054   353  2.78124  328  2.2   81    -0.7  129   0     982.4    NA       0.0000   9999     2530  0     0    
2019/08/27  16:45:00  BASE  1.16424  32   2.78124  328  2.3   81    -0.7  132   0     982.4    NA       0.0000   9999     2400  0     0    
2019/08/27  16:46:01  BASE  0.7056   26   2.1462   44   2.3   80    -0.7  133   0     982.4    NA       0.0000   9999     2460  0     0    
2019/08/27  16:47:00  BASE  0.95844  21   2.1462   44   2.4   80    -0.8  130   0     982.4    NA       0.0000   9999     2720  0     0    
2019/08/27  16:48:01  BASE  1.84044  4    3.1164   344  2.4   79    -0.8  130   0     982.4    NA       0.0000   9999     2820  0     0    
2019/08/27  16:49:00  BASE  2.48136  357  3.1164   344  2.4   79    -0.9  131   0     982.4    NA       0.0000   9999     2790  0     0    
2019/08/27  16:50:00  BASE  2.56368  8    3.1164   344  2.4   79    -0.9  133   0     982.4    NA       0.0000   9999     2720  0     0    
2019/08/27  16:51:00  BASE  2.65188  11   3.1164   344  2.4   79    -0.9  135   0     982.4    NA       0.0000   9999     2790  0     0    
2019/08/27  16:52:01  BASE  2.6754   4    3.234    3    2.3   79    -0.9  136   0     982.4    NA       0.0000   9999     2760  0     0    
2019/08/27  16:53:00  BASE  2.91648  3    3.38688  12   2.3   79    -1.0  136   0     982.4    NA       0.0000   9999     2690  0     0    
2019/08/27  16:54:00  BASE  3.1164   8    3.38688  12   2.2   80    -0.9  137   0     982.4    NA       0.0000   9999     2660  0     0    
2019/08/27  16:55:00  BASE  3.01056  5    3.51036  9    2.2   80    -0.9  136   0     982.4    NA       0.0000   9999     2790  0     0    
2019/08/27  16:56:00  BASE  2.89884  10   3.62796  10   2.1   80    -0.9  135   0     982.4    NA       0.0000   9999     2760  0     0    
2019/08/27  16:57:00  BASE  2.205    20   3.62796  10   2.1   81    -0.9  134   0     982.4    NA       0.0000   9999     2690  0     0    
2019/08/27  16:58:00  BASE  1.33476  5    3.62796  10   2.1   82    -0.8  136   0     982.4    NA       0.0000   9999     2720  0     0    
2019/08/27  16:59:00  BASE  1.72872  321  3.75144  306  2.0   82    -0.7  139   0     982.4    NA       0.0000   9999     2590  0     0    
2019/08/27  17:00:00  BASE  2.21676  296  3.75144  306  2.1   82    -0.7  140   0     982.4    NA       0.0000   9999     2720  0     0    
2019/08/27  17:01:00  BASE  2.058    291  3.75144  306  2.1   82    -0.7  140   0     982.4    NA       0.0000   9999     6460  0     0    
2019/08/27  17:02:00  BASE  1.63464  269  3.75144  306  2.1   81    -0.8  140   0     982.4    NA       0.0000   9999     6270  0     0    
2019/08/27  17:03:00  BASE  1.41708  223  3.75144  306  2.1   81    -0.8  140   0     982.4    NA       0.0000   9999     3080  0     0    
2019/08/27  17:04:00  BASE  2.24028  156  3.75144  306  2.1   80    -0.9  140   0     982.4    NA       0.0000   9999     3350  0     0    
2019/08/27  17:05:00  BASE  2.22264  128  3.75144  306  2.2   80    -0.9  137   0     982.4    NA       0.0000   9999     6660  0     0    
2019/08/27  17:06:00  BASE  1.764    144  3.75144  306  2.2   80    -0.9  135   0     982.3    NA       0.0000   9999     6530  0     0    
2019/08/27  17:07:00  BASE  1.66404  155  3.75144  306  2.3   80    -0.8  133   0     982.3    NA       0.0000   9999     7120  0     0    
2019/08/27  17:08:00  BASE  0.95256  181  3.75144  306  2.3   79    -0.9  132   0     982.3    NA       0.0000   9999     6590  0     0    
2019/08/27  17:09:00  BASE  0.71148  210  3.35748  119  2.4   79    -0.9  130   0     982.3    NA       0.0000   9999     6140  0     0    
2019/08/27  17:10:00  BASE  1.1466   203  3.35748  119  2.4   78    -1.0  130   0     982.3    NA       0.0000   9999     6500  0     0    
2019/08/27  17:11:00  BASE  1.19364  201  3.35748  119  2.4   78    -1.0  130   0     982.3    NA       0.0000   9999     6330  0     0    
2019/08/27  17:12:01  BASE  0.72912  254  3.35748  119  2.4   78    -1.1  130   0     982.4    NA       0.0000   9999     6960  0     0    
2019/08/27  17:13:00  BASE  0.46452  1    3.35748  119  2.3   78    -1.1  131   0     982.4    NA       0.0000   9999     6430  0     0    
2019/08/27  17:14:00  BASE  0.7938   18   2.32848  138  2.2   79    -1.1  132   0     982.4    NA       0.0000   9999     6790  0     0    
2019/08/27  17:15:00  BASE  1.09956  69   2.56956  104  2.2   79    -1.0  133   0     982.4    NA       0.0000   9999     6590  0     0    
2019/08/27  17:16:01  BASE  1.13484  36   2.72244  26   2.2   80    -1.0  133   0     982.4    NA       0.0000   9999     6630  0     0    
2019/08/27  17:17:00  BASE  1.80516  18   2.99292  33   2.2   80    -1.0  131   0     982.4    NA       0.0000   9999     6660  0     0    
2019/08/27  17:18:00  BASE  2.59308  43   3.59856  48   2.2   80    -1.0  130   0     982.3    NA       0.0000   9999     6200  0     0    
2019/08/27  17:19:01  BASE  2.65188  50   3.59856  48   2.1   80    -1.0  129   0     982.4    NA       0.0000   9999     0     0     0    
2019/08/27  17:20:01  BASE  2.71068  61   4.263    75   2.1   80    -1.0  127   0     982.4    NA       0.0000   9999     0     0     0    
2019/08/27  17:21:01  BASE  3.18696  85   4.263    75   2.1   80    -1.0  124   0     982.4    NA       0.0000   9999     0     0     0    
2019/08/27  17:22:01  BASE  3.2928   109  4.32768  93   2.1   80    -1.0  121   0     982.4    NA       0.0000   9999     6590  0     0    
2019/08/27  17:23:01  BASE  4.46292  106  7.59108  109  2.1   80    -1.0  118   0     982.4    NA       0.0000   9999     6730  0     0    
2019/08/27  17:24:01  BASE  5.98584  94   7.59108  109  2.1   80    -1.0  115   0     982.4    NA       0.0000   9999     7190  0     0    
2019/08/27  17:25:01  BASE  5.82708  82   7.59108  109  2.2   80    -1.0  113   0     982.5    NA       0.0000   9999     6590  0     0    
2019/08/27  17:26:01  BASE  6.4386   62   10.043   33   2.2   79    -1.0  111   0     982.4    NA       0.0000   9999     7350  0     0    
2019/08/27  17:27:00  BASE  7.64988  48   10.043   33   2.2   79    -1.1  109   0     982.4    NA       0.0000   9999     7220  0     0    
2019/08/27  17:28:01  BASE  7.93212  47   10.043   33   2.2   78    -1.2  107   0     982.3    NA       0.0000   9999     6230  0     0    
2019/08/27  17:29:00  BASE  7.92624  45   10.043   33   2.2   77    -1.3  106   0     982.3    NA       0.0000   9999     6270  0     0    
2019/08/27  17:30:00  BASE  7.57932  43   10.043   33   2.2   76    -1.5  104   0     982.3    NA       0.0000   9999     5970  0     0    
2019/08/27  17:31:00  BASE  6.7326   42   10.043   33   2.2   76    -1.6  103   0     982.3    NA       0.0000   9999     6070  0     0    
2019/08/27  17:32:01  BASE  7.35588  40   10.043   33   2.2   75    -1.7  102   0     982.2    NA       0.0000   9999     6330  0     0    
2019/08/27  17:33:00  BASE  9.19632  40   11.3425  43   2.1   76    -1.7  101   0     982.1    NA       0.0000   9999     6270  0     0    
2019/08/27  17:34:00  BASE  10.0666  39   11.466   45   2.0   76    -1.7  99    0     982.1    NA       0.0000   9999     6300  0     0    
2019/08/27  17:35:01  BASE  10.6604  40   12.7655  49   2.0   76    -1.7  98    0     982.0    NA       0.0000   9999     6230  0     0    
2019/08/27  17:36:01  BASE  12.1363  46   14.1884  50   1.9   77    -1.7  96    0     981.9    NA       0.0000   9999     6140  0     0    
2019/08/27  17:37:00  BASE  12.1892  48   14.1884  50   1.9   77    -1.7  94    0     981.9    NA       0.0000   9999     6760  0     0    
2019/08/27  17:38:01  BASE  11.0368  43   14.1884  50   1.9   77    -1.7  92    0     981.8    NA       0.0000   9999     6270  0     0    
2019/08/27  17:39:00  BASE  11.0956  39   14.1884  50   1.9   77    -1.7  91    0     981.7    NA       0.0000   9999     6100  0     0    
2019/08/27  17:40:00  BASE  13.1477  41   17.0932  37   1.8   77    -1.7  89    0     981.5    NA       0.0000   9999     5250  0     0    
2019/08/27  17:41:01  BASE  14.6941  43   17.0932  37   1.8   78    -1.7  88    0     981.4    NA       0.0000   9999     5540  0     0    
2019/08/27  17:42:01  BASE  14.3119  41   17.0932  37   1.8   78    -1.7  87    0     981.4    NA       0.0000   9999     0     0     0    
2019/08/27  17:43:00  BASE  14.8176  44   17.0932  37   1.8   78    -1.7  87    0     981.4    NA       0.0000   9999     0     0     0    
2019/08/27  17:44:01  BASE  16.4052  49   19.0277  49   1.8   77    -1.7  88    0     981.3    NA       0.0000   9999     0     0     0    
2019/08/27  17:45:00  BASE  16.5228  49   19.0277  49   1.9   77    -1.7  88    0     981.3    NA       0.0000   9999     0     0     0    
2019/08/27  17:46:00  BASE  15.2351  50   19.0277  49   1.9   77    -1.8  89    0     981.3    NA       0.0000   9999     0     0     0    
2019/08/27  17:47:00  BASE  14.5824  52   19.0277  49   1.9   76    -1.8  90    0     981.3    NA       0.0000   9999     0     0     0    
2019/08/27  17:48:00  BASE  14.1826  52   19.0277  49   1.9   76    -1.8  91    0     981.4    NA       0.0000   9999     0     0     0    
2019/08/27  17:49:00  BASE  14.4472  55   19.0277  49   1.9   76    -1.8  90    0     981.3    NA       0.0000   9999     0     0     0    
2019/08/27  17:50:00  BASE  15.0822  56   19.0277  49   1.9   77    -1.8  90    0     981.3    NA       0.0000   9999     0     0     0    
2019/08/27  17:51:00  BASE  15.188   52   19.0277  49   1.9   77    -1.8  90    0     981.2    NA       0.0000   9999     0     0     0    
2019/08/27  17:52:00  BASE  15.6349  50   19.0277  49   1.9   77    -1.8  89    0     981.2    NA       0.0000   9999     0     0     0    
2019/08/27  17:53:00  BASE  16.464   50   19.0277  49   1.9   77    -1.8  89    0     981.2    NA       0.0000   9999     0     0     0    
2019/08/27  17:54:00  BASE  15.8995  50   18.7572  52   1.9   76    -1.8  88    0     981.2    NA       0.0000   9999     0     0     0    
2019/08/27  17:55:00  BASE  14.7941  51   18.7572  52   2.0   76    -1.8  87    0     981.3    NA       0.0000   9999     0     0     0    
2019/08/27  17:56:00  BASE  14.5236  56   17.7282  46   2.1   75    -1.8  86    0     981.4    NA       0.0000   9999     0     0     0    
2019/08/27  17:57:00  BASE  14.5883  57   17.7282  46   2.2   75    -1.9  85    0     981.5    NA       0.0000   9999     0     0     0    
2019/08/27  17:58:00  BASE  14.4119  57   17.7282  46   2.2   74    -1.9  83    0     981.6    NA       0.0000   9999     0     0     0    
2019/08/27  17:59:00  BASE  13.2712  60   17.7282  46   2.3   74    -2.0  81    0     981.7    NA       0.0000   9999     0     0     0    
2019/08/27  18:00:00  BASE  12.2716  58   17.7282  46   2.3   73    -2.0  80    0     981.7    NA       0.0000   9999     0     0     0    
2019/08/27  18:01:00  BASE  12.1951  56   17.7282  46   2.3   73    -2.1  79    0     981.8    NA       0.0000   9999     0     0     0    
2019/08/27  18:02:00  BASE  12.5538  56   17.6635  50   2.2   73    -2.1  78    0     981.8    NA       0.0000   9999     0     0     0    
2019/08/27  18:03:00  BASE  12.3068  54   16.7286  49   2.2   73    -2.2  77    0     981.9    NA       0.0000   9999     0     0     0    
2019/08/27  18:04:00  BASE  11.1896  55   16.2758  57   2.2   73    -2.2  75    0     982.0    NA       0.0000   9999     0     0     0    
2019/08/27  18:05:00  BASE  10.1665  58   16.2758  57   2.2   73    -2.2  73    0     982.1    NA       0.0000   9999     0     0     0    
2019/08/27  18:06:00  BASE  9.34332  63   16.2758  57   2.3   72    -2.2  71    0     982.3    NA       0.0000   9999     9290  0     0    
2019/08/27  18:07:00  BASE  8.48484  69   16.2758  57   2.4   72    -2.2  69    0     982.5    NA       0.0000   9999     6300  8920  0    
2019/08/27  18:08:00  BASE  7.18536  66   14.6118  53   2.4   71    -2.2  68    0     982.5    NA       0.0000   9999     8960  0     0    
2019/08/27  18:09:00  BASE  7.03836  62   14.306   63   2.5   70    -2.3  67    0     982.3    NA       0.0000   9999     5580  9020  0    
2019/08/27  18:10:00  BASE  9.261    61   14.306   63   2.5   70    -2.4  65    0     982.2    NA       0.0000   9999     5640  0     0    
2019/08/27  18:11:00  BASE  11.5248  58   14.306   63   2.6   69    -2.5  65    0     982.1    NA       0.0000   9999     5580  0     0    
2019/08/27  18:12:00  BASE  11.319   59   13.5828  57   2.6   69    -2.5  64    0     982.1    NA       0.0000   9999     5510  0     0    
2019/08/27  18:13:00  BASE  8.79648  62   13.5828  57   2.6   68    -2.6  64    0     982.2    NA       0.0000   9999     5410  0     0    
2019/08/27  18:14:00  BASE  6.93252  61   13.5828  57   2.6   68    -2.7  63    0     982.1    NA       0.0000   9999     5320  6000  0    
2019/08/27  18:15:00  BASE  6.45036  54   13.5828  57   2.6   68    -2.7  62    0     982.1    NA       0.0000   9999     5610  0     0    
2019/08/27  18:16:00  BASE  5.9682   50   13.5828  57   2.6   68    -2.8  62    0     982.0    NA       0.0000   9999     5940  0     0    
2019/08/27  18:17:00  BASE  6.45036  51   13.5828  57   2.4   69    -2.7  62    0     981.9    NA       0.0000   9999     6070  7150  7710 
2019/08/27  18:18:00  BASE  8.28492  70   13.5828  57   2.3   70    -2.7  61    0     981.7    NA       0.0000   9999     7250  0     0    
2019/08/27  18:19:00  BASE  8.45544  120  13.5828  57   2.2   71    -2.6  61    0     981.9    NA       0.0000   9999     7250  0     0    
2019/08/27  18:20:00  BASE  6.82668  156  12.8243  59   2.0   72    -2.5  62    0     982.0    NA       0.0000   9999     7350  0     0    
2019/08/27  18:21:00  BASE  5.39784  163  11.9776  55   1.9   74    -2.3  62    0     982.1    NA       0.0000   9999     7420  0     0    
2019/08/27  18:22:00  BASE  4.66872  160  10.831   68   1.8   75    -2.2  63    0     982.1    NA       0.0000   9999     7510  0     0    
2019/08/27  18:23:00  BASE  4.18068  159  10.831   68   1.7   76    -2.1  63    0     982.1    NA       0.0000   9999     7280  0     0    
2019/08/27  18:24:00  BASE  3.3516   162  10.831   68   1.6   78    -1.9  63    0     982.1    NA       0.0000   9999     7280  0     0    
2019/08/27  18:25:00  BASE  2.77536  168  10.831   68   1.6   79    -1.7  64    0     982.1    NA       0.0000   9999     6960  9580  0    
2019/08/27  18:26:00  BASE  2.69892  163  10.831   68   1.6   79    -1.7  64    0     982.1    NA       0.0000   9999     7220  0     0    
2019/08/27  18:27:00  BASE  2.74596  154  10.831   68   1.5   79    -1.6  64    0     982.1    NA       0.0000   9999     6820  7350  0    
2019/08/27  18:28:00  BASE  2.42844  158  8.3202   141  1.5   80    -1.6  64    0     982.1    NA       0.0000   9999     5050  6730  0    
2019/08/27  18:29:00  BASE  1.85808  168  6.74436  165  1.5   80    -1.6  65    0     982.1    NA       0.0000   9999     5180  6590  0    
2019/08/27  18:30:00  BASE  2.36376  150  5.35668  168  1.5   80    -1.6  66    0     982.0    NA       0.0000   9999     6530  0     0    
2019/08/27  18:31:00  BASE  3.78084  124  5.92704  164  1.5   80    -1.5  66    0     981.9    NA       0.0000   9999     6590  7090  0    
2019/08/27  18:32:01  BASE  4.81572  135  5.92704  164  1.5   80    -1.5  66    0     981.9    NA       0.0000   9999     7120  0     0    
2019/08/27  18:33:00  BASE  5.53896  145  6.16812  140  1.6   80    -1.5  67    0     982.0    NA       0.0000   9999     10560 0     0    
2019/08/27  18:34:01  BASE  6.02112  140  6.65616  157  1.6   80    -1.5  66    0     982.0    NA       0.0000   9999     6820  10700 0    
2019/08/27  18:35:00  BASE  6.12108  134  7.3206   128  1.6   80    -1.5  66    0     982.1    NA       0.0000   9999     6200  10700 0    
2019/08/27  18:36:01  BASE  4.9392   125  7.3206   128  1.7   80    -1.5  66    0     982.2    NA       0.0000   9999     10560 21720 0    
2019/08/27  18:37:00  BASE  3.89256  98   7.3206   128  1.7   79    -1.5  66    0     982.3    NA       0.0000   9999     10660 0     0    
2019/08/27  18:38:01  BASE  3.3516   69   7.3206   128  1.8   79    -1.5  66    0     982.2    NA       0.0000   9999     0     0     0    
2019/08/27  18:39:00  BASE  2.75772  74   7.3206   128  1.8   79    -1.5  67    0     982.2    NA       0.0000   9999     5450  0     0    
2019/08/27  18:40:00  BASE  2.94588  94   7.3206   128  1.8   78    -1.6  67    0     982.2    NA       0.0000   9999     8990  0     0    
2019/08/27  18:41:00  BASE  2.85768  114  7.3206   128  1.8   78    -1.7  67    0     982.2    NA       0.0000   9999     9550  0     0    
2019/08/27  18:42:00  BASE  2.42256  146  7.3206   128  1.8   78    -1.7  67    0     982.2    NA       0.0000   9999     10430 0     0    
2019/08/27  18:43:00  BASE  2.71656  169  7.3206   128  1.8   78    -1.7  67    0     982.1    NA       0.0000   9999     8430  0     0    
2019/08/27  18:44:00  BASE  3.09288  180  7.3206   128  1.7   78    -1.7  67    0     982.1    NA       0.0000   9999     8460  10500 0    
2019/08/27  18:45:00  BASE  3.087    182  4.47468  138  1.7   78    -1.7  66    0     982.1    NA       0.0000   9999     8500  0     0    
2019/08/27  18:46:00  BASE  2.71656  166  4.263    84   1.7   78    -1.7  65    0     982.2    NA       0.0000   9999     8400  10760 0    
2019/08/27  18:47:00  BASE  2.19324  142  3.81024  72   1.7   78    -1.7  64    0     982.2    NA       0.0000   9999     8300  10340 0    
2019/08/27  18:48:00  BASE  1.72872  126  3.62796  83   1.6   79    -1.7  63    0     982.2    NA       0.0000   9999     8270  10560 0    
2019/08/27  18:49:00  BASE  1.25832  138  3.62796  83   1.6   79    -1.7  63    0     982.3    NA       0.0000   9999     8140  10600 0    
2019/08/27  18:50:00  BASE  1.19952  167  3.41628  179  1.5   79    -1.7  62    0     982.3    NA       0.0000   9999     8100  10560 0    
2019/08/27  18:51:00  BASE  1.4994   183  3.41628  179  1.4   80    -1.6  62    0     982.3    NA       0.0000   9999     8100  10430 0    
2019/08/27  18:52:00  BASE  1.4994   179  3.41628  179  1.4   80    -1.6  61    0     982.3    NA       0.0000   9999     8140  10370 0    
2019/08/27  18:53:00  BASE  1.36416  168  3.41628  179  1.4   81    -1.6  60    0     982.3    NA       0.0000   9999     5540  8100  0    
2019/08/27  18:54:00  BASE  1.25832  168  3.35748  184  1.3   81    -1.6  60    0     982.3    NA       0.0000   9999     5540  8040  10790
2019/08/27  18:55:00  BASE  1.25244  183  2.78124  157  1.3   81    -1.6  59    0     982.3    NA       0.0000   9999     5640  7940  0    
2019/08/27  18:56:00  BASE  1.4406   193  2.29908  126  1.2   81    -1.6  58    0     982.3    NA       0.0000   9999     5480  7970  0    
2019/08/27  18:57:00  BASE  1.5876   194  1.87572  188  1.1   82    -1.6  57    0     982.2    NA       0.0000   9999     5480  8070  0    
2019/08/27  18:58:00  BASE  1.45236  194  1.87572  188  1.1   82    -1.6  57    0     982.2    NA       0.0000   9999     5250  8040  0    
2019/08/27  18:59:00  BASE  0.91728  189  1.87572  188  1.1   83    -1.5  56    0     982.3    NA       0.0000   9999     5410  0     0    
2019/08/27  19:00:00  BASE  0.37632  185  1.87572  188  1.1   83    -1.5  56    0     982.3    NA       0.0000   9999     5480  8240  0    
2019/08/27  19:01:00  BASE  0.17052  167  1.81692  193  1.1   83    -1.4  56    0     982.3    NA       0.0000   9999     5380  8270  0    
2019/08/27  19:02:00  BASE  0.08232  147  1.81692  193  1.2   83    -1.3  55    0     982.3    NA       0.0000   9999     5350  8270  0    
2019/08/27  19:03:00  BASE  0        144  1.81692  193  1.2   84    -1.3  54    0     982.3    NA       0.0000   9999     5410  8300  0    
2019/08/27  19:04:00  BASE  0        140  1.81692  193  1.2   84    -1.3  53    0     982.3    NA       0.0000   9999     5120  0     0    
2019/08/27  19:05:00  BASE  0        139  1.81692  193  1.2   84    -1.2  53    0     982.2    NA       0.0000   9999     5410  8170  0    
2019/08/27  19:06:00  BASE  0.12936  168  1.81692  193  1.3   84    -1.2  52    0     982.2    NA       0.0000   9999     5350  8240  0    
2019/08/27  19:07:00  BASE  0.55272  218  1.57584  195  1.3   83    -1.2  51    0     982.2    NA       0.0000   9999     5250  8270  0    
2019/08/27  19:08:00  BASE  0.87024  231  0.9702   232  1.2   83    -1.3  51    0     982.2    NA       0.0000   9999     5050  5480  22050
2019/08/27  19:09:00  BASE  0.53508  242  0.9702   232  1.2   83    -1.4  50    0     982.3    NA       0.0000   9999     5250  0     0    
2019/08/27  19:10:00  BASE  0.0882   260  0.9702   232  1.1   83    -1.5  49    0     982.3    NA       0.0000   9999     5320  0     0    
2019/08/27  19:11:00  BASE  0.0294   315  0.9702   232  1.1   83    -1.4  49    0     982.3    NA       0.0000   9999     5450  0     0    
2019/08/27  19:12:00  BASE  0.37044  6    0.9702   16   1.1   84    -1.4  48    0     982.3    NA       0.0000   9999     5220  5910  0    
2019/08/27  19:13:00  BASE  0.39984  14   0.9702   16   1.1   84    -1.3  49    0     982.3    NA       0.0000   9999     5150  0     0    
2019/08/27  19:14:00  BASE  0.05292  15   0.9702   16   1.2   84    -1.2  49    0     982.3    NA       0.0000   9999     5150  0     0    
2019/08/27  19:15:00  BASE  0.46452  330  2.0874   220  1.3   84    -1.2  49    0     982.3    NA       0.0000   9999     5150  0     0    
2019/08/27  19:16:00  BASE  2.16972  217  4.32768  205  1.2   83    -1.3  50    0     982.3    NA       0.0000   9999     5180  11190 0    
2019/08/27  19:17:00  BASE  4.09836  206  5.68596  210  1.1   83    -1.4  50    0     982.3    NA       0.0000   9999     11220 0     0    
2019/08/27  19:18:00  BASE  4.83924  205  5.68596  210  0.9   84    -1.5  49    0     982.2    NA       0.0000   9999     11290 0     0    
2019/08/27  19:19:00  BASE  4.48056  199  5.68596  210  0.7   84    -1.7  49    0     982.2    NA       0.0000   9999     11320 0     0    
2019/08/27  19:20:00  BASE  4.10424  192  5.68596  210  0.6   85    -1.7  49    0     982.2    NA       0.0000   9999     11290 0     0    
2019/08/27  19:21:00  BASE  4.28064  193  5.68596  210  0.5   86    -1.6  48    0     982.1    NA       0.0000   9999     6430  0     0    
2019/08/27  19:22:00  BASE  4.56288  191  5.68596  210  0.5   86    -1.6  48    0     982.1    NA       0.0000   9999     11450 0     0    
2019/08/27  19:23:00  BASE  3.99252  184  5.68596  210  0.4   87    -1.5  48    0     982.2    NA       0.0000   9999     11390 0     0    
2019/08/27  19:24:00  BASE  2.50488  175  5.68596  210  0.4   88    -1.4  48    0     982.2    NA       0.0000   9999     6460  0     0    
2019/08/27  19:25:00  BASE  1.9404   158  5.68596  210  0.3   88    -1.4  48    0     982.2    NA       0.0000   9999     6730  0     0    
2019/08/27  19:26:00  BASE  1.97568  143  5.68596  210  0.2   89    -1.4  48    0     982.2    NA       0.0000   9999     11390 0     0    
2019/08/27  19:27:00  BASE  1.62876  143  5.2626   214  0.1   90    -1.4  47    0     982.2    NA       0.0000   9999     11390 0     0    
2019/08/27  19:28:00  BASE  1.34064  149  5.145    192  0.0   91    -1.3  47    0     982.2    NA       0.0000   9999     6960  0     0    
2019/08/27  19:29:00  BASE  0.882    143  5.145    192  -0.0  92    -1.2  47    0     982.2    NA       0.0000   9999     4890  0     0    
2019/08/27  19:30:00  BASE  0.69972  135  4.93332  192  -0.0  93    -1.0  47    0     982.3    NA       0.0000   9999     4920  0     0    
2019/08/27  19:31:01  BASE  0.93492  127  4.93332  192  0.0   94    -0.9  48    0     982.3    NA       0.0000   9999     11390 0     0    
2019/08/27  19:32:01  BASE  1.09956  130  4.02192  184  0.1   95    -0.7  48    0     982.3    NA       0.0000   9999     7220  11390 0    
2019/08/27  19:33:00  BASE  1.27008  146  2.48136  151  0.1   95    -0.5  47    0     982.2    NA       0.0000   9999     11390 0     0    
2019/08/27  19:34:00  BASE  1.37592  160  2.48136  151  0.2   95    -0.5  48    0     982.2    NA       0.0000   9999     11420 0     0    
2019/08/27  19:35:00  BASE  1.323    172  2.058    145  0.3   95    -0.4  48    0     982.1    NA       0.0000   9999     11480 0     0    
2019/08/27  19:36:00  BASE  1.09956  180  1.63464  148  0.3   95    -0.3  49    0     982.1    NA       0.0000   9999     11480 0     0    
2019/08/27  19:37:00  BASE  0.65856  182  1.45236  160  0.4   95    -0.3  49    0     982.1    NA       0.0000   9999     11480 0     0    
2019/08/27  19:38:00  BASE  0.18816  181  1.45236  160  0.5   94    -0.3  49    0     982.1    NA       0.0000   9999     9880  11520 0    
2019/08/27  19:39:00  BASE  0.31164  156  1.63464  51   0.6   94    -0.3  50    0     982.1    NA       0.0000   9999     9780  0     0    
2019/08/27  19:40:00  BASE  1.0584   66   1.63464  51   0.5   93    -0.4  51    0     982.1    NA       0.0000   9999     11650 0     0    
2019/08/27  19:41:00  BASE  1.45236  54   1.66404  53   0.5   93    -0.5  51    0     982.2    NA       0.0000   9999     9940  0     0    
2019/08/27  19:42:00  BASE  1.47     50   2.0874   48   0.5   93    -0.6  52    0     982.2    NA       0.0000   9999     0     0     0    
2019/08/27  19:43:00  BASE  1.74636  32   2.29908  37   0.4   93    -0.7  52    0     982.2    NA       0.0000   9999     9580  0     0    
2019/08/27  19:44:00  BASE  2.38728  9    3.0576   354  0.3   93    -0.7  53    0     982.2    NA       0.0000   9999     9610  0     0    
2019/08/27  19:45:00  BASE  2.25792  2    3.0576   354  0.3   93    -0.7  53    0     982.2    NA       0.0000   9999     9650  0     0    
2019/08/27  19:46:00  BASE  1.43472  358  3.0576   354  0.3   93    -0.6  54    0     982.2    NA       0.0000   9999     13680 0     0    
2019/08/27  19:47:00  BASE  0.96432  357  3.0576   354  0.4   94    -0.5  54    0     982.2    NA       0.0000   9999     13750 0     0    
2019/08/27  19:48:01  BASE  0.82908  20   3.0576   354  0.5   93    -0.4  54    0     982.2    NA       0.0000   9999     0     0     0    
2019/08/27  19:49:00  BASE  1.06428  43   3.0576   354  0.6   93    -0.4  54    0     982.2    NA       0.0000   9999     0     0     0    
2019/08/27  19:50:00  BASE  1.21716  46   3.0576   354  0.7   92    -0.4  54    0     982.2    NA       0.0000   9999     13290 0     0    
2019/08/27  19:51:00  BASE  1.05252  51   3.0576   354  0.8   91    -0.4  54    0     982.2    NA       0.0000   9999     12730 0     0    
2019/08/27  19:52:01  BASE  1.04076  64   3.0576   354  0.8   91    -0.5  54    0     982.2    NA       0.0000   9999     13260 0     0    
2019/08/27  19:53:00  BASE  1.34652  70   3.0576   354  0.8   90    -0.6  54    0     982.2    NA       0.0000   9999     12700 0     0    
2019/08/27  19:54:01  BASE  1.62876  69   2.81064  3    0.8   90    -0.7  54    0     982.2    NA       0.0000   9999     0     0     0    
2019/08/27  19:55:00  BASE  1.57584  69   1.78752  70   0.8   89    -0.7  54    0     982.2    NA       0.0000   9999     0     0     0    
2019/08/27  19:56:00  BASE  1.24656  69   1.78752  70   0.8   89    -0.7  53    0     982.2    NA       0.0000   9999     12500 0     0    
2019/08/27  19:57:00  BASE  0.68796  65   1.78752  70   0.8   89    -0.8  53    0     982.2    NA       0.0000   9999     0     0     0    
2019/08/27  19:58:00  BASE  0.98196  253  1.78752  70   0.6   89    -1.1  54    0     982.2    NA       0.0000   9999     0     0     0    
2019/08/27  19:59:00  BASE  1.50528  246  1.78752  70   0.4   89    -1.2  53    0     982.1    NA       0.0000   9999     0     0     0    
2019/08/27  20:00:00  BASE  1.07016  234  1.78752  70   0.2   90    -1.3  52    0     982.1    NA       0.0000   9999     0     0     0    
2019/08/27  20:01:00  BASE  0.75852  206  1.78752  70   0.1   91    -1.2  52    0     982.2    NA       0.0000   9999     0     0     0    
2019/08/27  20:02:00  BASE  1.04076  201  1.78752  70   -0.1  92    -1.2  54    0     982.2    NA       0.0000   9999     0     0     0    
2019/08/27  20:03:00  BASE  1.37004  212  1.78752  70   -0.1  94    -1.0  54    0     982.2    NA       0.0000   9999     0     0     0    
2019/08/27  20:04:00  BASE  1.16424  217  1.75224  217  -0.0  95    -0.8  68    0     982.2    NA       0.0000   9999     0     0     0    
2019/08/27  20:05:00  BASE  0.71148  220  1.75224  217  -0.0  95    -0.7  62    0     982.2    NA       0.0000   9999     0     0     0    
2019/08/27  20:06:00  BASE  0.51156  203  1.75224  217  -0.1  95    -0.7  51    0     982.2    NA       0.0000   9999     0     0     0    
2019/08/27  20:07:00  BASE  0.6762   168  1.75224  217  -0.0  96    -0.6  53    0     982.2    NA       0.0000   9999     0     0     0    
2019/08/27  20:08:00  BASE  0.93492  143  1.75224  217  0.1   97    -0.4  60    0     982.2    NA       0.0000   9999     0     0     0    
2019/08/27  20:09:00  BASE  1.029    140  1.75224  217  0.1   97    -0.4  52    0     982.2    NA       0.0000   9999     4590  0     0    
2019/08/27  20:10:00  BASE  0.87612  140  1.75224  217  0.1   97    -0.3  52    0     982.2    NA       0.0000   9999     4690  0     0    
2019/08/27  20:11:00  BASE  0.72324  155  1.75224  217  0.2   96    -0.3  53    0     982.2    NA       0.0000   9999     4590  0     0    
2019/08/27  20:12:00  BASE  0.7644   189  1.45236  208  0.2   96    -0.3  54    0     982.3    NA       0.0000   9999     4660  0     0    
2019/08/27  20:13:00  BASE  1.01724  210  1.32888  221  0.2   96    -0.4  54    0     982.3    NA       0.0000   9999     4720  0     0    
2019/08/27  20:14:00  BASE  1.37004  222  1.63464  229  0.1   96    -0.5  55    0     982.3    NA       0.0000   9999     0     0     0    
2019/08/27  20:15:00  BASE  1.47588  226  1.63464  229  0.0   96    -0.6  53    0     982.3    NA       0.0000   9999     0     0     0    
2019/08/27  20:16:00  BASE  1.43472  219  1.66404  217  -0.1  96    -0.7  51    0     982.3    NA       0.0000   9999     0     0     0    
2019/08/27  20:17:00  BASE  1.39944  207  1.66404  217  -0.2  96    -0.8  50    0     982.3    NA       0.0000   9999     0     0     0    
2019/08/27  20:18:00  BASE  1.27008  200  1.66404  217  -0.3  96    -0.9  48    0     982.3    NA       0.0000   9999     0     0     0    
2019/08/27  20:19:00  BASE  1.04664  202  1.66404  217  -0.4  97    -0.8  48    0     982.3    NA       0.0000   9999     0     0     0    
2019/08/27  20:20:00  BASE  0.4998   204  1.66404  217  -0.4  98    -0.7  46    0     982.3    NA       0.0000   9999     0     0     0    
2019/08/27  20:21:00  BASE  0.05292  198  1.66404  217  -0.4  99    -0.5  44    0     982.3    NA       0.0000   9999     0     0     0    
2019/08/27  20:22:00  BASE  0        190  1.66404  217  -0.3  99    -0.4  44    0     982.3    NA       0.0000   9999     4760  0     0    
2019/08/27  20:23:00  BASE  0.38808  179  1.66404  217  -0.3  100   -0.3  42    0     982.3    NA       0.0000   9999     0     0     0    
2019/08/27  20:24:00  BASE  0.9408   160  1.66404  217  -0.2  100   -0.2  42    0     982.2    NA       0.0000   9999     0     0     0    
2019/08/27  20:25:00  BASE  1.18188  149  1.66404  217  -0.1  100   -0.1  41    0     982.2    NA       0.0000   9999     0     0     0    
2019/08/27  20:26:00  BASE  1.22304  141  1.54056  202  -0.1  100   -0.1  40    0     982.3    NA       0.0000   9999     0     0     0    
2019/08/27  20:27:00  BASE  0.99372  134  1.35828  206  -0.1  100   -0.1  39    0     982.3    NA       0.0000   9999     8830  0     0    
2019/08/27  20:28:00  BASE  0.72912  120  1.32888  134  -0.1  100   -0.1  38    0     982.3    NA       0.0000   9999     0     0     0    
2019/08/27  20:29:00  BASE  0.95256  93   1.90512  57   -0.1  100   -0.1  37    0     982.3    NA       0.0000   9999     0     0     0    
2019/08/27  20:30:00  BASE  1.50528  60   1.90512  44   -0.2  100   -0.2  37    0     982.3    NA       0.0000   9999     0     0     0    
2019/08/27  20:31:00  BASE  1.59936  41   1.90512  44   -0.3  99    -0.3  36    0     982.3    NA       0.0000   9999     0     0     0    
2019/08/27  20:32:00  BASE  1.19952  36   1.90512  44   -0.3  99    -0.4  36    0     982.2    NA       0.0000   9999     0     0     0    
2019/08/27  20:33:00  BASE  0.6174   33   1.90512  44   -0.4  99    -0.5  35    0     982.2    NA       0.0000   9999     4760  0     0    
2019/08/27  20:34:00  BASE  0.42336  33   1.90512  44   -0.4  99    -0.5  35    0     982.2    NA       0.0000   9999     4590  0     0    
2019/08/27  20:35:00  BASE  0.57036  27   1.90512  44   -0.3  100   -0.4  33    0     982.2    NA       0.0000   9999     4560  0     0    
2019/08/27  20:36:00  BASE  0.88788  18   1.90512  44   -0.3  100   -0.3  32    0     982.2    NA       0.0000   9999     4660  0     0    
2019/08/27  20:37:00  BASE  1.1466   12   1.90512  44   -0.3  100   -0.3  30    0     982.2    NA       0.0000   9999     8500  0     0    
2019/08/27  20:38:00  BASE  1.08192  5    1.90512  44   -0.4  100   -0.4  30    0     982.2    NA       0.0000   9999     4690  8300  0    
2019/08/27  20:39:00  BASE  1.18776  7    1.90512  44   -0.4  100   -0.4  29    0     982.2    NA       0.0000   9999     8330  0     0    
2019/08/27  20:40:00  BASE  1.32888  10   1.75224  36   -0.5  100   -0.5  29    0     982.2    NA       0.0000   9999     8170  0     0    
2019/08/27  20:41:00  BASE  1.42296  8    1.63464  17   -0.6  100   -0.6  28    0     982.2    NA       0.0000   9999     0     0     0    
2019/08/27  20:42:00  BASE  1.3818   0    1.63464  17   -0.6  100   -0.6  27    0     982.3    NA       0.0000   9999     8140  0     0    
2019/08/27  20:43:00  BASE  1.2054   352  1.63464  17   -0.7  100   -0.7  27    0     982.3    NA       0.0000   9999     8170  0     0    
2019/08/27  20:44:00  BASE  1.08192  349  1.63464  17   -0.7  100   -0.7  26    0     982.3    NA       0.0000   9999     8200  0     0    
2019/08/27  20:45:00  BASE  1.12896  348  1.63464  17   -0.7  100   -0.7  25    0     982.3    NA       0.0000   9999     4070  0     0    
2019/08/27  20:46:00  BASE  1.27008  355  1.63464  17   -0.8  100   -0.8  24    0     982.3    NA       0.0000   9999     0     0     0    
2019/08/27  20:47:00  BASE  1.31712  355  1.63464  17   -0.8  100   -0.8  23    0     982.3    NA       0.0000   9999     0     0     0    
2019/08/27  20:48:00  BASE  1.33476  339  1.63464  17   -0.8  100   -0.8  22    0     982.3    NA       0.0000   9999     0     0     0    
2019/08/27  20:49:00  BASE  1.28184  323  1.63464  314  -0.8  100   -0.8  21    0     982.2    NA       0.0000   9999     4300  0     0    
2019/08/27  20:50:00  BASE  1.55232  313  2.0874   306  -0.8  100   -0.8  21    0     982.2    NA       0.0000   9999     0     0     0    
2019/08/27  20:51:00  BASE  2.0874   306  2.51076  303  -0.8  100   -0.8  20    0     982.2    NA       0.0000   9999     0     0     0    
2019/08/27  20:52:00  BASE  2.59896  302  3.234    291  -0.8  100   -0.8  19    0     982.2    NA       0.0000   9999     0     0     0    
2019/08/27  20:53:00  BASE  2.99292  297  3.26928  292  -0.8  100   -0.8  18    0     982.1    NA       0.0000   9999     0     0     0    
2019/08/27  20:54:00  BASE  2.87532  297  3.26928  292  -0.8  100   -0.8  17    0     982.1    NA       0.0000   9999     0     0     0    
2019/08/27  20:55:00  BASE  2.5284   308  3.26928  292  -0.9  100   -0.9  15    0     982.2    NA       0.0000   9999     4130  0     0    
2019/08/27  20:56:00  BASE  2.40492  326  3.26928  292  -0.9  100   -0.9  13    0     982.2    NA       0.0000   9999     0     0     0    
2019/08/27  20:57:00  BASE  2.26968  335  3.26928  292  -0.9  100   -0.9  11    0     982.2    NA       0.0000   9999     0     0     0    
2019/08/27  20:58:00  BASE  2.11092  334  3.26928  292  -0.9  100   -0.9  10    0     982.1    NA       0.0000   9999     0     0     0    
2019/08/27  20:59:00  BASE  2.1462   331  3.26928  292  -0.9  100   -0.9  8     0     982.1    NA       0.0000   9999     0     0     0    
2019/08/27  21:00:00  BASE  2.18736  321  3.26928  292  -0.9  100   -0.9  7     0     982.1    NA       0.0000   9999     0     0     0    
2019/08/27  21:01:00  BASE  2.24616  316  3.26928  292  -1.0  100   -1.0  7     0     982.1    NA       0.0000   9999     4230  0     0    
2019/08/27  21:02:00  BASE  1.98744  319  3.26928  292  -1.0  100   -1.0  7     0     982.2    NA       0.0000   9999     4040  0     0    
2019/08/27  21:03:00  BASE  1.45824  322  2.93412  290  -1.0  100   -1.0  7     0     982.2    NA       0.0000   9999     3900  0     0    
2019/08/27  21:04:00  BASE  1.18776  326  2.59896  320  -1.1  100   -1.1  7     0     982.2    NA       0.0000   9999     4300  0     0    
2019/08/27  21:05:00  BASE  1.31712  334  2.59896  320  -1.1  100   -1.1  6     0     982.2    NA       0.0000   9999     0     0     0    
2019/08/27  21:06:00  BASE  1.83456  339  2.59896  339  -1.1  100   -1.1  6     0     982.1    NA       0.0000   9999     4200  0     0    
2019/08/27  21:07:00  BASE  2.58132  342  3.51036  350  -1.0  100   -1.0  5     0     982.1    NA       0.0000   9999     4270  0     0    
2019/08/27  21:08:00  BASE  3.33984  348  4.02192  350  -1.0  100   -1.0  5     0     982.1    NA       0.0000   9999     4100  0     0    
2019/08/27  21:09:00  BASE  3.7338   347  4.1454   349  -1.0  100   -1.0  4     0     982.1    NA       0.0000   9999     4130  0     0    
2019/08/27  21:10:00  BASE  3.72792  342  4.1454   349  -0.9  100   -0.9  4     0     982.2    NA       0.0000   9999     3900  0     0    
2019/08/27  21:11:00  BASE  3.48684  336  4.1454   349  -0.9  100   -0.9  3     0     982.2    NA       0.0000   9999     0     0     0    
2019/08/27  21:12:00  BASE  3.2928   338  4.1454   349  -0.9  100   -0.9  3     0     982.2    NA       0.0000   9999     4040  0     0    
2019/08/27  21:13:00  BASE  2.9988   343  4.1454   349  -0.9  100   -0.9  2     0     982.2    NA       0.0000   9999     4040  0     0    
2019/08/27  21:14:00  BASE  2.5578   350  4.1454   349  -0.9  100   -0.9  2     0     982.3    NA       0.0000   9999     4100  0     0    
2019/08/27  21:15:00  BASE  2.25204  358  4.1454   349  -0.8  100   -0.8  2     0     982.3    NA       0.0000   9999     3940  0     0    
2019/08/27  21:16:00  BASE  2.10504  2    4.1454   349  -0.8  100   -0.8  2     0     982.3    NA       0.0000   9999     3770  0     0    
2019/08/27  21:17:00  BASE  2.09916  2    4.1454   349  -0.8  100   -0.8  2     0     982.3    NA       0.0000   9999     3710  0     0    
2019/08/27  21:18:00  BASE  2.14032  357  4.1454   349  -0.8  100   -0.8  2     0     982.3    NA       0.0000   9999     3770  0     0    
2019/08/27  21:19:00  BASE  2.54016  355  3.81024  345  -0.8  100   -0.8  2     0     982.3    NA       0.0000   9999     3770  0     0    
2019/08/27  21:20:00  BASE  3.1458   356  3.83964  1    -0.9  100   -0.9  2     0     982.3    NA       0.0000   9999     3740  0     0    
2019/08/27  21:21:00  BASE  3.23988  358  3.83964  1    -0.9  100   -0.9  1     0     982.3    NA       0.0000   9999     3610  0     0    
2019/08/27  21:22:00  BASE  2.65188  353  3.83964  1    -0.9  100   -0.9  1     0     982.3    NA       0.0000   9999     3810  0     0    
2019/08/27  21:23:00  BASE  1.95216  345  3.83964  1    -0.8  100   -0.8  1     0     982.3    NA       0.0000   9999     0     0     0    
2019/08/27  21:24:00  BASE  1.5582   334  3.83964  1    -0.8  100   -0.8  1     0     982.3    NA       0.0000   9999     0     0     0    
2019/08/27  21:25:00  BASE  1.37004  333  3.83964  1    -0.8  100   -0.8  1     0     982.3    NA       0.0000   9999     0     0     0    
2019/08/27  21:26:00  BASE  1.40532  347  3.83964  1    -0.7  100   -0.7  1     0     982.3    NA       0.0000   9999     4330  0     0    
2019/08/27  21:27:00  BASE  1.55232  6    3.83964  1    -0.7  100   -0.7  1     0     982.3    NA       0.0000   9999     0     0     0    
2019/08/27  21:28:00  BASE  1.68756  23   3.83964  1    -0.7  100   -0.7  0     0     982.3    NA       0.0000   9999     0     0     0    
2019/08/27  21:29:00  BASE  1.69932  31   3.83964  1    -0.6  100   -0.6  0     0     982.3    NA       0.0000   9999     0     0     0    
2019/08/27  21:30:00  BASE  1.61112  31   3.53976  3    -0.6  100   -0.6  0     0     982.3    NA       0.0000   9999     0     0     0    
2019/08/27  21:31:00  BASE  1.64052  30   2.69304  351  -0.6  100   -0.6  0     0     982.3    NA       0.0000   9999     0     0     0    
2019/08/27  21:32:00  BASE  1.92276  31   2.24028  28   -0.7  100   -0.7  0     0     982.3    NA       0.0000   9999     0     0     0    
2019/08/27  21:33:00  BASE  2.16972  25   2.45196  14   -0.7  100   -0.7  0     0     982.3    NA       0.0000   9999     0     0     0    
2019/08/27  21:34:00  BASE  2.25792  16   2.45196  14   -0.7  100   -0.7  0     0     982.3    NA       0.0000   9999     3970  0     0    
2019/08/27  21:35:00  BASE  2.3814   15   2.69304  20   -0.7  100   -0.7  0     0     982.3    NA       0.0000   9999     0     0     0    
2019/08/27  21:36:00  BASE  2.47548  19   2.81064  25   -0.6  100   -0.6  0     0     982.3    NA       0.0000   9999     0     0     0    
2019/08/27  21:37:00  BASE  2.51664  21   2.81064  25   -0.6  100   -0.6  0     0     982.3    NA       0.0000   9999     0     0     0    
2019/08/27  21:38:00  BASE  2.44608  22   2.81064  25   -0.7  100   -0.7  0     0     982.3    NA       0.0000   9999     0     0     0    
2019/08/27  21:39:00  BASE  2.3226   25   2.81064  25   -0.7  100   -0.7  0     0     982.3    NA       0.0000   9999     0     0     0    
2019/08/27  21:40:00  BASE  2.16972  25   2.81064  25   -0.7  100   -0.7  0     0     982.2    NA       0.0000   9999     0     0     0    
2019/08/27  21:41:00  BASE  2.14032  22   2.81064  25   -0.7  100   -0.7  0     0     982.3    NA       0.0000   9999     4820  0     0    
2019/08/27  21:42:00  BASE  2.37552  29   2.84592  40   -0.6  100   -0.6  0     0     982.3    NA       0.0000   9999     0     0     0    
2019/08/27  21:43:00  BASE  2.43432  44   2.84592  40   -0.6  100   -0.6  0     0     982.3    NA       0.0000   9999     0     0     0    
2019/08/27  21:44:00  BASE  2.01684  53   2.84592  40   -0.6  100   -0.6  0     0     982.2    NA       0.0000   9999     4690  0     0    
2019/08/27  21:45:00  BASE  1.88748  59   2.84592  40   -0.5  100   -0.5  0     0     982.2    NA       0.0000   9999     4720  0     0    
2019/08/27  21:46:00  BASE  2.10504  59   2.84592  40   -0.5  100   -0.5  0     0     982.3    NA       0.0000   9999     4530  0     0    
2019/08/27  21:47:00  BASE  2.11092  50   2.84592  40   -0.4  100   -0.4  0     0     982.3    NA       0.0000   9999     4330  0     0    
2019/08/27  21:48:00  BASE  2.21676  45   2.84592  40   -0.4  100   -0.4  0     0     982.3    NA       0.0000   9999     4690  0     0    
2019/08/27  21:49:00  BASE  2.49312  49   2.84592  40   -0.4  100   -0.4  0     0     982.3    NA       0.0000   9999     4360  0     0    
2019/08/27  21:50:00  BASE  2.63424  47   2.84592  40   -0.4  100   -0.4  0     0     982.3    NA       0.0000   9999     4200  0     0    
2019/08/27  21:51:00  BASE  2.5872   44   2.84592  40   -0.4  100   -0.4  0     0     982.3    NA       0.0000   9999     4270  0     0    
2019/08/27  21:52:00  BASE  2.4696   49   2.75184  56   -0.4  100   -0.4  0     0     982.3    NA       0.0000   9999     4490  0     0    
2019/08/27  21:53:00  BASE  2.09916  41   2.75184  56   -0.4  100   -0.4  0     0     982.3    NA       0.0000   9999     4660  0     0    
2019/08/27  21:54:00  BASE  1.59348  15   2.75184  56   -0.3  100   -0.3  0     0     982.3    NA       0.0000   9999     4430  0     0    
2019/08/27  21:55:00  BASE  1.10544  2    2.75184  56   -0.2  100   -0.3  0     0     982.3    NA       0.0000   9999     4460  0     0    
2019/08/27  21:56:00  BASE  0.89376  22   2.75184  56   -0.2  99    -0.3  0     0     982.3    NA       0.0000   9999     4460  0     0    
2019/08/27  21:57:00  BASE  1.12308  50   2.75184  56   -0.1  99    -0.3  0     0     982.4    NA       0.0000   9999     4490  0     0    
2019/08/27  21:58:00  BASE  1.16424  57   2.75184  56   0.0   98    -0.3  0     0     982.4    NA       0.0000   9999     4530  0     0    
2019/08/27  21:59:00  BASE  0.77028  48   2.75184  56   0.1   97    -0.4  0     0     982.4    NA       0.0000   9999     4530  0     0    
2019/08/27  22:00:00  BASE  0.25872  33   2.75184  56   0.2   96    -0.5  0     0     982.4    NA       0.0000   9999     4690  0     0    
2019/08/27  22:01:00  BASE  0        13   2.75184  56   0.2   95    -0.6  0     0     982.3    NA       0.0000   9999     4760  0     0    
2019/08/27  22:02:00  BASE  0        355  2.0286   37   0.1   94    -0.7  0     0     982.3    NA       0.0000   9999     4720  0     0    
2019/08/27  22:03:00  BASE  0        347  1.48176  20   0.0   94    -0.9  0     0     982.3    NA       0.0000   9999     0     0     0    
2019/08/27  22:04:00  BASE  0        322  1.35828  52   -0.1  93    -1.1  0     0     982.3    NA       0.0000   9999     0     0     0    
2019/08/27  22:05:00  BASE  0        234  1.35828  52   -0.2  94    -1.1  0     0     982.3    NA       0.0000   9999     0     0     0    
2019/08/27  22:06:00  BASE  0        173  1.35828  52   -0.2  94    -1.1  0     0     982.3    NA       0.0000   9999     0     0     0    
2019/08/27  22:07:00  BASE  0.0588   141  1.1466   58   -0.2  94    -1.0  0     0     982.3    NA       0.0000   9999     0     0     0    
2019/08/27  22:08:00  BASE  0.52332  134  1.29948  160  -0.1  95    -0.8  0     0     982.3    NA       0.0000   9999     0     0     0    
2019/08/27  22:09:00  BASE  1.22892  155  1.69344  165  0.0   94    -0.8  0     0     982.3    NA       0.0000   9999     4430  0     0    
2019/08/27  22:10:00  BASE  1.59936  157  2.058    142  -0.0  94    -0.9  0     0     982.3    NA       0.0000   9999     4430  0     0    
2019/08/27  22:11:00  BASE  1.03488  144  2.058    142  -0.1  93    -1.1  0     0     982.3    NA       0.0000   9999     4460  0     0    
2019/08/27  22:12:00  BASE  0.39396  137  2.058    142  -0.3  93    -1.4  0     0     982.3    NA       0.0000   9999     4400  0     0    
2019/08/27  22:13:00  BASE  0.39984  141  2.058    142  -0.5  93    -1.5  0     0     982.3    NA       0.0000   9999     4330  0     0    
2019/08/27  22:14:00  BASE  0.45864  140  2.058    142  -0.5  93    -1.6  0     0     982.2    NA       0.0000   9999     4300  0     0    
2019/08/27  22:15:00  BASE  0.67032  147  2.058    142  -0.5  93    -1.5  0     0     982.2    NA       0.0000   9999     4400  0     0    
2019/08/27  22:16:00  BASE  0.47628  156  2.058    142  -0.5  93    -1.4  0     0     982.3    NA       0.0000   9999     4430  0     0    
2019/08/27  22:17:00  BASE  0.147    115  2.058    142  -0.4  94    -1.3  0     0     982.3    NA       0.0000   9999     4400  0     0    
2019/08/27  22:18:00  BASE  0.61152  54   2.058    142  -0.4  93    -1.3  0     0     982.3    NA       0.0000   9999     4430  0     0    
2019/08/27  22:19:00  BASE  1.24656  50   2.0874   89   -0.4  93    -1.3  0     0     982.3    NA       0.0000   9999     4430  0     0    
2019/08/27  22:20:00  BASE  1.37004  86   2.0874   89   -0.4  93    -1.4  0     0     982.2    NA       0.0000   9999     4430  0     0    
2019/08/27  22:21:00  BASE  1.39356  139  2.1168   177  -0.4  93    -1.4  0     0     982.2    NA       0.0000   9999     4530  0     0    
2019/08/27  22:22:01  BASE  1.54056  178  2.1168   177  -0.4  93    -1.4  0     0     982.2    NA       0.0000   9999     4460  0     0    
2019/08/27  22:23:00  BASE  1.029    162  2.1168   177  -0.5  93    -1.5  0     0     982.2    NA       0.0000   9999     0     0     0    
2019/08/27  22:24:00  BASE  1.22304  89   2.63424  61   -0.6  93    -1.6  0     0     982.3    NA       0.0000   9999     0     0     0    
2019/08/27  22:25:00  BASE  1.89924  58   2.63424  61   -0.7  93    -1.6  0     0     982.3    NA       0.0000   9999     0     0     0    
2019/08/27  22:26:00  BASE  1.4994   59   2.63424  61   -0.7  94    -1.5  0     0     982.3    NA       0.0000   9999     0     0     0    
2019/08/27  22:27:00  BASE  1.04664  74   2.63424  61   -0.5  94    -1.4  0     0     982.3    NA       0.0000   9999     0     0     0    
2019/08/27  22:28:00  BASE  0.96432  92   2.63424  61   -0.4  94    -1.2  0     0     982.2    NA       0.0000   9999     0     0     0    
2019/08/27  22:29:00  BASE  1.31124  105  2.63424  61   -0.3  94    -1.1  0     0     982.2    NA       0.0000   9999     0     0     0    
2019/08/27  22:30:00  BASE  1.47     105  2.63424  61   -0.2  94    -1.0  0     0     982.2    NA       0.0000   9999     0     0     0    
2019/08/27  22:31:00  BASE  1.32888  78   2.63424  61   -0.2  94    -1.1  0     0     982.2    NA       0.0000   9999     0     0     0    
2019/08/27  22:32:00  BASE  1.41708  52   2.63424  61   -0.2  93    -1.1  0     0     982.2    NA       0.0000   9999     4230  0     0    
2019/08/27  22:33:00  BASE  1.60524  28   2.63424  61   -0.3  93    -1.3  0     0     982.3    NA       0.0000   9999     0     0     0    
2019/08/27  22:34:00  BASE  1.7346   1    2.59896  60   -0.4  93    -1.4  0     0     982.3    NA       0.0000   9999     0     0     0    
2019/08/27  22:35:00  BASE  1.5876   4    2.058    3    -0.5  93    -1.5  0     0     982.3    NA       0.0000   9999     0     0     0    
2019/08/27  22:36:00  BASE  1.27596  20   2.058    3    -0.6  93    -1.5  0     0     982.3    NA       0.0000   9999     0     0     0    
2019/08/27  22:37:00  BASE  0.68796  37   2.058    3    -0.7  94    -1.6  0     0     982.3    NA       0.0000   9999     0     0     0    
2019/08/27  22:38:00  BASE  0.1176   69   2.058    3    -0.8  95    -1.5  0     0     982.3    NA       0.0000   9999     0     0     0    
2019/08/27  22:39:00  BASE  0.1764   122  2.058    3    -0.7  95    -1.4  0     0     982.2    NA       0.0000   9999     0     0     0    
2019/08/27  22:40:00  BASE  0.19992  145  2.058    3    -0.6  96    -1.2  0     0     982.2    NA       0.0000   9999     0     0     0    
2019/08/27  22:41:00  BASE  0.31752  122  2.058    3    -0.5  96    -1.1  0     0     982.3    NA       0.0000   9999     0     0     0    
2019/08/27  22:42:01  BASE  0.294    107  2.058    3    -0.4  96    -1.0  0     0     982.3    NA       0.0000   9999     0     0     0    
2019/08/27  22:43:00  BASE  0        105  2.058    3    -0.4  96    -1.0  0     0     982.3    NA       0.0000   9999     0     0     0    
2019/08/27  22:44:00  BASE  0        101  1.48176  1    -0.3  95    -1.0  0     0     982.3    NA       0.0000   9999     0     0     0    
2019/08/27  22:45:00  BASE  0.13524  111  1.45236  22   -0.4  95    -1.1  0     0     982.2    NA       0.0000   9999     0     0     0    
2019/08/27  22:46:00  BASE  0.58212  125  0.9702   138  -0.4  94    -1.2  0     0     982.2    NA       0.0000   9999     0     0     0    
2019/08/27  22:47:00  BASE  0.92904  121  1.24068  106  -0.5  94    -1.3  0     0     982.2    NA       0.0000   9999     0     0     0    
2019/08/27  22:48:00  BASE  1.06428  107  1.24068  103  -0.5  94    -1.4  0     0     982.2    NA       0.0000   9999     0     0     0    
2019/08/27  22:49:00  BASE  1.22892  98   1.45236  85   -0.6  94    -1.5  0     0     982.2    NA       0.0000   9999     0     0     0    
2019/08/27  22:50:00  BASE  1.3818   91   1.60524  88   -0.6  94    -1.5  0     0     982.2    NA       0.0000   9999     0     0     0    
2019/08/27  22:51:00  BASE  1.48764  88   1.63464  90   -0.6  94    -1.5  0     0     982.2    NA       0.0000   9999     0     0     0    
2019/08/27  22:52:00  BASE  1.3818   89   1.63464  90   -0.5  94    -1.3  0     0     982.2    NA       0.0000   9999     0     0     0    
2019/08/27  22:53:00  BASE  1.09956  86   1.63464  90   -0.3  94    -1.1  0     0     982.2    NA       0.0000   9999     0     0     0    
2019/08/27  22:54:00  BASE  1.12896  78   1.87572  67   -0.1  93    -1.1  0     0     982.2    NA       0.0000   9999     0     0     0    
2019/08/27  22:55:00  BASE  1.22892  74   1.87572  67   0.0   92    -1.1  0     0     982.2    NA       0.0000   9999     0     0     0    
2019/08/27  22:56:00  BASE  1.30536  79   1.87572  67   0.1   91    -1.3  0     0     982.2    NA       0.0000   9999     0     0     0    
2019/08/27  22:57:00  BASE  1.4112   98   1.87572  102  0.1   89    -1.6  0     0     982.2    NA       0.0000   9999     0     0     0    
2019/08/27  22:58:00  BASE  1.14072  129  1.87572  102  -0.1  87    -2.0  0     0     982.2    NA       0.0000   9999     0     0     0    
2019/08/27  22:59:00  BASE  0.84672  151  1.87572  102  -0.3  86    -2.4  0     0     982.2    NA       0.0000   9999     0     0     0    
2019/08/27  23:00:00  BASE  0.85848  149  1.87572  102  -0.4  85    -2.7  0     0     982.2    NA       0.0000   9999     0     0     0    
2019/08/27  23:01:00  BASE  0.78792  112  1.87572  102  -0.6  84    -2.9  0     0     982.2    NA       0.0000   9999     0     0     0    
2019/08/27  23:02:00  BASE  0.37044  106  1.87572  102  -0.7  85    -3.0  0     0     982.2    NA       0.0000   9999     0     0     0    
2019/08/27  23:03:00  BASE  0.0588   124  1.87572  102  -0.7  85    -3.0  0     0     982.2    NA       0.0000   9999     0     0     0    
2019/08/27  23:04:00  BASE  0        100  1.87572  102  -0.8  85    -2.9  0     0     982.2    NA       0.0000   9999     0     0     0    
2019/08/27  23:05:00  BASE  0        76   1.87572  102  -0.8  85    -2.9  0     0     982.2    NA       0.0000   9999     0     0     0    
2019/08/27  23:06:00  BASE  0        87   1.87572  102  -0.7  85    -2.9  0     0     982.2    NA       0.0000   9999     0     0     0    
2019/08/27  23:07:00  BASE  0.28224  108  1.35828  131  -0.7  85    -2.9  0     0     982.2    NA       0.0000   9999     0     0     0    
2019/08/27  23:08:00  BASE  0.74088  112  1.45236  100  -0.6  84    -3.0  0     0     982.2    NA       0.0000   9999     0     0     0    
2019/08/27  23:09:00  BASE  1.0878   115  1.60524  129  -0.6  83    -3.1  0     0     982.2    NA       0.0000   9999     0     0     0    
2019/08/27  23:10:00  BASE  1.65228  120  2.35788  107  -0.6  82    -3.2  0     0     982.2    NA       0.0000   9999     0     0     0    
2019/08/27  23:11:00  BASE  1.77576  125  2.35788  107  -0.7  82    -3.4  0     0     982.2    NA       0.0000   9999     0     0     0    
2019/08/27  23:12:00  BASE  1.48176  124  2.35788  107  -0.7  82    -3.4  0     0     982.2    NA       0.0000   9999     0     0     0    
2019/08/27  23:13:00  BASE  2.06976  105  3.99252  95   -0.7  82    -3.4  0     0     982.2    NA       0.0000   9999     0     0     0    
2019/08/27  23:14:00  BASE  2.93412  93   4.08072  94   -0.7  82    -3.4  0     0     982.2    NA       0.0000   9999     0     0     0    
2019/08/27  23:15:00  BASE  2.90472  83   4.08072  94   -0.6  82    -3.3  0     0     982.2    NA       0.0000   9999     0     0     0    
2019/08/27  23:16:00  BASE  2.71656  80   4.08072  94   -0.4  82    -3.2  0     0     982.2    NA       0.0000   9999     0     0     0    
2019/08/27  23:17:00  BASE  2.25204  74   4.08072  94   -0.2  81    -3.0  0     0     982.2    NA       0.0000   9999     0     0     0    
2019/08/27  23:18:00  BASE  1.8522   73   4.08072  94   0.1   81    -2.8  0     0     982.2    NA       0.0000   9999     0     0     0    
2019/08/27  23:19:00  BASE  2.0286   87   4.08072  94   0.3   80    -2.8  0     0     982.2    NA       0.0000   9999     0     0     0    
2019/08/27  23:20:00  BASE  2.0874   96   4.08072  94   0.4   79    -2.8  0     0     982.2    NA       0.0000   9999     0     0     0    
2019/08/27  23:21:00  BASE  1.94628  100  4.08072  94   0.4   78    -3.0  0     0     982.2    NA       0.0000   9999     0     0     0    
2019/08/27  23:22:00  BASE  0.90552  76   4.08072  94   0.3   77    -3.3  0     0     982.2    NA       0.0000   9999     0     0     0    
2019/08/27  23:23:00  BASE  0.0294   35   4.08072  94   0.2   77    -3.4  0     0     982.1    NA       0.0000   9999     0     0     0    
2019/08/27  23:24:00  BASE  0        30   3.48096  93   0.2   77    -3.4  0     0     982.1    NA       0.0000   9999     0     0     0    
2019/08/27  23:25:00  BASE  0        91   3.48096  93   0.0   77    -3.6  0     0     982.1    NA       0.0000   9999     0     0     0    
2019/08/27  23:26:00  BASE  0.57624  155  2.69304  105  -0.1  77    -3.6  0     0     982.1    NA       0.0000   9999     0     0     0    
2019/08/27  23:27:00  BASE  0.88788  154  2.69304  105  0.0   78    -3.3  0     0     982.1    NA       0.0000   9999     0     0     0    
2019/08/27  23:28:00  BASE  0.79968  164  2.69304  105  0.1   78    -3.2  0     0     982.1    NA       0.0000   9999     0     0     0    
2019/08/27  23:29:00  BASE  1.38768  179  2.69304  105  0.1   78    -3.3  0     0     982.0    NA       0.0000   9999     0     0     0    
2019/08/27  23:30:00  BASE  2.0286   180  2.56956  184  0.3   78    -3.1  0     0     982.0    NA       0.0000   9999     0     0     0    
2019/08/27  23:31:00  BASE  2.6166   184  3.56916  180  0.3   78    -3.1  0     0     982.0    NA       0.0000   9999     0     0     0    
2019/08/27  23:32:00  BASE  2.77536  182  3.56916  180  0.1   77    -3.4  0     0     982.0    NA       0.0000   9999     0     0     0    
2019/08/27  23:33:00  BASE  2.5872   177  3.56916  180  -0.2  78    -3.6  0     0     982.0    NA       0.0000   9999     4490  0     0    
2019/08/27  23:34:00  BASE  2.45784  166  3.56916  180  -0.5  79    -3.7  0     0     982.0    NA       0.0000   9999     0     0     0    
2019/08/27  23:35:00  BASE  1.83456  147  3.56916  180  -0.8  80    -3.8  0     0     982.0    NA       0.0000   9999     4490  0     0    
2019/08/27  23:36:00  BASE  1.28772  135  3.56916  180  -0.9  82    -3.5  0     0     982.0    NA       0.0000   9999     4490  0     0    
2019/08/27  23:37:00  BASE  0.95256  136  3.56916  180  -0.8  84    -3.2  0     0     982.0    NA       0.0000   9999     4630  0     0    
2019/08/27  23:38:00  BASE  1.0584   141  3.56916  180  -0.7  85    -2.9  0     0     982.0    NA       0.0000   9999     4690  0     0    
2019/08/27  23:39:00  BASE  1.68168  147  3.56916  180  -0.6  86    -2.7  0     0     982.0    NA       0.0000   9999     0     0     0    
2019/08/27  23:40:00  BASE  1.42884  146  3.56916  180  -0.4  86    -2.5  0     0     982.0    NA       0.0000   9999     0     0     0    
2019/08/27  23:41:00  BASE  0.46452  139  2.75184  176  -0.3  85    -2.5  0     0     982.0    NA       0.0000   9999     0     0     0    
2019/08/27  23:42:00  BASE  0.97608  131  2.87532  136  -0.3  84    -2.6  0     0     982.0    NA       0.0000   9999     0     0     0    
2019/08/27  23:43:00  BASE  2.49312  131  3.41628  140  -0.3  84    -2.8  0     0     981.9    NA       0.0000   9999     0     0     0    
2019/08/27  23:44:00  BASE  2.96352  136  3.41628  140  -0.4  83    -2.9  0     0     981.8    NA       0.0000   9999     17910 0     0    
2019/08/27  23:45:00  BASE  3.12816  130  3.69264  126  -0.5  83    -3.0  0     0     981.9    NA       0.0000   9999     0     0     0    
2019/08/27  23:46:00  BASE  3.06936  122  3.69264  126  -0.5  83    -3.0  0     0     981.9    NA       0.0000   9999     0     0     0    
2019/08/27  23:47:00  BASE  2.9106   133  3.69264  126  -0.4  84    -2.8  0     0     981.8    NA       0.0000   9999     0     0     0    
2019/08/27  23:48:00  BASE  3.0576   144  3.69264  126  -0.3  83    -2.8  0     0     981.8    NA       0.0000   9999     0     0     0    
2019/08/27  23:49:00  BASE  2.7048   141  3.69264  126  -0.4  83    -2.9  0     0     981.8    NA       0.0000   9999     0     0     0    
2019/08/27  23:50:00  BASE  2.13444  137  3.69264  126  -0.4  82    -3.0  0     0     981.8    NA       0.0000   9999     0     0     0    
2019/08/27  23:51:00  BASE  1.9698   129  3.69264  126  -0.5  82    -3.2  0     0     981.8    NA       0.0000   9999     0     0     0    
2019/08/27  23:52:00  BASE  1.75812  123  3.69264  126  -0.6  82    -3.3  0     0     981.8    NA       0.0000   9999     0     0     0    
2019/08/27  23:53:00  BASE  1.7934   106  3.69264  126  -0.6  82    -3.3  0     0     981.8    NA       0.0000   9999     0     0     0    
2019/08/27  23:54:00  BASE  2.10504  88   3.69264  126  -0.6  83    -3.2  0     0     981.8    NA       0.0000   9999     0     0     0    
2019/08/27  23:55:00  BASE  2.31672  76   3.56916  148  -0.5  83    -3.1  0     0     981.8    NA       0.0000   9999     0     0     0    
2019/08/27  23:56:00  BASE  2.15796  62   3.56916  148  -0.4  83    -2.9  0     0     981.8    NA       0.0000   9999     0     0     0    
2019/08/27  23:57:00  BASE  1.60524  74   3.56916  148  -0.2  82    -2.8  0     0     981.8    NA       0.0000   9999     0     0     0    
2019/08/27  23:58:00  BASE  1.68756  96   2.81064  61   -0.1  82    -2.8  0     0     981.8    NA       0.0000   9999     0     0     0    
2019/08/27  23:59:00  BASE  2.3814   105  3.35748  110  0.0   81    -2.9  0     0     981.8    NA       0.0000   9999     0     0     0